[[{"header":{"parameterUnit":"m.s-1","parameterCategory":1,"la1":30.6,"la2":28.766,"lo1":-90.7593,"lo2":-88.6598,"dy":0.0162,"dx":0.0183,"nx":116,"ny":114,"refTime":"2023-03-06T18:00:00:Z","depth":0,"parameterNumber":2,"parameterNumberName":"U-component_of_WINDS"},"data":[0.0,0.0,0.0,0.0,0.0,0.0,0.0,0.0,0.0,0.0,0.0,0.0,0.0,0.0,0.0,0.0,0.0,0.0,0.0,0.0,0.0,0.0,0.0,0.0,0.0,0.0,0.0,0.0,0.0,0.0,0.0,0.0,0.0,0.0,0.0,0.0,0.0,0.0,0.0,0.0,0.0,0.0,0.0,0.0,0.0,0.0,0.0,0.0,0.0,0.0,0.0,0.0,0.0,0.0,0.0,0.0,0.0,0.0,0.0,0.0,0.0,0.0,0.0,0.0,0.0,0.0,0.0,0.0,0.0,0.0,0.0,0.0,0.0,0.0,0.0,0.0,0.0,0.0,0.0,0.0,0.0,0.0,0.0,0.0,0.0,0.0,0.0,0.0,0.0,0.0,0.0,0.0,0.0,0.0,0.0,0.0,0.0,0.0,0.0,0.0,0.0,0.0,0.0,0.0,0.0,0.0,0.0,0.0,0.0,0.0,0.0,0.0,0.0,0.0,0.0,0.0,0.0,0.0,0.0,0.0,0.0,0.0,0.0,0.0,0.0,0.0,0.0,0.0,0.0,0.0,0.0,0.0,0.0,0.0,0.0,0.0,0.0,0.0,0.0,0.0,0.0,0.0,0.0,0.0,0.0,0.0,0.0,0.0,0.0,0.0,0.0,0.0,0.0,0.0,0.0,0.0,0.0,0.0,0.0,0.0,0.0,0.0,0.0,0.0,0.0,0.0,0.0,0.0,0.0,0.0,0.0,0.0,0.0,0.0,0.0,0.0,0.0,0.0,0.0,0.0,0.0,0.0,0.0,0.0,0.0,0.0,0.0,0.0,0.0,0.0,0.0,0.0,0.0,0.0,0.0,0.0,0.0,0.0,0.0,0.0,0.0,0.0,0.0,0.0,0.0,0.0,0.0,0.0,0.0,0.0,0.0,0.0,0.0,0.0,0.0,0.0,0.0,0.0,0.0,0.0,0.0,0.0,0.0,0.0,0.0,0.0,0.0,0.0,0.0,0.0,0.0,0.0,0.0,0.0,0.0,0.0,0.0,0.0,0.0,0.0,0.0,0.0,0.0,0.0,0.0,0.0,0.0,0.0,0.0,0.0,0.0,0.0,0.0,0.0,0.0,0.0,0.0,0.0,0.0,0.0,0.0,0.0,0.0,0.0,0.0,0.0,0.0,0.0,0.0,0.0,0.0,0.0,0.0,0.0,0.0,0.0,0.0,0.0,0.0,0.0,0.0,0.0,0.0,0.0,0.0,0.0,0.0,0.0,0.0,0.0,0.0,0.0,0.0,0.0,0.0,0.0,0.0,0.0,0.0,0.0,0.0,0.0,0.0,0.0,0.0,0.0,0.0,0.0,0.0,0.0,0.0,0.0,0.0,0.0,0.0,0.0,0.0,0.0,0.0,0.0,0.0,0.0,0.0,0.0,0.0,0.0,0.0,0.0,0.0,0.0,0.0,0.0,0.0,0.0,0.0,0.0,0.0,0.0,0.0,0.0,0.0,0.0,0.0,0.0,0.0,0.0,0.0,0.0,0.0,0.0,0.0,0.0,0.0,0.0,0.0,0.0,0.0,0.0,0.0,0.0,0.0,0.0,0.0,0.0,0.0,0.0,0.0,0.0,0.0,0.0,0.0,0.0,0.0,0.0,0.0,0.0,0.0,0.0,0.0,0.0,0.0,0.0,0.0,0.0,0.0,0.0,0.0,0.0,0.0,0.0,0.0,0.0,0.0,0.0,0.0,0.0,0.0,0.0,0.0,0.0,0.0,0.0,0.0,0.0,0.0,0.0,0.0,0.0,0.0,0.0,0.0,0.0,0.0,0.0,0.0,0.0,0.0,0.0,0.0,0.0,0.0,0.0,0.0,0.0,0.0,0.0,0.0,0.0,0.0,0.0,0.0,0.0,0.0,0.0,0.0,0.0,0.0,0.0,0.0,0.0,0.0,0.0,0.0,0.0,0.0,0.0,0.0,0.0,0.0,0.0,0.0,0.0,0.0,0.0,0.0,0.0,0.0,0.0,0.0,0.0,0.0,0.0,0.0,0.0,0.0,0.0,0.0,0.0,0.0,0.0,0.0,0.0,0.0,0.0,0.0,0.0,0.0,0.0,0.0,0.0,0.0,0.0,0.0,0.0,0.0,0.0,0.0,0.0,0.0,0.0,0.0,0.0,0.0,0.0,0.0,0.0,0.0,0.0,0.0,0.0,0.0,0.0,0.0,0.0,0.0,0.0,0.0,0.0,0.0,0.0,0.0,0.0,0.0,0.0,0.0,0.0,0.0,0.0,0.0,0.0,0.0,0.0,0.0,0.0,0.0,0.0,0.0,0.0,0.0,0.0,0.0,0.0,0.0,0.0,0.0,0.0,0.0,0.0,0.0,0.0,0.0,0.0,0.0,0.0,0.0,0.0,0.0,0.0,0.0,0.0,0.0,0.0,0.0,0.0,0.0,0.0,0.0,0.0,0.0,0.0,0.0,0.0,0.0,0.0,0.0,0.0,0.0,0.0,0.0,0.0,0.0,0.0,0.0,0.0,0.0,0.0,0.0,0.0,0.0,0.0,0.0,0.0,0.0,0.0,0.0,0.0,0.0,0.0,0.0,0.0,0.0,0.0,0.0,0.0,0.0,0.0,0.0,0.0,0.0,0.0,0.0,0.0,0.0,0.0,0.0,0.0,0.0,0.0,0.0,0.0,0.0,0.0,0.0,0.0,0.0,0.0,0.0,0.0,0.0,0.0,0.0,0.0,0.0,0.0,0.0,0.0,0.0,0.0,0.0,0.0,0.0,0.0,0.0,0.0,0.0,0.0,0.0,0.0,0.0,0.0,0.0,0.0,0.0,0.0,0.0,0.0,0.0,0.0,0.0,0.0,0.0,0.0,0.0,0.0,0.0,0.0,0.0,0.0,0.0,0.0,0.0,0.0,0.0,0.0,0.0,0.0,0.0,0.0,0.0,0.0,0.0,0.0,0.0,0.0,0.0,0.0,0.0,0.0,0.0,0.0,0.0,0.0,0.0,0.0,0.0,0.0,0.0,0.0,0.0,0.0,0.0,0.0,0.0,0.0,0.0,0.0,0.0,0.0,0.0,0.0,0.0,0.0,0.0,0.0,0.0,0.0,0.0,0.0,0.0,0.0,0.0,0.0,0.0,0.0,0.0,0.0,0.0,0.0,0.0,0.0,0.0,0.0,0.0,0.0,0.0,0.0,0.0,0.0,0.0,0.0,0.0,0.0,0.0,0.0,0.0,0.0,0.0,0.0,0.0,0.0,0.0,0.0,0.0,0.0,0.0,0.0,0.0,0.0,0.0,0.0,0.0,0.0,0.0,0.0,0.0,0.0,0.0,0.0,0.0,0.0,0.0,0.0,0.0,0.0,0.0,0.0,0.0,0.0,0.0,0.0,0.0,0.0,0.0,0.0,0.0,0.0,0.0,0.0,0.0,0.0,0.0,0.0,0.0,0.0,0.0,0.0,0.0,0.0,0.0,0.0,0.0,0.0,0.0,0.0,0.0,0.0,0.0,0.0,0.0,0.0,0.0,0.0,0.0,0.0,0.0,0.0,0.0,0.0,0.0,0.0,0.0,0.0,0.0,0.0,0.0,0.0,0.0,0.0,0.0,0.0,0.0,0.0,0.0,0.0,0.0,0.0,0.0,0.0,0.0,0.0,0.0,0.0,0.0,0.0,0.0,0.0,0.0,0.0,0.0,0.0,0.0,0.0,0.0,0.0,0.0,0.0,0.0,0.0,0.0,0.0,0.0,0.0,0.0,0.0,0.0,0.0,0.0,0.0,0.0,0.0,0.0,0.0,0.0,0.0,0.0,0.0,0.0,0.0,0.0,0.0,0.0,0.0,0.0,0.0,0.0,0.0,0.0,0.0,0.0,0.0,0.0,0.0,0.0,0.0,0.0,0.0,0.0,0.0,0.0,0.0,0.0,0.0,0.0,0.0,0.0,0.0,0.0,0.0,0.0,0.0,0.0,0.0,0.0,0.0,0.0,0.0,0.0,0.0,0.0,0.0,0.0,0.0,0.0,0.0,0.0,0.0,0.0,0.0,0.0,0.0,0.0,0.0,0.0,0.0,0.0,0.0,0.0,0.0,0.0,0.0,0.0,0.0,0.0,0.0,0.0,0.0,0.0,0.0,0.0,0.0,0.0,0.0,0.0,0.0,0.0,0.0,0.0,0.0,0.0,0.0,0.0,0.0,0.0,0.0,0.0,0.0,0.0,0.0,0.0,0.0,0.0,0.0,0.0,0.0,0.0,0.0,0.0,0.0,0.0,0.0,0.0,0.0,0.0,0.0,0.0,0.0,0.0,0.0,0.0,0.0,0.0,0.0,0.0,0.0,0.0,0.0,0.0,0.0,0.0,0.0,0.0,0.0,0.0,0.0,0.0,0.0,0.0,0.0,0.0,0.0,0.0,0.0,0.0,0.0,0.0,0.0,0.0,0.0,0.0,0.0,0.0,0.0,0.0,0.0,0.0,0.0,0.0,0.0,0.0,0.0,0.0,0.0,0.0,0.0,0.0,0.0,0.0,0.0,0.0,0.0,0.0,0.0,0.0,0.0,0.0,0.0,0.0,0.0,0.0,0.0,0.0,0.0,0.0,0.0,0.0,0.0,0.0,0.0,0.0,0.0,0.0,0.0,0.0,0.0,0.0,0.0,0.0,0.0,0.0,0.0,0.0,0.0,0.0,0.0,0.0,0.0,0.0,0.0,0.0,0.0,0.0,0.0,0.0,0.0,0.0,0.0,0.0,0.0,0.0,0.0,0.0,0.0,0.0,0.0,0.0,0.0,0.0,0.0,0.0,0.0,0.0,0.0,0.0,0.0,0.0,0.0,0.0,0.0,0.0,0.0,0.0,0.0,0.0,0.0,0.0,0.0,0.0,0.0,0.0,0.0,0.0,0.0,0.0,0.0,0.0,0.0,0.0,0.0,0.0,0.0,0.0,0.0,0.0,0.0,0.0,0.0,0.0,0.0,0.0,0.0,0.0,0.0,0.0,0.0,0.0,0.0,0.0,0.0,0.0,0.0,0.0,0.0,0.0,0.0,0.0,0.0,0.0,0.0,0.0,0.0,0.0,0.0,0.0,0.0,0.0,0.0,0.0,0.0,0.0,0.0,0.0,0.0,0.0,0.0,0.0,0.0,0.0,0.0,0.0,0.0,0.0,0.0,0.0,0.0,0.0,0.0,0.0,0.0,0.0,0.0,0.0,0.0,0.0,0.0,0.0,0.0,0.0,0.0,0.0,0.0,0.0,0.0,0.0,0.0,0.0,0.0,0.0,0.0,0.0,0.0,0.0,0.0,0.0,0.0,0.0,0.0,0.0,0.0,0.0,0.0,0.0,0.0,0.0,0.0,0.0,0.0,0.0,0.0,0.0,0.0,0.0,0.0,0.0,0.0,0.0,0.0,0.0,0.0,0.0,0.0,0.0,0.0,0.0,0.0,0.0,0.0,0.0,0.0,0.0,0.0,0.0,0.0,0.0,0.0,0.0,0.0,0.0,0.0,0.0,0.0,0.0,0.0,0.0,0.0,0.0,0.0,0.0,0.0,0.0,0.0,0.0,0.0,0.0,0.0,0.0,0.0,0.0,0.0,0.0,0.0,0.0,0.0,0.0,0.0,0.0,0.0,0.0,0.0,0.0,0.0,0.0,0.0,0.0,0.0,0.0,0.0,0.0,0.0,0.0,0.0,0.0,0.0,0.0,0.0,0.0,0.0,0.0,0.0,0.0,0.0,0.0,0.0,0.0,0.0,0.0,0.0,0.0,0.0,0.0,0.0,0.0,0.0,0.0,0.0,0.0,0.0,0.0,0.0,0.0,0.0,0.0,0.0,0.0,0.0,0.0,0.0,0.0,0.0,0.0,0.0,0.0,0.0,0.0,0.0,0.0,0.0,0.0,0.0,0.0,0.0,0.0,0.0,0.0,0.0,0.0,0.0,0.0,0.0,0.0,0.0,0.0,0.0,0.0,0.0,0.0,0.0,0.0,0.0,0.0,0.0,0.0,0.0,0.0,0.0,0.0,0.0,0.0,0.0,0.0,0.0,0.0,0.0,0.0,0.0,0.0,0.0,0.0,0.0,0.0,0.0,-1.076,-1.1573,0.0,0.0,0.0,0.0,0.0,0.0,0.0,0.0,0.0,0.0,0.0,0.0,0.0,0.0,0.0,0.0,0.0,0.0,0.0,0.0,0.0,0.0,0.0,0.0,0.0,0.0,0.0,0.0,0.0,0.0,0.0,0.0,0.0,0.0,0.0,0.0,0.0,0.0,0.0,0.0,0.0,0.0,0.0,0.0,0.0,0.0,0.0,0.0,0.0,0.0,0.0,0.0,0.0,0.0,0.0,0.0,0.0,0.0,0.0,0.0,0.0,0.0,0.0,0.0,0.0,0.0,0.0,0.0,0.0,0.0,0.0,0.0,0.0,0.0,0.0,0.0,0.0,0.0,0.0,0.0,0.0,0.0,0.0,0.0,0.0,0.0,0.0,0.0,0.0,0.0,0.0,0.0,0.0,0.0,0.0,0.0,0.0,0.0,0.0,0.0,0.0,0.0,0.0,0.0,0.0,0.0,0.0,0.0,0.0,0.0,0.0,0.0,0.0,0.0,-1.0504,-1.0862,0.0,0.0,0.0,0.0,0.0,0.0,0.0,0.0,0.0,0.0,0.0,0.0,0.0,0.0,0.0,0.0,0.0,0.0,0.0,0.0,0.0,0.0,0.0,0.0,0.0,0.0,0.0,0.0,0.0,0.0,0.0,0.0,0.0,0.0,0.0,0.0,0.0,0.0,0.0,0.0,0.0,0.0,0.0,0.0,0.0,0.0,0.0,0.0,0.0,0.0,0.0,0.0,0.0,0.0,0.0,0.0,0.0,0.0,0.0,0.0,0.0,0.0,0.0,0.0,0.0,0.0,0.0,0.0,0.0,0.0,0.0,0.0,0.0,0.0,0.0,0.0,0.0,0.0,0.0,0.0,0.0,0.0,0.0,0.0,0.0,0.0,0.0,0.0,0.0,0.0,0.0,0.0,0.0,0.0,0.0,0.0,0.0,0.0,0.0,0.0,0.0,0.0,0.0,0.0,0.0,0.0,0.0,0.0,-1.3272,-1.2726,-1.2365,-1.1995,-1.1245,-1.0291,-1.0783,-1.0421,-0.9533,-0.9974,0.0,0.0,0.0,0.0,0.0,0.0,0.0,0.0,0.0,0.0,0.0,0.0,0.0,0.0,0.0,0.0,0.0,0.0,0.0,0.0,0.0,0.0,0.0,0.0,0.0,0.0,0.0,0.0,0.0,0.0,0.0,0.0,0.0,0.0,0.0,0.0,0.0,0.0,-1.9662,-1.9984,-2.0269,-2.0497,0.0,0.0,0.0,0.0,0.0,0.0,0.0,0.0,0.0,0.0,0.0,0.0,0.0,0.0,0.0,0.0,0.0,0.0,0.0,0.0,0.0,0.0,0.0,0.0,0.0,0.0,0.0,0.0,0.0,0.0,0.0,0.0,0.0,0.0,0.0,0.0,0.0,0.0,0.0,0.0,0.0,0.0,0.0,0.0,-1.7425,-1.7123,0.0,0.0,0.0,0.0,0.0,0.0,0.0,0.0,0.0,0.0,0.0,0.0,0.0,-1.6271,-1.537,-1.4552,-1.4095,-1.3885,-1.2535,-1.1898,-1.1898,-1.1835,-1.1058,-0.9826,-1.0308,0.0,-0.9084,-0.9169,0.0,0.0,0.0,0.0,0.0,0.0,0.0,0.0,0.0,0.0,0.0,0.0,0.0,0.0,0.0,0.0,0.0,0.0,0.0,0.0,0.0,0.0,0.0,0.0,0.0,0.0,0.0,0.0,0.0,0.0,0.0,0.0,0.0,0.0,0.0,0.0,0.0,0.0,0.0,-2.1174,-2.1421,-2.1243,-2.1683,-2.1605,-2.1111,-2.0513,0.0,0.0,0.0,0.0,0.0,0.0,0.0,0.0,0.0,0.0,0.0,0.0,0.0,0.0,0.0,0.0,0.0,0.0,0.0,0.0,0.0,0.0,0.0,0.0,0.0,0.0,0.0,0.0,0.0,0.0,0.0,0.0,0.0,0.0,0.0,0.0,0.0,0.0,0.0,-1.8866,-1.8512,-1.7813,-1.8312,-1.8475,0.0,0.0,0.0,0.0,0.0,0.0,0.0,0.0,0.0,-1.7315,-1.6681,-1.5995,-1.5256,-1.4686,-1.4332,-1.4219,-1.3421,-1.3064,-1.3064,-1.2461,-1.186,-1.1274,-1.1217,-1.097,-1.0577,-0.9702,-0.9139,-0.8789,0.0,0.0,0.0,0.0,-0.7128,-0.7208,0.0,0.0,0.0,0.0,0.0,0.0,0.0,0.0,0.0,0.0,0.0,0.0,0.0,0.0,0.0,-1.8775,0.0,0.0,0.0,0.0,0.0,0.0,0.0,0.0,0.0,0.0,0.0,0.0,0.0,0.0,0.0,0.0,0.0,-2.2686,-2.3674,-2.3121,-2.1385,-2.1093,-2.0677,0.0,0.0,0.0,0.0,0.0,0.0,0.0,0.0,0.0,0.0,0.0,0.0,0.0,0.0,0.0,0.0,0.0,0.0,0.0,0.0,0.0,0.0,0.0,0.0,0.0,0.0,0.0,0.0,0.0,0.0,0.0,0.0,0.0,0.0,0.0,0.0,0.0,0.0,-1.9264,-1.9222,-1.8347,-1.893,-1.9145,0.0,0.0,0.0,0.0,0.0,0.0,-1.8282,-1.7915,-1.7622,-1.7504,-1.6659,-1.589,-1.5133,-1.4865,-1.4712,-1.4603,-1.4397,-1.4299,-1.4286,-1.3496,-1.3047,-1.2889,-1.2556,-1.2257,-1.1937,-1.0524,-0.9738,-0.9404,-0.9151,-0.8816,-0.8375,-0.7731,-0.7646,-0.7771,0.0,0.0,0.0,0.0,0.0,0.0,0.0,0.0,0.0,0.0,0.0,0.0,0.0,0.0,-1.8803,-2.0439,-1.9639,-1.8816,0.0,0.0,0.0,0.0,0.0,0.0,0.0,0.0,0.0,0.0,0.0,0.0,0.0,0.0,0.0,0.0,0.0,-2.4705,-2.3281,-2.2123,-2.162,-2.1485,0.0,0.0,0.0,0.0,0.0,0.0,0.0,0.0,0.0,0.0,0.0,0.0,0.0,0.0,0.0,0.0,0.0,0.0,0.0,0.0,0.0,0.0,0.0,0.0,0.0,0.0,0.0,0.0,0.0,0.0,0.0,0.0,0.0,0.0,0.0,0.0,0.0,0.0,0.0,-1.7899,-1.8306,0.0,0.0,0.0,0.0,-1.8191,-1.9004,-1.9311,-1.8721,-1.8661,-1.811,-1.7001,-1.6875,-1.6418,-1.5467,-1.5457,-1.5258,-1.4865,-1.4865,-1.4865,-1.4865,-1.4802,-1.4481,-1.4026,-1.3974,-1.3414,-1.2383,-1.1355,-1.0987,-1.0992,-1.0318,-1.0029,-0.9904,-0.9117,-0.8797,-0.8714,0.0,0.0,0.0,0.0,0.0,0.0,0.0,0.0,0.0,0.0,0.0,0.0,0.0,-2.0275,-2.0174,-2.0881,-2.0809,-2.018,-1.8862,0.0,0.0,0.0,0.0,0.0,0.0,0.0,0.0,0.0,0.0,0.0,0.0,0.0,0.0,0.0,0.0,0.0,-2.5269,-2.3627,-2.2203,-2.0991,-2.0064,-1.9023,0.0,0.0,0.0,0.0,0.0,0.0,0.0,0.0,0.0,0.0,0.0,0.0,0.0,0.0,0.0,0.0,0.0,0.0,0.0,0.0,0.0,0.0,0.0,0.0,0.0,0.0,0.0,0.0,0.0,0.0,0.0,0.0,0.0,0.0,0.0,0.0,0.0,-2.0179,-2.0544,0.0,-1.9116,-1.9344,-1.9196,-1.8269,-1.8316,-1.8508,-1.8687,-1.8702,-1.8708,-1.8711,-1.8033,-1.7495,-1.7188,-1.6505,-1.6084,-1.5932,-1.5567,-1.5392,-1.5392,-1.5079,-1.4787,-1.4607,-1.4607,-1.4365,-1.3944,-1.3164,-1.2298,-1.1406,-1.0779,-1.0531,-1.0418,-0.9289,-0.9016,-0.9063,0.0,0.0,0.0,0.0,0.0,0.0,0.0,0.0,0.0,0.0,0.0,-1.9708,-2.1046,-2.1051,-2.1254,-2.19,-2.1788,-2.0974,-1.9191,0.0,0.0,0.0,0.0,0.0,0.0,0.0,0.0,0.0,0.0,0.0,0.0,0.0,0.0,0.0,0.0,0.0,0.0,0.0,-2.3663,-2.1599,-2.0745,-1.9711,-1.859,0.0,0.0,0.0,0.0,0.0,0.0,0.0,0.0,0.0,0.0,0.0,0.0,0.0,0.0,0.0,0.0,0.0,0.0,0.0,0.0,0.0,0.0,0.0,0.0,0.0,0.0,0.0,0.0,0.0,0.0,0.0,0.0,0.0,0.0,-2.1845,-2.203,-2.204,-2.224,-2.1885,-2.0694,-2.0458,-2.0048,-1.9107,-1.8838,-1.8927,-1.9361,-1.9166,-1.9155,-1.9427,-1.8727,-1.8224,-1.7827,-1.7105,-1.668,-1.6509,-1.6145,-1.5969,-1.5957,-1.5593,-1.5429,-1.5429,-1.5203,-1.4988,-1.4711,-1.4127,-1.3139,-1.2002,-1.1628,-1.1406,-1.1158,-1.0203,-0.9874,-0.9703,0.0,0.0,0.0,0.0,0.0,0.0,0.0,0.0,0.0,0.0,-1.8013,-1.9141,-2.1476,-2.1413,-2.1872,-2.3576,-2.2456,-2.0945,-1.9216,-1.7962,0.0,0.0,0.0,0.0,0.0,0.0,0.0,0.0,0.0,0.0,0.0,0.0,0.0,0.0,0.0,0.0,0.0,0.0,0.0,-2.3616,-2.2288,-2.1005,-1.9759,0.0,0.0,0.0,0.0,0.0,0.0,0.0,0.0,0.0,0.0,0.0,0.0,0.0,0.0,0.0,0.0,0.0,0.0,0.0,0.0,0.0,0.0,0.0,0.0,0.0,0.0,0.0,0.0,0.0,0.0,0.0,0.0,0.0,-2.2621,-2.3406,-2.3913,-2.3265,-2.3165,-2.2881,-2.2214,-2.1581,-2.1088,-2.0775,-2.0737,-2.0737,-2.0737,-2.0109,-1.9501,-1.8988,-1.8936,-1.8408,-1.738,-1.7325,-1.7034,-1.6522,-1.6522,-1.6522,-1.6522,-1.6522,-1.6479,-1.6423,-1.5864,-1.5276,-1.4606,-1.405,-1.3467,-1.2881,-1.2881,-1.2617,-1.2202,-1.1883,-1.1366,-1.061,0.0,0.0,0.0,0.0,0.0,0.0,0.0,0.0,0.0,0.0,-1.8335,-2.0094,-2.2188,-2.274,-2.3305,-2.4266,-2.2425,-2.0599,-1.9209,0.0,0.0,0.0,0.0,0.0,0.0,0.0,0.0,0.0,0.0,0.0,0.0,0.0,0.0,0.0,0.0,0.0,0.0,0.0,0.0,0.0,-2.4155,-2.2392,-2.1241,0.0,0.0,0.0,0.0,0.0,0.0,0.0,0.0,0.0,0.0,0.0,0.0,0.0,0.0,0.0,0.0,0.0,0.0,0.0,0.0,0.0,0.0,0.0,0.0,0.0,0.0,0.0,0.0,0.0,0.0,0.0,-2.5726,-2.5406,-2.4205,-2.4694,-2.5107,-2.4875,-2.4527,-2.3938,-2.2921,-2.2316,-2.1827,-2.1464,-2.1425,-2.1425,-2.1425,-2.1246,-2.1102,-2.0931,-2.0094,-1.9308,-1.8632,-1.7717,-1.7034,-1.6522,-1.6522,-1.6522,-1.6522,-1.6522,-1.6238,-1.5864,-1.6139,-1.541,-1.405,-1.4329,-1.3836,-1.2881,-1.2881,-1.2812,-1.2609,-1.2033,-1.1366,-1.0661,0.0,0.0,0.0,0.0,0.0,0.0,0.0,0.0,0.0,0.0,-1.8283,-2.0175,-2.1345,-2.2503,-2.3266,-2.3385,-2.2117,-2.0527,-1.8808,0.0,0.0,0.0,0.0,0.0,0.0,0.0,0.0,0.0,0.0,0.0,0.0,0.0,0.0,0.0,0.0,0.0,0.0,0.0,0.0,0.0,-2.6229,-2.453,-2.3305,-2.2134,-2.1625,-2.1415,-2.1212,-2.1397,-2.1669,-2.1119,0.0,0.0,0.0,0.0,0.0,0.0,0.0,0.0,0.0,0.0,0.0,0.0,0.0,0.0,0.0,0.0,0.0,0.0,0.0,0.0,0.0,0.0,0.0,0.0,-2.7015,-2.71,-2.6879,-2.6735,-2.6617,-2.6526,-2.607,-2.5297,-2.4108,-2.3481,-2.3007,-2.2529,-2.2248,-2.2113,-2.2113,-2.1844,-2.1695,-2.1695,-2.103,-2.0261,-1.9461,-1.8738,-1.7876,-1.6886,-1.6886,-1.6748,-1.6522,-1.6522,-1.6194,-1.5588,-1.5688,-1.5017,-1.3826,-1.3931,-1.3515,0.0,0.0,0.0,0.0,0.0,-1.1566,-1.1116,0.0,0.0,0.0,0.0,0.0,0.0,0.0,0.0,0.0,0.0,0.0,-1.9435,-1.9361,-2.1141,-2.2099,-2.1515,-2.1356,-2.0377,0.0,0.0,0.0,0.0,0.0,0.0,0.0,0.0,0.0,0.0,0.0,0.0,0.0,0.0,0.0,0.0,0.0,0.0,0.0,0.0,0.0,0.0,0.0,-2.7054,-2.5546,-2.3923,-2.3957,-2.4662,-2.3609,-2.3241,-2.3302,-2.3003,0.0,0.0,0.0,0.0,0.0,0.0,0.0,0.0,0.0,0.0,0.0,0.0,0.0,0.0,0.0,0.0,0.0,0.0,0.0,0.0,0.0,0.0,0.0,0.0,-2.8366,-2.9004,-2.9853,-2.9053,-2.8297,-2.8088,-2.7624,-2.6787,-2.5564,-2.4932,-2.4414,-2.3863,-2.3251,-2.2892,-2.2892,-2.2278,0.0,0.0,0.0,-2.1172,-2.0012,-1.9855,-1.9012,-1.7476,-1.7476,-1.7174,-1.6609,-1.6609,-1.6212,-1.5499,-1.5062,-1.4422,-1.3684,-1.3286,-1.3017,-1.2881,-1.2881,-1.2881,-1.2822,-1.2187,-1.1913,-1.1823,0.0,0.0,0.0,0.0,0.0,0.0,0.0,0.0,0.0,-1.5067,-1.6802,-1.7861,-1.7339,-1.9076,-2.0213,-2.0094,-1.9317,-1.8418,0.0,0.0,0.0,0.0,0.0,0.0,0.0,0.0,0.0,0.0,0.0,0.0,0.0,0.0,0.0,0.0,0.0,0.0,0.0,0.0,0.0,0.0,0.0,-2.8895,-2.711,-2.6202,-2.566,-2.5387,-2.5159,-2.5414,-2.5744,-2.4597,-2.4785,-2.5206,-2.353,0.0,0.0,0.0,0.0,0.0,0.0,0.0,0.0,0.0,0.0,0.0,0.0,0.0,0.0,0.0,0.0,0.0,0.0,0.0,0.0,-2.8347,-2.8802,-2.936,-3.0813,-3.0489,-2.9897,-2.924,-2.8766,-2.8056,-2.7017,-2.6419,-2.5843,-2.5257,-2.4612,-2.4253,-2.4253,-2.361,-2.3236,-2.3236,-2.2248,-2.1398,-2.0706,-1.9701,-1.88,-1.8053,-1.8053,0.0,-1.7212,-1.7212,-1.6357,-1.4926,-1.5788,-1.4971,-1.3152,-1.4025,-1.38,-1.2881,-1.2881,-1.2881,-1.2881,-1.2725,-1.2666,-1.2559,0.0,0.0,0.0,0.0,0.0,0.0,0.0,0.0,0.0,0.0,-1.6262,-1.707,-1.6756,-1.7891,-1.8568,-1.8238,-1.7516,0.0,0.0,0.0,0.0,0.0,0.0,0.0,0.0,0.0,0.0,0.0,0.0,0.0,0.0,0.0,0.0,0.0,0.0,0.0,0.0,0.0,0.0,0.0,0.0,0.0,-2.8966,-2.8323,-2.8068,-2.7979,-2.7335,-2.7489,-2.7795,-2.6144,-2.6145,-2.659,-2.5219,-2.4611,-2.4265,0.0,0.0,0.0,0.0,0.0,0.0,0.0,0.0,0.0,0.0,0.0,0.0,0.0,0.0,-2.515,0.0,0.0,-2.7923,-2.9592,-3.0143,-3.0781,-3.1987,-3.1602,-3.0923,-3.0196,-2.9723,-2.8887,-2.7451,-2.7084,-2.6523,-2.5646,-2.53,-2.4971,-2.4597,-2.4612,-2.4298,-2.3625,-2.3615,-2.2898,-2.1329,-2.1015,-2.0083,-1.8618,-1.8618,-1.8329,-1.779,-1.7501,-1.6553,-1.5103,-1.5449,-1.456,-1.2929,-1.3573,-1.343,-1.2881,-1.2881,-1.2881,-1.2881,-1.2881,-1.2881,-1.2832,0.0,0.0,0.0,0.0,0.0,0.0,0.0,0.0,0.0,0.0,0.0,-1.6428,-1.6174,-1.6846,-1.7113,0.0,0.0,0.0,0.0,0.0,0.0,0.0,0.0,0.0,0.0,0.0,0.0,0.0,0.0,0.0,0.0,0.0,0.0,0.0,0.0,0.0,0.0,0.0,0.0,0.0,0.0,0.0,-3.0821,-3.0193,-3.0118,-3.0178,-2.9026,-2.8758,-2.8732,-2.7273,-2.6945,-2.7109,-2.6679,-2.6319,-2.5862,-2.4966,-2.4492,0.0,0.0,0.0,0.0,0.0,0.0,0.0,0.0,0.0,-2.5208,-2.5391,-2.5911,-2.6545,-2.717,-2.8297,-2.9531,-3.089,-3.1562,-3.2183,-3.2951,-3.2403,-3.1625,-3.0915,-3.0425,-2.952,-2.7843,-2.7609,-2.7105,-2.6083,-2.5869,-2.557,-2.5031,-2.539,-2.5106,-2.4029,-2.48,-2.4187,-2.2083,-2.2319,-2.1398,-1.9346,-1.9183,-1.8784,-1.8138,-1.7591,-1.6644,-1.5404,-1.4818,-1.402,-1.3174,-1.2959,-1.2881,-1.2881,-1.2881,-1.293,-1.2998,-1.291,-1.2881,-1.2881,0.0,0.0,0.0,0.0,0.0,0.0,0.0,0.0,0.0,0.0,0.0,0.0,0.0,0.0,0.0,0.0,0.0,0.0,0.0,0.0,0.0,0.0,0.0,0.0,0.0,0.0,0.0,0.0,0.0,0.0,0.0,0.0,0.0,0.0,0.0,0.0,0.0,0.0,0.0,0.0,0.0,0.0,-3.2213,-3.1569,-3.0642,-2.9579,-2.8861,-2.788,-2.6962,-2.7224,-2.7347,-2.7454,-2.7767,-2.774,-2.7266,-2.5896,0.0,-2.3342,-2.253,-2.2361,-2.2752,-2.41,-2.4065,-2.4559,0.0,0.0,-2.6993,-2.7801,-2.8068,-2.817,-2.831,-2.8933,-3.0069,-3.1909,-3.2293,-3.2563,-3.3254,-3.2693,-3.2006,-3.1416,-3.0683,-2.9959,-2.9227,-2.8683,-2.8104,-2.745,-2.6811,-2.6452,-2.6378,-2.5884,-2.554,-2.539,-2.4375,-2.3673,-2.3395,-2.2204,-2.1243,-2.0476,-1.986,-1.8994,-1.7948,-1.7361,-1.6476,-1.5248,-1.429,-1.4047,-1.4148,-1.3263,-1.2881,-1.2881,-1.2881,-1.3105,-1.3389,-1.3018,-1.2881,-1.2881,0.0,0.0,0.0,0.0,0.0,0.0,0.0,0.0,0.0,0.0,0.0,0.0,0.0,0.0,0.0,0.0,0.0,0.0,0.0,0.0,0.0,0.0,0.0,0.0,0.0,0.0,0.0,0.0,0.0,0.0,0.0,0.0,0.0,0.0,0.0,0.0,0.0,0.0,0.0,0.0,0.0,0.0,-3.2392,-3.133,-2.9879,-2.8323,-2.7664,-2.7233,0.0,0.0,-2.6222,-2.6961,-2.6813,-2.6662,-2.6319,-2.527,-2.4831,0.0,-2.3912,-2.3733,-2.3885,0.0,-2.55,-2.6631,-2.8168,-2.8424,-2.8436,-2.8826,-2.9027,-2.9197,-2.9613,-3.0216,-3.1095,0.0,-3.2798,-3.3276,-3.3946,-3.2731,-3.1831,-3.2029,-3.0396,-2.9134,-2.8919,-2.8654,-2.8238,-2.7675,-2.737,-2.6991,-2.6617,-2.6692,-2.6183,-2.5014,-2.5163,-2.4518,-2.291,-2.2703,-2.2103,-2.1142,-2.0079,-1.9352,-1.8834,-1.7989,-1.7175,-1.639,-1.5137,-1.4721,-1.4777,-1.3971,-1.3613,-1.3613,-1.3613,-1.3721,-1.3818,-1.3398,-1.3242,-1.3242,0.0,0.0,0.0,0.0,0.0,0.0,0.0,0.0,0.0,0.0,0.0,0.0,0.0,0.0,0.0,0.0,0.0,0.0,0.0,0.0,0.0,0.0,0.0,0.0,0.0,0.0,0.0,0.0,0.0,0.0,0.0,0.0,0.0,0.0,0.0,0.0,0.0,0.0,0.0,0.0,0.0,0.0,-3.1794,-3.0268,-2.8472,-2.6692,-2.6213,-2.5909,0.0,0.0,-2.4756,-2.5747,-2.5723,-2.5698,-2.5507,-2.4949,-2.4801,-2.4744,-2.4408,-2.4395,0.0,-2.5604,-2.6957,-2.8322,-2.9108,-2.9438,-2.9669,-2.9874,-2.9887,-2.9924,-3.0193,-3.0676,-3.1347,-3.2376,-3.2935,-3.3541,-3.4415,-3.2896,-3.1752,-3.1941,-2.9927,-2.8415,-2.8286,-2.8238,-2.8091,-2.7625,-2.7625,-2.7415,-2.6886,-2.7155,-2.6608,-2.5092,-2.5586,-2.4915,-2.2957,-2.3197,-2.2794,-2.1719,-2.0609,-1.9752,-1.9265,-1.8102,-1.7525,-1.7383,-1.6261,-1.5763,-1.5624,-1.4997,-1.4588,-1.4377,-1.4377,-1.436,-1.4277,-1.3975,-1.3789,-1.3682,0.0,0.0,0.0,0.0,0.0,0.0,0.0,0.0,0.0,0.0,0.0,0.0,0.0,0.0,0.0,0.0,0.0,0.0,0.0,0.0,0.0,0.0,0.0,0.0,0.0,0.0,0.0,0.0,0.0,0.0,0.0,0.0,0.0,0.0,0.0,0.0,0.0,0.0,0.0,0.0,0.0,0.0,-3.0357,-2.8397,-2.6437,-2.4672,-2.4642,0.0,0.0,0.0,-2.3202,-2.3594,-2.5129,-2.5593,0.0,-2.5575,-2.4258,0.0,0.0,0.0,-2.4595,-2.7412,-2.8148,-2.895,-3.1827,-3.1409,-3.0654,-3.1411,-3.0943,-3.0298,-2.9714,-2.9663,-3.0312,-3.2281,-3.2592,-3.3064,-3.4396,-3.337,-3.2036,-3.0798,-2.9381,-2.8286,-2.766,-2.7625,-2.7625,-2.7625,-2.7625,-2.761,-2.7595,-2.6916,-2.6481,-2.6453,-2.5106,-2.4337,-2.4239,-2.3505,-2.2836,-2.2284,-2.1533,-2.0217,-1.8475,-1.7353,-1.7197,-1.7831,-1.7444,-1.7117,-1.6901,-1.6491,-1.5873,-1.5184,-1.5184,-1.5001,-1.4766,-1.4756,-1.4473,-1.4058,0.0,0.0,0.0,0.0,0.0,0.0,0.0,0.0,0.0,0.0,0.0,0.0,0.0,0.0,0.0,0.0,0.0,0.0,0.0,0.0,0.0,0.0,0.0,0.0,0.0,0.0,0.0,0.0,0.0,0.0,0.0,0.0,0.0,0.0,0.0,0.0,0.0,0.0,0.0,0.0,0.0,0.0,-2.8869,-2.6492,-2.4657,-2.3221,0.0,0.0,0.0,0.0,0.0,0.0,-2.2378,0.0,0.0,-2.4066,0.0,0.0,0.0,0.0,-2.7211,-2.9243,-3.0051,-3.0744,-3.2201,-3.1471,-3.0443,-3.0295,-2.9026,-2.7844,-2.7634,-2.759,-2.8288,-3.0282,-3.1353,-3.2392,-3.374,-3.2782,-3.1584,-3.0725,-2.8943,0.0,0.0,0.0,-2.7408,-2.693,-2.7721,-2.7847,-2.6907,-2.7074,-2.6711,-2.5797,-2.4794,-2.406,-2.3484,-2.3258,-2.2977,-2.279,-2.1126,-1.9806,-1.8843,-1.8125,-1.8487,-1.9682,-1.869,-1.8194,-1.8072,-1.7432,-1.6775,-1.6098,-1.6413,-1.5991,-1.5273,-1.5859,-1.5615,-1.4941,0.0,0.0,0.0,0.0,0.0,0.0,0.0,0.0,0.0,0.0,0.0,0.0,0.0,0.0,0.0,0.0,0.0,0.0,0.0,0.0,0.0,0.0,0.0,0.0,0.0,0.0,0.0,0.0,0.0,0.0,0.0,0.0,0.0,0.0,0.0,0.0,0.0,0.0,0.0,0.0,0.0,0.0,-2.6304,-2.4309,-2.2906,0.0,0.0,0.0,0.0,0.0,0.0,0.0,0.0,0.0,0.0,0.0,0.0,0.0,0.0,-2.6663,-2.8086,-2.9565,-3.069,-3.1412,-3.1663,-3.0949,-2.9864,-2.8742,-2.767,-2.6758,-2.6242,-2.6306,-2.6995,-2.8858,-2.9689,-3.0665,-3.2285,-3.1601,-3.0799,-3.0569,-2.8912,-2.7619,0.0,0.0,0.0,-2.6463,-2.7417,-2.7645,-2.6734,-2.6849,-2.6452,-2.5347,-2.4609,-2.3867,-2.3138,-2.3078,-2.3078,-2.3065,-2.127,-2.0292,-2.0193,-1.9206,-1.9562,-2.0928,-1.9846,-1.9388,-1.9388,-1.8892,-1.829,-1.7599,-1.7571,-1.7089,-1.6357,-1.6586,-1.6377,-1.582,0.0,0.0,0.0,0.0,0.0,0.0,0.0,0.0,0.0,0.0,0.0,0.0,0.0,0.0,0.0,0.0,0.0,0.0,0.0,0.0,0.0,0.0,0.0,0.0,0.0,0.0,0.0,0.0,0.0,0.0,0.0,0.0,0.0,0.0,0.0,0.0,0.0,0.0,0.0,0.0,0.0,0.0,-2.3023,-2.2028,0.0,0.0,0.0,0.0,0.0,0.0,0.0,0.0,0.0,0.0,0.0,0.0,0.0,-2.425,-2.4371,-2.5693,-2.742,-2.8809,-3.015,-3.097,-3.0473,-2.9896,-2.8876,-2.6931,-2.69,-2.6778,0.0,0.0,-2.6484,-2.803,-2.7806,-2.8151,-3.0285,-3.0095,-2.9869,0.0,0.0,0.0,0.0,0.0,0.0,-2.6202,-2.6713,-2.7001,-2.6973,-2.6289,-2.5695,-2.5156,-2.4451,-2.3778,-2.3165,-2.3128,-2.3115,-2.3042,-2.1813,-2.1558,-2.2193,-2.0423,-2.0341,-2.1493,-2.0941,-2.0756,-2.0756,-2.0756,-2.0311,-1.9571,-1.8737,-1.8202,-1.7873,-1.7083,-1.6768,-1.668,0.0,0.0,0.0,0.0,0.0,0.0,0.0,0.0,0.0,0.0,0.0,0.0,0.0,0.0,0.0,0.0,0.0,0.0,0.0,0.0,0.0,0.0,0.0,0.0,0.0,0.0,0.0,0.0,0.0,0.0,0.0,0.0,0.0,0.0,0.0,0.0,0.0,0.0,0.0,0.0,0.0,0.0,-2.2251,0.0,0.0,0.0,0.0,0.0,0.0,0.0,0.0,0.0,0.0,0.0,-2.3011,0.0,0.0,-2.583,-2.6682,-2.8228,-2.989,-3.1055,-3.1232,-3.1108,-3.1176,-2.9193,-2.7066,-2.6063,-2.5087,-2.4157,0.0,0.0,0.0,-2.6745,-2.7968,0.0,-3.0379,-3.0815,0.0,-2.9697,0.0,-2.7737,-2.6607,-2.6175,0.0,0.0,-2.6974,-2.7285,-2.6228,-2.6453,-2.6364,-2.5722,-2.495,-2.4544,-2.4393,-2.3979,-2.3443,-2.2778,-2.1411,-2.1167,-2.197,-2.0445,-2.0641,-2.2071,-2.1518,-2.128,-2.128,-2.128,-2.0865,-2.0141,-1.9636,-1.8851,-1.7957,-1.776,-1.7275,-1.6768,0.0,0.0,0.0,0.0,0.0,0.0,0.0,0.0,0.0,0.0,0.0,0.0,0.0,0.0,0.0,0.0,0.0,0.0,0.0,0.0,0.0,0.0,0.0,0.0,0.0,0.0,0.0,0.0,0.0,0.0,0.0,0.0,0.0,0.0,0.0,0.0,0.0,0.0,0.0,0.0,0.0,0.0,0.0,0.0,0.0,0.0,0.0,0.0,0.0,0.0,0.0,-2.1469,-2.2884,-2.3824,-2.4671,-2.6088,0.0,-2.7079,-2.7949,-2.9026,-2.9984,-3.0388,-3.0476,-3.0367,-2.9769,-2.8062,-2.6324,-2.5273,-2.4596,0.0,-2.3626,-2.4358,-2.5297,0.0,0.0,0.0,-2.9454,-2.9888,-3.0104,0.0,-2.8844,0.0,-2.7485,-2.6588,-2.6076,-2.6327,-2.6946,-2.6973,-2.6207,-2.6504,-2.6413,-2.582,-2.5394,-2.5059,-2.482,-2.4519,-2.3825,-2.2714,-2.1894,-2.1637,-2.1865,-2.083,-2.12,-2.2636,-2.2083,-2.1845,-2.1845,-2.1845,-2.1617,-2.1156,-2.0542,-1.9817,-1.9091,-1.8726,-1.8029,-1.7324,0.0,0.0,0.0,0.0,0.0,0.0,0.0,0.0,0.0,0.0,0.0,0.0,0.0,0.0,0.0,0.0,0.0,0.0,0.0,0.0,0.0,0.0,0.0,0.0,0.0,0.0,0.0,0.0,0.0,0.0,0.0,0.0,0.0,0.0,0.0,0.0,0.0,0.0,0.0,0.0,0.0,0.0,0.0,0.0,0.0,0.0,0.0,0.0,0.0,0.0,-2.134,-2.2353,-2.4253,-2.5794,-2.708,-2.8148,-2.8369,-2.831,-2.8637,-2.8924,-2.9109,-2.8825,-2.916,-2.9218,-2.7796,-2.6894,-2.5935,-2.4583,0.0,-2.5051,-2.4935,-2.4939,-2.5252,-2.6174,0.0,-2.6291,-2.8301,-2.8473,-2.8999,-3.06,-2.8978,-2.8197,-2.9149,-2.7633,-2.6766,-2.7256,-2.6841,-2.6609,-2.6533,-2.6533,-2.6226,-2.5724,-2.5711,-2.5498,-2.5046,-2.4958,-2.4168,-2.2822,-2.2692,-2.242,-2.1972,-2.1301,-2.1837,-2.3165,-2.2661,-2.2422,-2.2422,-2.2498,-2.2535,-2.2477,-2.1669,-2.1093,-2.0651,-1.9809,-1.893,-1.8096,0.0,0.0,0.0,0.0,0.0,0.0,0.0,0.0,0.0,0.0,-1.7526,-1.7002,0.0,0.0,0.0,0.0,0.0,0.0,0.0,0.0,0.0,0.0,0.0,0.0,0.0,0.0,0.0,0.0,0.0,0.0,0.0,0.0,0.0,0.0,0.0,0.0,0.0,0.0,0.0,0.0,0.0,0.0,0.0,0.0,0.0,0.0,0.0,0.0,0.0,0.0,-2.1253,-2.3139,-2.5503,-2.7171,-2.8343,-2.8665,-2.9588,-3.0297,-2.9158,-2.9812,-3.0684,-3.0336,-2.9558,-2.8782,-2.8418,-2.6609,0.0,0.0,-2.406,-2.436,-2.4342,-2.5138,-2.6057,-2.691,-2.7011,-2.7354,-2.8213,-2.8828,-2.9096,0.0,-2.8597,-2.8356,-2.8312,-2.7591,0.0,0.0,-2.7193,-2.6942,-2.6546,-2.6533,-2.6483,-2.6382,-2.6314,-2.6264,-2.6176,-2.5699,-2.4777,-2.337,-2.2534,-2.2269,-2.2519,-2.1617,-2.2157,-2.3816,-2.3238,0.0,-2.3025,-2.3502,-2.3703,-2.3679,-2.3264,-2.2527,-2.1653,-2.085,-1.9655,-1.8525,0.0,0.0,0.0,0.0,0.0,0.0,0.0,-1.8203,-1.8809,-1.9169,-1.8927,-1.836,-1.747,-1.7178,-1.685,0.0,0.0,0.0,0.0,0.0,0.0,0.0,0.0,0.0,0.0,0.0,0.0,0.0,0.0,0.0,0.0,0.0,0.0,0.0,0.0,0.0,0.0,0.0,0.0,0.0,0.0,0.0,0.0,0.0,0.0,0.0,0.0,0.0,0.0,0.0,-2.067,-2.2457,-2.5233,-2.7469,-2.9183,-2.948,-3.0316,-3.102,-3.0546,-3.1154,-3.182,-3.1439,-3.0417,-2.9185,-2.8299,0.0,0.0,0.0,-2.4796,-2.5203,-2.5452,-2.557,0.0,-2.6566,-2.6262,-2.6381,-2.7616,-2.7655,-2.7815,-2.841,-2.8101,-2.8055,-2.8448,-2.8034,-2.7833,-2.8109,-2.7871,-2.7344,-2.6571,-2.6533,-2.6659,-2.6879,-2.6684,-2.6533,-2.6533,-2.6189,-2.5333,-2.3883,-2.2914,-2.2662,-2.3066,-2.2092,-2.2496,-2.3979,-2.3703,-2.359,-2.3602,-2.3891,-2.4167,-2.4392,-2.423,-2.329,-2.1945,-2.1358,-2.0198,-1.8945,0.0,0.0,0.0,0.0,0.0,0.0,0.0,-1.8524,-1.9286,-2.0017,-2.0187,-1.9755,-1.8496,-1.7804,-1.7122,0.0,0.0,0.0,0.0,0.0,0.0,0.0,0.0,0.0,0.0,0.0,0.0,0.0,0.0,0.0,0.0,0.0,0.0,0.0,0.0,0.0,0.0,0.0,0.0,0.0,0.0,0.0,0.0,0.0,0.0,0.0,0.0,0.0,0.0,0.0,-1.9719,-2.1143,-2.3645,-2.6601,-2.9238,-2.955,-3.0485,-3.1478,-3.1718,-3.2347,-3.2807,-3.2248,-3.0965,-2.9478,-2.8113,-2.6932,0.0,0.0,-2.5615,-2.6085,-2.6315,-2.5746,-2.5384,0.0,-2.5201,-2.5183,-2.6856,-2.6455,-2.6613,0.0,-2.7895,0.0,-2.9001,-2.8612,0.0,-2.89,-2.8411,-2.772,-2.6854,-2.6816,-2.7017,-2.7444,-2.6917,-2.6697,-2.6697,-2.6584,-2.5728,-2.4309,-2.3676,-2.3479,-2.3656,-2.2833,-2.3164,-2.433,-2.4217,-2.4167,-2.418,-2.4293,-2.4594,-2.4996,-2.5121,-2.397,-2.2304,-2.2003,-2.0737,-1.9238,0.0,0.0,0.0,0.0,0.0,0.0,0.0,-1.8741,-1.9684,-2.0355,-2.0826,-2.0745,-1.9891,-1.8618,-1.7433,0.0,0.0,0.0,0.0,0.0,0.0,0.0,0.0,0.0,0.0,0.0,0.0,0.0,0.0,0.0,0.0,0.0,0.0,0.0,0.0,0.0,0.0,0.0,0.0,0.0,0.0,0.0,0.0,0.0,0.0,0.0,0.0,0.0,0.0,0.0,0.0,-1.9597,-2.0335,-2.3885,-2.7787,-2.7612,0.0,0.0,-3.1786,-3.2707,-3.3575,-3.2392,-3.0635,-2.9044,-2.8484,0.0,0.0,-2.5226,-2.5615,-2.5852,-2.5411,-2.5259,-2.5266,-2.5461,0.0,-2.5035,-2.6213,-2.619,-2.6627,-2.8249,0.0,0.0,-2.9603,-2.9189,-2.8875,-2.8925,-2.8411,-2.8059,-2.7959,-2.7959,-2.7971,-2.8034,-2.7494,-2.7205,-2.7205,-2.6703,-2.5728,-2.4309,-2.4613,-2.4566,-2.4238,-2.4068,-2.4534,-2.5423,-2.4958,-2.4745,0.0,-2.5259,-2.5473,-2.5573,-2.6101,-2.5131,-2.338,-2.3335,-2.1647,-1.9277,0.0,0.0,0.0,0.0,0.0,0.0,-1.7743,-1.8404,-1.9346,-2.0732,-2.108,-2.1005,-2.0438,-1.9454,-1.8259,-1.6728,0.0,0.0,0.0,0.0,0.0,0.0,0.0,0.0,0.0,0.0,0.0,0.0,0.0,0.0,0.0,0.0,0.0,0.0,0.0,0.0,0.0,0.0,0.0,0.0,0.0,0.0,0.0,0.0,0.0,0.0,0.0,0.0,0.0,0.0,0.0,0.0,-1.8449,-2.1023,0.0,0.0,-2.8064,-3.0862,-3.1225,-3.2804,-3.408,-3.3181,-3.172,-3.0068,-2.8339,0.0,-2.6162,-2.4972,-2.5411,-2.5852,-2.5297,-2.495,-2.4867,0.0,0.0,0.0,-2.6084,-2.552,-2.5558,-2.7196,-2.7518,0.0,0.0,0.0,-2.9453,-2.9453,-2.9239,-2.9114,-2.9114,-2.8473,-2.826,-2.8586,-2.7745,-2.7281,-2.7281,-2.6741,-2.6202,-2.561,-2.5192,-2.525,-2.5598,-2.4975,-2.5014,-2.5586,-2.5372,-2.5285,0.0,-2.5511,-2.5799,-2.6138,-2.6445,-2.5276,-2.3447,-2.2925,-2.1445,-1.959,0.0,0.0,0.0,0.0,0.0,-1.7055,-1.777,-1.8176,-1.8949,-2.0468,-2.0769,-2.0743,-2.045,-1.9757,-1.8781,-1.7381,-1.7207,0.0,0.0,0.0,0.0,0.0,0.0,0.0,0.0,0.0,0.0,-1.9001,-1.945,0.0,0.0,0.0,0.0,0.0,0.0,0.0,0.0,0.0,0.0,0.0,0.0,0.0,0.0,0.0,0.0,0.0,0.0,0.0,0.0,0.0,0.0,0.0,0.0,0.0,0.0,0.0,-2.6242,-2.9247,-3.0441,-3.2269,-3.3739,-3.308,-3.1779,-3.0128,0.0,0.0,-2.6236,-2.4916,-2.5373,-2.5779,-2.5105,-2.4657,-2.4581,0.0,0.0,-2.4253,-2.6119,-2.5307,-2.5121,-2.6623,0.0,-2.7589,-2.8034,-2.9126,-2.9792,-2.9792,-2.9792,-2.9792,-2.9792,-2.9038,-2.8787,-2.9164,-2.826,-2.777,-2.777,-2.7218,-2.6866,-2.6703,-2.6037,-2.5963,-2.6465,-2.5734,-2.5583,-2.585,-2.585,-2.585,0.0,-2.585,-2.6088,-2.6452,-2.6164,-2.4992,-2.3341,-2.2362,-2.0988,-1.9619,0.0,0.0,0.0,0.0,0.0,0.0,-1.7704,-1.815,-1.8647,-1.9334,-1.977,-2.0002,-2.0002,-1.9343,-1.8773,-1.8409,-1.7423,0.0,0.0,0.0,0.0,0.0,0.0,0.0,0.0,0.0,-1.8373,-1.9675,-1.969,-1.969,-1.9711,0.0,0.0,0.0,0.0,0.0,0.0,0.0,0.0,0.0,0.0,0.0,0.0,0.0,0.0,0.0,0.0,0.0,0.0,0.0,0.0,0.0,0.0,0.0,0.0,0.0,-2.4631,-2.7889,-2.925,-3.1046,-3.2377,-3.1719,-3.0073,-2.8417,0.0,0.0,-2.5198,-2.5182,-2.5615,-2.5689,-2.4592,-2.4389,-2.4471,-2.4597,0.0,0.0,-2.6318,-2.585,-2.5717,0.0,0.0,-2.7738,-2.8069,-2.9126,-2.9792,-2.9792,-2.9792,0.0,-2.9792,-2.9779,-2.9779,-2.9779,-2.9214,-2.8913,-2.8913,-2.836,-2.7821,-2.7268,-2.7281,-2.6992,-2.6533,-2.6465,-2.6452,-2.6521,-2.6521,-2.6521,0.0,-2.6521,-2.6521,-2.6383,-2.537,-2.4409,-2.3312,-2.1953,-2.0502,-1.9228,0.0,0.0,0.0,0.0,0.0,0.0,0.0,-1.7568,-1.798,-1.8935,-1.9176,-1.9452,-1.9951,-1.935,-1.887,-1.8749,-1.7757,0.0,0.0,0.0,0.0,0.0,0.0,0.0,0.0,0.0,-1.8597,-1.9016,-1.9465,-1.969,-1.9711,-2.0261,-2.0682,0.0,0.0,0.0,0.0,0.0,0.0,0.0,0.0,0.0,0.0,0.0,0.0,0.0,0.0,0.0,0.0,0.0,0.0,0.0,0.0,0.0,0.0,0.0,0.0,0.0,-2.7171,-2.8667,-2.9789,-2.9579,-2.8368,-2.704,-2.6331,0.0,-2.4552,-2.4184,-2.4552,-2.4712,-2.3991,-2.3837,-2.4036,-2.4507,-2.4822,0.0,0.0,0.0,0.0,-2.6982,-2.7591,-2.8299,0.0,0.0,-2.9792,-2.9792,-2.9792,-2.9792,-2.9792,-2.9792,-2.9792,-2.9792,-2.9227,-2.8925,-2.8925,-2.8386,-2.8009,-2.7846,-2.7469,-2.7193,-2.7005,-2.6697,-2.6533,-2.6533,-2.6533,-2.6533,-2.6533,-2.6533,-2.6533,-2.6383,-2.537,-2.4409,-2.3279,-2.161,-2.0247,-1.918,0.0,0.0,0.0,0.0,0.0,0.0,0.0,-1.7502,-1.7739,-1.8397,-1.8488,-1.8775,-1.9495,-1.8927,-1.8589,-1.8877,-1.8037,0.0,0.0,0.0,0.0,0.0,0.0,0.0,0.0,-1.7637,-1.8328,-1.9076,-1.9226,-1.9435,-1.9711,-2.0296,-2.0715,-2.1007,-2.115,0.0,0.0,0.0,0.0,0.0,0.0,0.0,-1.9332,0.0,0.0,0.0,0.0,0.0,0.0,0.0,0.0,0.0,0.0,0.0,0.0,0.0,0.0,0.0,0.0,-2.6452,-2.753,-2.7784,-2.7021,0.0,0.0,0.0,0.0,-2.3423,-2.3865,-2.4241,-2.3724,-2.3595,-2.3819,-2.4462,-2.4971,0.0,0.0,0.0,0.0,-2.7216,0.0,0.0,0.0,-2.9666,-2.9792,-2.9792,-2.9792,-2.9792,-2.9792,-2.9792,-2.9792,-2.9792,-2.9453,-2.9252,-2.9252,-2.8913,-2.8637,-2.8411,-2.7858,-2.7482,-2.7268,-2.6716,-2.6533,-2.6533,-2.6533,-2.6533,0.0,-2.6094,-2.5955,-2.5804,-2.4409,-2.3514,-2.2731,-2.0876,-1.9948,-1.9394,0.0,0.0,0.0,0.0,0.0,0.0,0.0,-1.7811,-1.7811,-1.7811,-1.7811,-1.8065,-1.8741,-1.8217,-1.8082,-1.8758,0.0,0.0,0.0,0.0,0.0,0.0,0.0,0.0,0.0,-1.707,-1.7697,-1.9615,-1.9106,-1.9166,-1.9801,-2.0691,-2.1086,-2.1103,-2.145,-2.154,0.0,0.0,0.0,0.0,0.0,0.0,0.0,0.0,0.0,0.0,0.0,0.0,0.0,0.0,0.0,0.0,0.0,0.0,0.0,0.0,0.0,0.0,0.0,0.0,0.0,0.0,0.0,0.0,0.0,0.0,0.0,0.0,0.0,-2.4153,-2.3741,-2.367,-2.3894,-2.4537,-2.4731,0.0,0.0,-2.646,0.0,0.0,-2.7953,0.0,-2.8875,-2.9453,-2.9792,-2.9792,-2.9792,-2.9792,-2.9792,-2.9792,-2.9779,-2.9729,-2.9729,-2.9754,-2.9792,-2.9792,-2.9528,-2.8988,-2.8386,-2.7833,-2.7318,-2.6728,-2.6533,-2.6533,-2.6533,-2.6452,-2.6314,-2.537,-2.4933,-2.4707,-2.2776,-2.2027,-2.1772,-1.9989,-1.958,-1.9795,0.0,0.0,0.0,0.0,0.0,0.0,0.0,0.0,0.0,0.0,-1.7811,-1.7879,-1.8048,-1.7912,-1.7879,0.0,0.0,0.0,0.0,0.0,0.0,0.0,0.0,0.0,-1.7393,-1.7437,-1.7936,-1.8942,-1.9809,-2.0318,-2.0483,-2.1553,-2.1957,-2.1773,-2.1587,-2.1014,0.0,0.0,0.0,0.0,0.0,0.0,0.0,0.0,0.0,0.0,-1.6837,-1.6522,0.0,0.0,0.0,0.0,0.0,0.0,0.0,0.0,-1.9722,0.0,0.0,0.0,0.0,0.0,0.0,0.0,0.0,0.0,0.0,0.0,0.0,0.0,0.0,0.0,0.0,-2.527,0.0,-2.6763,-2.6416,0.0,0.0,-2.8237,-2.8528,-2.8787,-2.8913,-2.9453,-2.9792,-2.9792,-2.9792,-2.9792,-2.9792,-2.9792,-2.9591,-2.9151,-2.9139,-2.934,-2.9792,-2.9792,-2.9729,-2.9578,-2.8586,-2.8034,-2.7871,-2.6904,-2.6533,-2.6533,-2.6533,-2.6094,-2.53,-2.5087,-2.4564,-2.3745,-2.2478,-2.2027,-2.1814,-2.0317,-1.9824,-1.9795,0.0,0.0,0.0,0.0,0.0,0.0,0.0,0.0,0.0,0.0,0.0,-1.7811,-1.7811,-1.7811,0.0,0.0,0.0,0.0,0.0,0.0,0.0,0.0,0.0,-1.6776,-1.7293,-1.7257,-1.7712,-1.8702,-1.997,-2.0782,-2.1103,-2.2083,-2.2451,-2.228,-2.1577,-2.0702,0.0,0.0,0.0,0.0,-1.969,0.0,0.0,0.0,0.0,0.0,-1.6795,-1.6522,0.0,-1.6795,-1.7245,-1.7781,0.0,0.0,0.0,0.0,-1.9332,-1.9406,-1.9773,-2.0792,-2.1769,0.0,0.0,0.0,0.0,0.0,0.0,0.0,0.0,0.0,0.0,0.0,0.0,0.0,-2.613,0.0,0.0,0.0,-2.7785,-2.8273,-2.8667,-2.9038,0.0,-2.9616,-2.9792,-2.9792,-2.9792,-2.9792,-2.9792,-2.9541,-2.9252,-2.8938,-2.8687,-2.8699,-2.9013,-2.9013,-2.9013,-2.9013,-2.8147,-2.772,-2.7695,-2.6408,-2.6094,-2.6465,-2.5499,-2.5075,-2.4933,-2.4036,-2.3294,-2.2702,-2.1745,-2.1375,-2.1247,-2.0295,-2.0039,-2.0117,0.0,0.0,0.0,0.0,0.0,0.0,0.0,0.0,0.0,0.0,0.0,0.0,0.0,0.0,0.0,0.0,0.0,0.0,0.0,0.0,0.0,0.0,0.0,-1.6966,-1.7293,-1.7015,-1.7458,-1.8702,-2.0227,-2.1198,-2.1662,-2.2718,-2.2996,-2.2538,-2.1392,-2.0447,0.0,0.0,-1.969,0.0,-1.969,0.0,0.0,0.0,0.0,0.0,0.0,0.0,0.0,-1.7146,-1.7712,-1.8284,-1.8218,0.0,0.0,0.0,0.0,0.0,-1.9152,-2.0337,-2.1632,-2.1925,0.0,0.0,0.0,0.0,0.0,0.0,0.0,0.0,0.0,-2.3834,0.0,0.0,0.0,0.0,-2.6982,-2.7497,-2.7872,-2.8069,-2.8662,0.0,-2.9616,-2.9741,-2.9792,-2.9792,-2.9792,-2.9792,-2.9792,-2.9239,-2.8888,-2.88,-2.8273,-2.7946,-2.7858,-2.8021,-2.8109,-2.8097,-2.7544,-2.7281,-2.7268,-2.5825,-2.5581,-2.6164,-2.448,0.0,-2.4409,-2.2626,-2.1858,-2.1621,-2.0765,-2.041,-2.042,-2.0049,-2.0195,-2.0498,0.0,0.0,0.0,0.0,0.0,0.0,0.0,0.0,0.0,0.0,0.0,0.0,0.0,0.0,0.0,0.0,0.0,0.0,0.0,0.0,0.0,-1.8142,-1.7291,-1.6966,-1.7293,-1.7469,-1.7921,-1.8702,-2.1682,-2.2836,-2.231,-2.4486,-2.4325,-2.2149,-2.0949,-2.0124,-1.969,-1.969,-1.969,-1.969,-1.969,0.0,0.0,0.0,0.0,0.0,0.0,0.0,0.0,-1.7271,-1.7679,-1.823,-1.864,0.0,0.0,0.0,0.0,0.0,-2.0251,-2.0684,-2.0578,-1.9179,-2.0393,0.0,0.0,0.0,0.0,0.0,0.0,0.0,0.0,-2.4926,-2.5734,0.0,0.0,-2.8402,0.0,0.0,-2.8583,-2.8147,0.0,-2.9503,-2.9101,-2.9503,-2.9792,-2.9792,-2.9792,-2.9792,-2.9792,-2.9239,-2.8712,-2.8247,-2.7695,-2.718,-2.6716,-2.7645,-2.8109,-2.8097,-2.7544,-2.7281,-2.7268,-2.6564,-2.5873,-2.5229,0.0,-2.3891,-2.2446,-2.1766,-2.1028,-2.0187,-1.9693,-1.9697,-2.001,-1.9941,-2.0195,-2.0498,0.0,0.0,0.0,0.0,0.0,0.0,0.0,0.0,0.0,0.0,0.0,0.0,0.0,0.0,0.0,0.0,0.0,0.0,0.0,0.0,0.0,-1.8028,-1.7578,-1.7476,-1.779,-1.8437,-1.8927,-1.9226,-2.2384,-2.3745,-2.3391,-2.4608,-2.3869,-2.1487,-2.0923,-2.0296,-1.969,-1.969,-1.969,-1.969,0.0,0.0,0.0,0.0,0.0,0.0,0.0,0.0,0.0,0.0,-1.8565,-1.912,-1.9286,0.0,0.0,0.0,0.0,0.0,-1.9667,-1.9625,-1.9182,-1.7949,0.0,-2.1556,0.0,0.0,0.0,0.0,0.0,0.0,0.0,0.0,-2.647,-2.7551,0.0,-2.9578,-2.8847,-2.8591,-2.8499,0.0,0.0,-2.934,-2.939,-2.9641,-2.9792,-2.9792,-2.9792,-2.9792,-2.9792,-2.8963,-2.836,-2.8109,-2.7281,-2.6716,-2.6533,-2.6967,-2.7218,-2.7218,-2.6967,-2.6841,-2.6829,-2.5467,-2.4921,-2.4933,0.0,-2.2414,-2.192,-2.0961,-2.0352,-1.9893,-1.9707,-1.9746,-1.9941,-2.0176,-2.0391,-2.0498,0.0,0.0,0.0,0.0,0.0,0.0,0.0,0.0,0.0,0.0,0.0,0.0,0.0,0.0,0.0,0.0,0.0,0.0,0.0,0.0,-1.8169,-1.8414,-1.8351,-1.8302,-1.8329,-1.9084,-1.9671,-2.0131,-2.2896,-2.4309,-2.4525,-2.4116,-2.2879,-2.0991,-2.0812,-2.0311,-1.969,-1.969,-1.969,-1.969,0.0,0.0,0.0,0.0,0.0,0.0,0.0,0.0,0.0,0.0,0.0,0.0,0.0,0.0,0.0,-2.0662,-1.9628,-1.8597,-1.9128,-1.8886,-1.8322,-1.7668,0.0,-2.1606,-2.1914,0.0,0.0,0.0,0.0,0.0,0.0,-2.609,0.0,-2.7605,-2.9302,-3.0019,-2.867,-2.8499,-2.8662,-2.9076,-2.9126,-2.9302,-2.9754,-2.9792,-2.9729,-2.9603,-2.9591,-2.9528,-2.9402,-2.8461,-2.7908,-2.7908,-2.6967,-2.6533,-2.6533,-2.6533,-2.6533,-2.6533,-2.6533,-2.6383,-2.6094,-2.4552,-2.3979,-2.4019,-2.1741,-2.1019,-2.1319,-2.0083,-1.9609,-1.9609,-1.9609,-1.9736,-1.9971,-2.041,-2.0566,-2.0518,0.0,0.0,0.0,0.0,0.0,0.0,0.0,0.0,0.0,0.0,0.0,0.0,0.0,0.0,0.0,0.0,0.0,0.0,0.0,0.0,-1.9261,-2.0266,-1.9957,-1.9405,-1.8695,-1.8717,-1.9622,-2.1357,-2.3351,-2.4701,-2.5461,-2.3293,-2.1843,-2.0959,-2.0139,-1.9747,-1.969,-1.969,-1.969,-1.969,-1.969,0.0,0.0,0.0,0.0,0.0,0.0,0.0,0.0,0.0,0.0,0.0,0.0,0.0,-1.9884,0.0,-2.0157,-1.9606,-1.9809,-1.9422,-1.8837,-1.8258,-1.9561,0.0,-2.2507,-2.3685,0.0,-2.6932,0.0,0.0,0.0,-2.5918,-2.653,-2.7445,-2.8673,-2.9562,-2.9669,0.0,-2.9679,-2.9729,-2.9729,-2.9741,-2.9792,-2.9792,-2.9566,-2.9038,-2.8988,-2.8762,-2.826,-2.7657,-2.7344,-2.7344,-2.6766,-2.6533,-2.6533,-2.6533,-2.6533,-2.6533,-2.6533,-2.6025,-2.5075,-2.4933,-2.3712,-2.1627,-2.1408,-2.0677,-1.9482,-1.8906,-1.866,-1.866,-1.866,-1.9209,-1.9971,-2.041,-2.0566,-2.0634,0.0,0.0,0.0,0.0,0.0,0.0,0.0,0.0,0.0,0.0,0.0,0.0,0.0,0.0,0.0,0.0,0.0,0.0,0.0,-1.8894,-1.926,-2.0097,-1.9967,-1.9862,-1.9706,-1.9863,-2.0425,-2.1388,-2.3095,-2.4017,-2.4222,-2.331,-2.2227,-2.1007,-2.0681,-2.0208,-1.969,-1.969,-1.969,-1.969,-1.969,-1.969,0.0,0.0,0.0,0.0,0.0,0.0,0.0,0.0,-1.953,0.0,0.0,0.0,0.0,0.0,0.0,-1.9212,-1.9391,-1.9222,-1.901,-1.8821,0.0,0.0,0.0,-2.3846,-2.5647,-2.6725,-2.775,0.0,0.0,0.0,-2.7455,-2.763,-2.9016,-2.9829,-2.9341,-2.9566,-2.9792,-2.9792,-2.9792,-2.9792,-2.9792,-2.9792,-2.9704,-2.9478,-2.9139,-2.8837,-2.8637,-2.777,-2.7281,-2.7281,-2.6402,-2.5925,-2.5925,-2.5925,-2.5925,-2.5925,-2.6289,-2.6314,-2.5873,-2.4624,-2.357,-2.2641,-2.1123,-2.0347,-2.0029,-1.9326,-1.9189,-1.9434,-1.9434,-1.9795,-2.0342,-2.0508,-2.0566,-2.0566,0.0,0.0,0.0,0.0,0.0,0.0,0.0,0.0,0.0,0.0,0.0,0.0,0.0,0.0,0.0,0.0,0.0,0.0,-1.9348,-1.9621,-2.0026,-2.0619,-2.0517,-2.0526,-2.0699,-2.0775,-2.1115,-2.1726,-2.2998,-2.3527,-2.3393,-2.3005,-2.2299,-2.1278,-2.0957,-2.0488,-1.9989,-1.9779,-1.969,-1.969,-1.969,-1.969,0.0,0.0,0.0,0.0,0.0,0.0,0.0,0.0,0.0,0.0,0.0,0.0,0.0,0.0,0.0,-1.9145,-1.9058,-1.9192,-1.9305,0.0,0.0,0.0,0.0,-2.4312,-2.6416,-2.7866,-2.8726,0.0,-2.8034,0.0,0.0,0.0,-2.8768,-2.9512,-2.8975,-2.9264,-2.9453,-2.9277,-2.9264,-2.9264,-2.9264,-2.9264,-2.9189,-2.9013,-2.8637,-2.8335,-2.816,-2.7431,-2.6942,-2.6753,-2.6,-2.5523,-2.536,-2.536,-2.5435,-2.5598,-2.6,-2.614,-2.5943,-2.446,-2.3356,-2.2539,-2.0843,-2.0093,-1.9922,-1.9473,-1.9531,-1.9912,-1.9912,-2.0185,-2.0566,-2.0566,-2.0566,-2.0566,0.0,0.0,0.0,0.0,0.0,0.0,0.0,0.0,0.0,0.0,0.0,0.0,0.0,0.0,0.0,0.0,0.0,0.0,-2.0402,-2.1146,-2.1799,-2.2276,-2.1853,-2.1582,-2.1582,-2.1213,-2.1552,-2.2698,-2.3164,-2.3376,-2.3359,-2.2172,-2.1759,-2.1931,-2.0829,-2.0452,-2.0662,-1.9974,-1.969,-1.969,-1.969,-1.969,-1.969,0.0,0.0,0.0,0.0,0.0,0.0,0.0,0.0,0.0,0.0,0.0,0.0,0.0,-1.969,-1.9566,-1.9043,-1.9382,0.0,0.0,0.0,0.0,-2.3588,-2.5185,-2.7525,-3.08,0.0,-2.7974,-2.6889,-2.5653,0.0,-2.7005,-2.7733,-2.8285,-2.8837,-2.8925,-2.8712,-2.8172,-2.8109,-2.8109,-2.8109,-2.8109,-2.7871,-2.7331,-2.7281,-2.7042,-2.6571,-2.6533,-2.6189,-2.5611,-2.5586,-2.5335,-2.482,-2.4808,-2.5071,-2.5573,-2.5586,-2.5401,-2.4992,-2.4469,-2.2971,-2.0836,-2.0684,-1.9859,-1.8601,-1.9111,-1.9541,-1.9922,-1.9912,-2.0185,-2.0566,-2.0566,-2.0566,-2.0566,0.0,0.0,0.0,0.0,0.0,0.0,0.0,0.0,0.0,0.0,0.0,0.0,0.0,0.0,0.0,0.0,0.0,0.0,-2.1194,-2.1465,-2.1661,-2.179,-2.1688,-2.1582,-2.1582,-2.1811,-2.191,-2.1941,-2.2396,-2.2632,-2.2603,-2.2408,-2.1923,-2.1294,-2.1077,-2.062,-1.9974,-1.9765,-1.969,-1.969,-1.969,-1.969,-1.969,0.0,0.0,0.0,0.0,0.0,0.0,0.0,0.0,0.0,0.0,0.0,0.0,-1.969,-1.969,-1.9566,-1.9043,0.0,0.0,-1.9712,0.0,0.0,0.0,-2.5799,0.0,0.0,-2.8146,-2.6649,-2.6837,-2.6038,0.0,-2.6013,-2.6904,-2.7582,-2.7745,-2.8109,-2.8285,-2.8122,-2.8109,-2.8109,-2.8109,-2.8109,-2.8034,-2.7871,-2.7507,-2.7205,-2.7042,-2.6289,-2.5774,-2.5598,-2.487,-2.4406,-2.4243,-2.4243,-2.4318,-2.4481,-2.5234,-2.5752,-2.6013,-2.44,-2.3187,-2.2149,-2.0473,-1.9489,-1.9102,-1.9238,-1.9717,-2.0342,-2.0029,-2.0185,-2.0566,-2.0566,-2.0566,-2.0566,0.0,0.0,0.0,0.0,0.0,0.0,0.0,0.0,0.0,0.0,0.0,0.0,0.0,0.0,0.0,0.0,0.0,0.0,0.0,-2.2113,-2.2185,-2.2057,-2.1924,-2.1899,-2.1899,-2.2152,-2.2163,-2.1899,-2.2163,-2.231,-2.2299,-2.2425,-2.2244,-2.1788,-2.1626,-2.1168,-2.0468,-2.0213,-1.9929,-1.969,-1.969,-1.969,-1.969,0.0,0.0,0.0,0.0,0.0,0.0,0.0,0.0,0.0,0.0,0.0,0.0,-1.969,-1.969,-1.9639,-1.9332,0.0,0.0,-2.0147,-2.1518,-2.3082,-2.4149,0.0,0.0,0.0,0.0,-2.6446,-2.6674,-2.597,0.0,-2.6304,-2.6886,-2.7347,-2.7442,-2.7442,-2.7293,-2.6854,-2.6804,-2.6804,-2.6804,-2.6804,-2.6804,-2.6804,-2.649,-2.6302,-2.6302,-2.5661,-2.5184,-2.4971,-2.433,-2.3891,-2.3653,-2.3653,-2.3766,-2.4004,-2.4657,-2.5259,-2.5799,-2.4582,-2.3375,-2.2192,-1.9971,-1.9328,-1.9775,-1.9423,-1.9687,-2.0283,-2.0019,-2.0185,-2.0566,-2.0566,-2.0566,-2.0566,0.0,0.0,0.0,0.0,0.0,0.0,0.0,0.0,0.0,0.0,0.0,0.0,0.0,0.0,0.0,0.0,0.0,0.0,0.0,0.0,-2.3093,-2.2772,-2.249,-2.2338,-2.231,-2.231,-2.231,-2.231,-2.231,-2.231,-2.231,-2.2276,-2.2531,-2.2936,-2.2232,-2.1853,-2.1639,-2.1001,-2.0332,-1.969,-1.9747,-1.9711,-1.969,-1.969,0.0,0.0,0.0,0.0,0.0,0.0,0.0,0.0,0.0,0.0,-1.969,-1.969,-1.969,-1.969,0.0,0.0,0.0,-2.0482,-2.1703,0.0,-2.4203,-2.662,-2.8529,-2.8145,0.0,-2.6764,-2.6405,-2.5498,-2.5394,-2.721,-2.731,-2.7271,-2.7578,-2.694,-2.6059,-2.4998,-2.482,-2.482,-2.482,-2.482,-2.482,-2.482,-2.482,-2.482,-2.482,-2.477,-2.4519,-2.4017,-2.3954,-2.3665,-2.3078,-2.3078,-2.3401,-2.3916,-2.3966,-2.4243,-2.4669,-2.4641,-2.3424,-2.1186,-1.94,-1.9304,-2.0327,-1.9531,-1.9443,-1.9853,-1.9814,-2.0068,-2.0459,-2.0498,-2.0508,-2.0508,0.0,0.0,0.0,0.0,0.0,0.0,0.0,0.0,0.0,0.0,0.0,0.0,0.0,0.0,0.0,0.0,0.0,0.0,0.0,0.0,-2.3437,-2.3117,-2.2789,-2.2527,-2.231,-2.231,-2.231,-2.231,-2.231,-2.231,-2.2299,-2.2128,-2.2313,-2.272,-2.184,-2.1466,-2.1512,-2.1114,-2.045,-1.9726,-2.0019,-1.9965,-1.969,-1.969,-1.969,0.0,0.0,0.0,0.0,0.0,0.0,0.0,-1.969,-1.969,-1.969,-1.969,-1.969,0.0,0.0,-1.8803,0.0,0.0,-2.1613,-2.3619,-2.5401,-2.5765,-2.5563,-2.5052,-2.5154,-2.528,-2.5212,-2.4983,-2.5128,-2.6123,-2.6267,-2.6419,-2.7081,-2.6525,-2.5957,-2.5709,-2.5167,-2.482,-2.482,-2.482,-2.482,-2.482,-2.482,-2.482,-2.482,-2.4406,-2.4117,-2.4004,-2.3552,-2.3203,-2.3078,-2.3078,-2.3201,-2.3326,-2.3778,-2.3816,-2.3466,-2.3587,-2.2384,-2.0154,-1.9469,-1.9107,-1.9023,-1.8487,-1.873,-1.9385,-1.9043,-1.918,-1.96,-1.9932,-2.0059,-2.0098,0.0,0.0,0.0,0.0,0.0,0.0,0.0,0.0,0.0,0.0,0.0,0.0,0.0,0.0,0.0,0.0,0.0,0.0,0.0,0.0,-2.3544,-2.3212,-2.2873,-2.2634,-2.25,-2.2377,-2.231,-2.231,-2.231,-2.231,-2.2299,-2.2209,-2.2324,-2.2619,-2.2148,-2.1861,-2.1739,-2.1563,-2.1047,-2.0311,-2.033,-2.0193,-1.9965,-1.9782,-1.969,-1.969,-1.969,0.0,0.0,0.0,0.0,0.0,0.0,0.0,-1.969,-1.969,-1.969,0.0,0.0,0.0,0.0,0.0,0.0,-2.3719,-2.4668,-2.452,-2.4105,-2.3791,-2.4343,-2.4946,-2.4946,-2.5257,-2.5707,-2.6517,-2.6557,-2.6458,-2.6662,-2.6042,-2.5297,-2.4658,-2.424,-2.4017,-2.4017,-2.4017,-2.4017,-2.4017,-2.4017,-2.4017,-2.4017,-2.374,-2.359,-2.359,-2.3288,-2.3078,-2.3078,-2.3078,-2.3078,-2.3078,-2.3439,-2.3427,-2.309,-2.2754,-2.2198,-2.1327,-1.9921,-1.9368,-1.951,-1.8427,-1.8389,-1.8955,-1.873,-1.8906,-1.9316,-1.9531,-1.9609,-1.9678,0.0,0.0,0.0,0.0,0.0,0.0,0.0,0.0,0.0,0.0,0.0,0.0,0.0,0.0,0.0,0.0,0.0,0.0,0.0,0.0,0.0,-2.3282,-2.3021,-2.2822,-2.2695,-2.2473,-2.2349,-2.231,-2.231,-2.231,-2.231,-2.2209,-2.2387,-2.2731,-2.2536,-2.2313,-2.2131,-2.2085,-2.1633,-2.0959,-2.0649,-2.0467,-2.0382,-2.0035,-1.9874,-1.9803,-1.9803,-1.9747,-1.969,-1.969,0.0,0.0,0.0,0.0,-1.969,-1.969,0.0,0.0,0.0,0.0,0.0,0.0,-2.2172,0.0,-2.3409,-2.3492,-2.3523,-2.3406,-2.4144,-2.4846,-2.4964,-2.5558,-2.6314,-2.7178,-2.706,-2.6757,-2.6343,-2.5615,-2.4623,-2.3208,-2.2984,-2.2927,-2.2927,-2.2927,-2.2977,-2.3065,-2.2977,-2.2927,-2.2927,-2.284,-2.2849,-2.2849,-2.2877,-2.2949,-2.279,-2.2949,-2.2927,-2.2927,-2.2927,-2.2927,-2.2927,-2.2213,-2.2214,-2.2763,-2.0643,-2.0074,-2.0462,-1.9044,-1.8672,-1.8924,-1.8795,-1.8952,-1.9278,-1.9213,-1.918,-1.9248,0.0,0.0,0.0,0.0,0.0,0.0,0.0,0.0,0.0,0.0,0.0,0.0,0.0,0.0,0.0,0.0,0.0,0.0,0.0,0.0,0.0,-2.3671,-2.3588,-2.3282,-2.2721,-2.2643,-2.2537,-2.231,-2.231,0.0,0.0,0.0,-2.2282,-2.3253,-2.2209,-2.2075,-2.2602,-2.2345,-2.1774,-2.1023,-2.1306,-2.1213,-2.0894,-2.0829,-2.055,-2.0212,-2.0212,-2.0,-1.969,-1.969,-1.969,0.0,0.0,0.0,-1.969,-1.969,0.0,0.0,0.0,0.0,0.0,0.0,0.0,-2.2798,0.0,0.0,-2.3406,0.0,-2.3528,-2.3774,-2.4382,-2.5039,-2.5744,-2.6519,-2.659,-2.6365,-2.581,-2.5504,-2.4708,-2.288,-2.2495,-2.2422,-2.2422,-2.2422,-2.2623,-2.304,-2.2686,-2.2422,-2.2422,-2.197,-2.1707,-2.1707,-2.2171,-2.2184,-2.1707,-2.2184,-2.2422,-2.2422,-2.2422,-2.2422,-2.241,-2.1806,-2.1743,-2.2063,-2.169,-2.1175,-2.059,-2.0333,-2.0302,-2.0238,-1.9515,-1.9235,-1.9272,-1.8854,-1.8721,-1.8838,0.0,0.0,0.0,0.0,0.0,0.0,0.0,0.0,0.0,0.0,0.0,0.0,0.0,0.0,0.0,0.0,0.0,0.0,0.0,0.0,0.0,-2.4174,-2.3984,-2.3581,-2.2996,-2.2797,-2.2563,-2.231,-2.231,0.0,0.0,-2.2106,-2.2274,0.0,0.0,-2.217,-2.2484,-2.2343,-2.2077,-2.1721,-2.1628,-2.1491,-2.1275,-2.0781,-2.0483,-2.028,-2.0019,-1.9839,-1.969,-1.969,-1.969,-1.969,-1.969,0.0,0.0,0.0,0.0,0.0,0.0,0.0,0.0,0.0,0.0,-2.2131,-2.2409,0.0,-2.208,-2.2864,-2.3011,-2.3298,-2.4287,-2.5363,-2.6054,-2.6021,-2.632,-2.6054,-2.4694,-2.442,-2.381,-2.2169,-2.1919,-2.1845,-2.1845,-2.1845,-2.1945,-2.2196,-2.1995,-2.1845,-2.1845,-2.1619,-2.1493,-2.1493,-2.1732,-2.1732,-2.1493,-2.1732,-2.1845,-2.1845,-2.1845,-2.1845,-2.1845,-2.1594,-2.1749,-2.2102,-2.1308,-2.0899,-2.0788,-2.0364,-2.0344,-2.059,-2.0204,-1.9748,-1.9264,-1.9069,-1.8674,-1.8379,0.0,0.0,0.0,0.0,0.0,0.0,0.0,0.0,0.0,0.0,0.0,0.0,0.0,0.0,0.0,0.0,0.0,0.0,0.0,0.0,0.0,-2.4512,-2.4264,-2.383,-2.3212,-2.2972,-2.2652,-2.231,0.0,0.0,-2.231,-2.231,-2.231,0.0,-2.231,-2.231,0.0,0.0,0.0,-2.2106,-2.1718,-2.1521,-2.1399,-2.083,-2.0501,-2.0246,-1.9965,-1.9782,-1.969,-1.969,-1.969,-1.969,-1.969,-1.969,0.0,0.0,0.0,0.0,0.0,0.0,0.0,0.0,0.0,-2.1455,0.0,0.0,-2.1286,0.0,-2.27,-2.3036,-2.4094,-2.5416,-2.6183,-2.5689,-2.5908,-2.5482,-2.364,-2.3338,-2.2789,-2.1255,-2.1192,-2.128,-2.128,-2.128,-2.1343,-2.1481,-2.1355,-2.128,-2.128,-2.1142,-2.1054,-2.1054,-2.1204,-2.1204,-2.1054,-2.1204,-2.1204,-2.1054,-2.1204,-2.128,-2.128,-2.1129,-2.1368,-2.1813,-2.0945,-2.0827,-2.126,-2.0647,-2.0765,-2.1227,-2.1037,-2.0526,-1.9879,-1.9431,-1.8911,-1.8329,0.0,0.0,0.0,0.0,0.0,0.0,0.0,0.0,0.0,0.0,0.0,0.0,0.0,-2.3414,-2.3556,-2.4425,-2.467,-2.4842,-2.4986,-2.4998,-2.4845,-2.451,-2.4476,0.0,-2.3212,-2.3189,-2.2883,0.0,0.0,0.0,-2.231,-2.231,-2.231,-2.231,-2.231,-2.231,-2.2282,0.0,0.0,-2.1628,-2.1628,-2.1368,-2.1055,0.0,-2.1023,-2.0314,-2.028,-2.0019,-1.969,-1.969,-1.969,-1.969,-1.969,-1.969,-1.969,0.0,0.0,0.0,0.0,0.0,0.0,0.0,0.0,0.0,0.0,0.0,-2.1834,-2.2532,-2.2697,-2.2879,-2.3537,-2.4731,-2.5644,-2.5615,-2.5173,-2.431,-2.2936,-2.269,-2.1957,-2.0116,-2.0376,-2.0756,-2.0756,-2.0756,-2.0928,-2.1443,-2.1004,-2.0756,-2.0756,-2.0188,-1.9886,-1.9886,-2.0426,-2.0451,-1.9899,-2.0439,-2.0426,-1.9899,-2.0451,-2.0756,-2.0743,-2.0137,-2.0213,-2.0832,-2.1212,-2.1738,-2.2251,-2.2193,-2.2518,-2.2884,-2.2125,-2.1815,-2.1553,-1.9879,-1.9299,-1.9173,0.0,0.0,0.0,0.0,0.0,0.0,0.0,0.0,0.0,0.0,0.0,0.0,0.0,-2.3795,-2.4019,-2.4461,-2.4766,-2.5005,-2.5173,-2.5077,-2.4911,-2.47,-2.4369,-2.387,-2.3212,-2.2996,-2.2678,0.0,0.0,-2.231,-2.231,-2.231,-2.231,-2.2282,-2.2003,-2.1853,-2.1823,-2.1415,0.0,-2.1213,-2.1213,-2.1118,-2.0991,0.0,0.0,-2.0314,-2.0314,-2.0035,-1.9747,-2.0,-1.9909,-1.969,-1.969,-1.969,-1.969,-1.969,0.0,0.0,0.0,0.0,0.0,0.0,-1.9869,-2.0049,-2.0049,-2.0228,-2.0722,-2.1814,-2.2054,-2.2368,-2.3415,-2.4358,-2.4837,-2.4388,-2.4185,-2.3603,-2.2221,-2.1709,-2.1207,-2.0498,-2.0641,-2.0771,-2.0771,-2.0771,-2.0656,-2.0441,-2.0225,-2.0112,-2.0112,-1.9911,-1.9798,-1.9798,-1.9999,-2.0012,-1.9798,-2.0012,-2.0012,-1.9798,-2.0012,-2.0112,-2.0112,-1.9899,-1.9911,-2.0125,-2.0326,-2.0928,-2.1782,-2.1782,-2.2322,-2.3078,-2.2763,-2.2384,-2.1815,-2.1175,-2.059,-2.0042,0.0,0.0,0.0,0.0,0.0,0.0,0.0,0.0,0.0,0.0,0.0,0.0,0.0,0.0,-2.4172,-2.4478,-2.4766,-2.4993,-2.5126,-2.5053,-2.4911,-2.4716,-2.4369,-2.3928,-2.3392,-2.3045,-2.2789,0.0,0.0,0.0,0.0,-2.2349,-2.231,-2.2282,-2.1675,-2.146,0.0,0.0,0.0,-2.0764,-2.0764,-2.0698,-2.0532,-2.0382,-2.0227,-2.0089,-2.0089,-1.9945,-1.9747,-2.0,-1.9909,-1.969,-1.969,-1.969,-1.969,-1.969,0.0,0.0,-1.969,0.0,0.0,0.0,0.0,-1.969,-1.969,0.0,-2.0004,-2.1126,-2.1365,-2.1695,-2.2757,-2.334,-2.364,-2.361,-2.3465,-2.3077,-2.2156,-2.15,-2.1113,-2.1113,-2.1113,-2.1028,-2.0795,-2.0795,-2.0497,-1.985,-1.9798,0.0,-1.9798,-1.9798,-1.9798,-1.9798,-1.9798,-1.9798,-1.9798,-1.9798,-1.9798,-1.9798,-1.9798,-1.9798,-1.9798,-1.9798,-1.9798,-1.9798,-1.9798,-2.0338,-2.1204,-2.1204,-2.1757,-2.2598,-2.2786,-2.2491,-2.2007,-2.1942,-2.1553,-2.0846,0.0,0.0,0.0,0.0,0.0,0.0,0.0,0.0,0.0,-2.3015,0.0,0.0,0.0,0.0,0.0,-2.4442,-2.4685,-2.479,-2.4804,-2.493,-2.4845,-2.451,-2.4495,-2.4229,-2.3714,-2.3369,-2.3189,0.0,0.0,0.0,0.0,0.0,-2.231,-2.2254,-2.1385,-2.1213,-2.1521,0.0,-2.028,-2.028,-2.028,-2.007,-1.9747,-2.0124,-2.0035,-1.969,-1.9711,-1.9711,-1.969,-1.9711,-1.9726,-1.969,-1.969,-1.969,-1.969,0.0,0.0,0.0,0.0,0.0,0.0,0.0,0.0,0.0,-1.969,0.0,-1.9884,-2.0572,-2.0722,-2.0917,-2.1575,-2.1695,-2.2099,-2.334,-2.3069,-2.2665,-2.2637,-2.2086,-2.1697,-2.1716,-2.1697,-2.1472,-2.0894,-2.0795,-2.0547,-1.9901,-1.985,-1.985,-1.985,-1.985,-1.9798,-1.9798,-1.9798,-1.9798,-1.9798,-1.9798,-1.9798,-1.9798,-1.9798,-1.9798,-1.9798,-1.9798,-1.9798,-1.9798,-1.9798,-2.0125,-2.0693,-2.0706,-2.0991,-2.1543,-2.2083,-2.2284,-2.223,-2.197,-2.1916,-2.1667,0.0,0.0,0.0,0.0,0.0,0.0,0.0,0.0,-2.2502,0.0,0.0,0.0,-2.419,-2.4132,-2.4191,-2.4478,-2.4561,-2.4639,-2.479,-2.4697,-2.4588,-2.4512,-2.4136,-2.386,-2.3692,-2.3369,-2.3189,0.0,0.0,0.0,0.0,0.0,0.0,0.0,-2.1705,-2.1337,-2.1118,-2.0243,0.0,-1.9874,-1.9874,-1.9818,-1.9711,-1.9803,-1.9818,-1.9747,-2.0035,-1.9945,-1.9747,-2.0035,-1.9929,-1.969,-1.969,-1.969,0.0,0.0,0.0,0.0,-1.969,0.0,0.0,0.0,0.0,0.0,0.0,0.0,-1.9884,-2.0572,-2.0722,-2.0917,-2.1575,-2.1695,-2.1814,-2.2158,-2.2088,-2.1815,-2.1327,-2.1524,-2.1685,-2.169,-2.1681,-2.1649,-2.1472,-2.1077,-2.0696,0.0,-2.0497,-2.0733,-2.1135,-2.0782,-2.0295,-1.9811,-1.9798,-1.9798,-1.9798,-1.9798,-1.9798,-1.9798,-1.9798,-1.9798,-1.9798,-1.9798,-1.9798,-1.9798,-1.9798,-1.9899,-2.0075,-2.0542,-2.0991,-2.1506,-2.1656,-2.1719,-2.1782,-2.2089,-2.2182,-2.21,0.0,0.0,0.0,0.0,0.0,0.0,-2.1487,-2.2135,-2.2696,0.0,0.0,0.0,-2.3996,-2.4132,-2.419,-2.4155,-2.4373,-2.4512,-2.4561,-2.4528,-2.4461,-2.4375,-2.4077,-2.3917,-2.3917,-2.3566,-2.3477,0.0,0.0,0.0,0.0,0.0,0.0,0.0,0.0,0.0,0.0,0.0,0.0,0.0,-1.969,-1.969,-1.969,-1.969,-1.969,-1.9747,-2.0158,-2.0035,-1.9782,-2.0398,-2.0481,-2.0309,-2.0021,-2.005,-2.0064,0.0,0.0,0.0,0.0,0.0,0.0,0.0,0.0,0.0,-1.969,-1.969,-1.9794,-2.0198,-2.0288,-2.0408,-2.0782,-2.0857,-2.0857,-2.0857,-2.1119,-2.1243,-2.1111,-2.1686,-2.2002,-2.1754,-2.177,-2.1563,-2.1024,-2.0651,-2.0488,-2.0488,-2.0664,-2.093,-2.1293,-2.0979,-2.0497,-1.9798,-1.9798,-1.9798,-1.9798,-1.9798,-1.9798,-1.9798,-1.9798,-1.9798,-1.9798,-1.9798,-1.9798,-1.9798,-1.9798,-1.9798,-1.9823,-2.0162,-2.0489,-2.0815,-2.1054,-2.1142,-2.1204,-2.1769,-2.2121,-2.223,0.0,0.0,0.0,-2.2649,-2.2109,-2.1698,-2.2394,-2.298,-2.3289,0.0,-2.3787,-2.4094,-2.3795,-2.4016,-2.4074,-2.3795,-2.4192,-2.4393,-2.4209,-2.4357,-2.4393,-2.4209,-2.419,-2.419,-2.419,-2.3917,-2.3896,0.0,0.0,0.0,0.0,0.0,0.0,0.0,0.0,0.0,0.0,0.0,0.0,-1.9854,-1.9854,-1.9818,-1.9782,-1.9818,-1.9818,-1.9818,-2.0227,-2.0158,-1.9945,-2.0731,-2.1126,-2.114,-2.0569,-2.0533,-2.0617,-1.9963,-1.9782,0.0,0.0,0.0,0.0,0.0,-1.975,0.0,-1.9705,-1.975,-1.9779,-1.9741,-1.969,-1.969,-1.969,-1.969,-1.969,-1.969,-2.0198,-2.0812,-2.138,-2.2099,-2.2323,-2.1665,-2.1703,-2.1284,-2.0087,-1.9975,-2.002,-2.0067,-2.0663,-2.0975,-2.0881,-2.0894,-2.0547,-1.9798,-1.9798,-1.985,-1.9901,-1.985,-1.985,-1.9901,-1.985,-1.9798,-1.9798,-1.9798,-1.9798,-1.9798,-1.9798,-1.9798,-1.9798,-1.9798,-1.9798,-1.9849,-2.0376,-2.0618,-2.0693,-2.1192,-2.1707,-2.2031,0.0,0.0,0.0,-2.2972,-2.2686,-2.2795,-2.3621,-2.3575,-2.3704,-2.4366,-2.4299,-2.417,-2.4113,-2.417,-2.417,-2.4113,-2.419,-2.4247,-2.419,-2.4247,-2.4247,-2.419,-2.419,-2.419,-2.419,-2.4151,-2.4133,-2.419,0.0,0.0,0.0,0.0,0.0,0.0,0.0,0.0,0.0,0.0,0.0,-2.0731,-2.0731,-2.0532,-2.0212,-2.0599,-2.0532,-2.0261,-2.0698,-2.0797,-2.0764,-2.0926,-2.1022,-2.1037,-2.0893,-2.0892,-2.0854,-2.0326,-2.0193,0.0,0.0,0.0,0.0,-1.969,-2.0109,0.0,-1.9809,-2.0124,-2.0363,-1.9794,-1.969,-1.969,-1.969,-1.969,-1.969,-1.969,-1.9794,-1.9929,-2.0064,-2.1126,-2.165,-2.0976,-2.0907,-2.0825,-2.0556,-2.0126,-2.002,-2.0528,-2.1657,-2.2103,-2.154,-2.152,-2.0988,-1.985,-1.9798,-2.0055,-2.0597,-2.0055,-2.0055,-2.0597,-2.0055,-1.9798,-1.9798,-1.9798,-1.9798,-1.9798,-1.9798,-1.9798,-1.9798,-1.9798,-1.9798,-1.9811,-1.9924,-1.9974,-2.0037,-2.0614,-2.0891,-2.1117,0.0,0.0,0.0,-2.409,-2.3763,-2.3698,-2.4445,-2.4322,-2.4275,-2.4598,-2.4393,-2.4151,-2.3976,-2.4094,-2.4113,-2.3976,-2.4094,-2.419,-2.419,-2.419,-2.419,-2.419,-2.419,-2.419,-2.419,-2.419,-2.4113,-2.3937,0.0,0.0,0.0,0.0,0.0,0.0,0.0,0.0,0.0,0.0,-2.184,-2.1615,-2.1166,-2.0862,-2.0682,-2.0894,-2.0862,-2.0715,-2.115,-2.1446,-2.1615,-2.1385,-2.1518,-2.1746,-2.1389,-2.1231,-2.1038,-2.0475,-2.0158,-1.9965,-1.9747,-1.969,-1.969,-1.969,-1.9944,0.0,0.0,-1.9944,-2.0109,-1.975,-1.969,-1.969,-1.969,-1.969,-1.969,-1.969,-1.969,-1.969,-1.969,-2.0557,-2.0961,-2.0288,-2.0274,-2.0148,-1.9818,-1.9544,-1.964,-2.026,-2.1222,-2.1657,-2.1333,-2.1268,-2.1077,-2.0743,-2.0434,-2.0584,-2.1245,-2.0633,-2.0446,-2.0795,-2.0105,-1.9798,-1.9798,-1.9798,-1.9798,-1.9798,-1.9798,-1.9798,-1.9798,-1.9798,-1.9798,-1.9798,-1.9798,-1.9798,-1.9836,-2.0125,-2.0413,-2.0806,0.0,0.0,0.0,0.0,-2.4816,-2.4495,-2.4973,-2.4904,-2.4716,0.0,-2.4303,-2.4094,-2.3816,-2.4054,-2.4094,-2.3816,-2.4036,-2.419,-2.419,-2.419,-2.419,-2.419,-2.419,-2.417,-2.4094,-2.4094,-2.3937,-2.3588,0.0,0.0,0.0,0.0,0.0,0.0,0.0,0.0,0.0,0.0,0.0,-2.2254,0.0,-2.1197,-2.1118,-2.1229,-2.1197,-2.115,-2.1598,-2.1974,-2.2271,-2.2019,-2.22,-2.2481,-2.2065,-2.1746,-2.1374,-2.0639,-2.0285,-2.0076,-1.9792,-1.9779,-1.9854,-1.972,-1.9794,-1.9854,0.0,0.0,0.0,-1.972,0.0,0.0,0.0,0.0,0.0,-1.969,0.0,0.0,0.0,-2.0168,0.0,-1.975,-1.9818,-1.9638,-1.9101,-1.8948,-1.9128,-1.968,-2.0232,-2.0599,-2.0678,-2.0675,-2.0891,-2.1517,-2.1048,-2.1151,-2.1899,-2.1307,-2.1028,-2.1175,-2.0346,-2.0003,-2.0003,-1.985,-1.9798,-1.9798,-1.9798,-1.9798,-1.9798,-1.9798,-1.9798,-1.9798,-1.9798,-1.9798,-1.9798,-1.9798,-2.01,-2.0514,-2.5451,-2.527,0.0,0.0,-2.528,-2.5187,-2.5264,-2.4987,0.0,0.0,0.0,-2.419,-2.4151,-2.417,-2.417,-2.4151,-2.417,-2.419,-2.419,-2.419,-2.419,-2.419,-2.419,-2.4074,-2.3756,-2.3774,-2.3588,-2.3277,-2.2923,0.0,0.0,0.0,0.0,0.0,-2.2248,0.0,0.0,0.0,-2.231,0.0,-2.218,-2.1899,0.0,-2.2003,-2.1899,-2.1582,-2.2032,-2.2237,-2.2383,-2.2979,-2.2798,-2.2428,-2.3013,-2.2723,-2.2015,-2.1182,-2.1307,-2.1453,-2.0076,-2.0124,-2.0453,-1.9839,-2.0154,-2.0438,-1.9824,0.0,-2.0423,-1.9809,0.0,0.0,0.0,0.0,0.0,0.0,0.0,0.0,-1.969,-1.975,-1.9779,-1.969,-1.9713,-1.9692,-1.9617,-1.9191,-1.8967,-1.9183,-1.9266,-1.9503,-1.997,-2.0012,-2.0302,-2.0877,-2.0859,-2.1397,-2.2589,-2.1913,-2.1913,-2.2466,-2.1272,-2.0696,-2.0646,-2.0055,-1.9798,-1.9798,-1.9798,-1.9798,-1.9798,-1.9798,-1.9798,-1.9798,-1.9798,-1.9798,-1.9798,-1.9798,-1.9849,-1.9974,-2.5554,-2.5503,0.0,0.0,-2.5322,-2.5303,-2.5303,-2.5084,0.0,0.0,0.0,-2.4512,-2.4393,-2.4375,-2.4339,-2.4209,-2.419,-2.419,-2.419,-2.419,-2.419,-2.419,-2.4016,-2.3837,-2.3692,-2.3522,-2.3253,-2.2923,-2.2772,-2.2625,0.0,0.0,0.0,0.0,-2.2124,0.0,-2.1684,0.0,-2.231,0.0,0.0,-2.218,0.0,-2.2209,-2.218,-2.2032,-2.2237,-2.231,-2.2361,-2.2665,-2.2835,-2.2919,-2.2801,-2.2508,-2.2079,-2.153,-2.1183,-2.1038,-2.1095,-2.1311,-2.1397,-2.085,-2.0946,-2.092,-1.9912,-1.9914,-2.0034,-1.975,0.0,0.0,0.0,0.0,0.0,0.0,-1.969,0.0,0.0,0.0,-1.969,-1.969,0.0,0.0,-1.969,-1.9207,-1.8803,-1.8545,-1.8798,-1.9119,-1.9433,-1.967,-2.0272,-2.1281,-2.134,-2.1565,-2.2103,-2.1825,-2.1677,-2.1609,-2.0633,-2.0194,-2.0194,-1.9952,-1.9798,-1.9798,-1.9798,-1.9798,-1.9798,-1.9798,-1.9798,-1.9798,-1.9798,-1.9798,-1.9798,-1.9798,-1.9798,-1.9836,-2.5503,0.0,0.0,0.0,0.0,-2.5274,-2.5224,-2.5099,-2.4949,-2.4832,-2.4804,-2.4731,-2.4528,-2.4495,-2.4428,-2.4209,-2.419,-2.419,-2.419,-2.419,-2.419,-2.419,-2.3876,-2.3692,-2.3692,-2.3369,-2.3069,-2.2848,-2.2848,-2.2755,0.0,0.0,0.0,0.0,0.0,-2.2006,-2.1532,0.0,-2.231,-2.231,-2.231,-2.231,-2.231,-2.231,-2.231,-2.231,-2.231,-2.231,-2.2344,-2.2547,-2.2835,0.0,-2.2716,-2.2402,-2.2117,-2.1946,-2.1585,-2.1413,-2.2208,-2.2549,-2.2492,-2.169,-2.1506,-2.1193,-1.9984,-1.969,-1.969,-1.969,-1.969,0.0,0.0,0.0,0.0,0.0,0.0,-1.969,0.0,-1.969,0.0,0.0,0.0,0.0,0.0,-1.9132,-1.8688,-1.8145,-1.8458,-1.8772,-1.9011,-1.9319,-2.0084,-2.1356,-2.1454,-2.1498,-2.1715,-2.1682,-2.1558,-2.1321,-2.0497,-2.0144,-2.032,-1.994,-1.9798,-1.9798,-1.9798,-1.9798,-1.9798,-1.9798,-1.9798,-1.9798,-1.9798,-1.9798,-1.9798,-1.9798,-1.9798,-1.9798,-2.5503,-2.5453,0.0,0.0,0.0,0.0,-2.5034,-2.4991,-2.4949,-2.4832,-2.4804,-2.4731,-2.4528,-2.4495,-2.4428,-2.4209,-2.419,-2.419,-2.419,-2.419,-2.419,-2.419,-2.3876,-2.3692,-2.3692,-2.3369,-2.3189,-2.3189,-2.3189,-2.3165,0.0,0.0,0.0,0.0,-2.2426,-2.2293,-2.2276,-2.2293,-2.231,-2.231,-2.231,-2.231,-2.231,0.0,-2.231,-2.231,-2.231,0.0,0.0,-2.3122,-2.2919,0.0,0.0,0.0,0.0,0.0,-2.3095,-2.3521,0.0,0.0,-2.3706,-2.1941,-2.1506,-2.1193,-1.9984,-1.969,-1.969,-1.969,-1.969,-1.969,0.0,0.0,0.0,0.0,0.0,0.0,0.0,0.0,0.0,0.0,0.0,0.0,0.0,-1.8893,-1.8688,-1.8145,-1.8145,-1.8341,-1.8884,-1.8921,-1.9467,-2.0684,-2.0729,-2.1035,-2.17,-2.1685,-2.2001,-2.2603,-2.1369,-2.1064,-2.1602,-2.037,-1.9798,-1.9798,-1.9798,-1.9798,-1.9798,-1.9798,-1.9798,-1.9798,-1.9798,-1.9798,-1.9798,-1.9798,-1.9798,-1.9798,0.0,0.0,0.0,0.0,0.0,0.0,-2.5224,-2.5203,-2.5182,-2.5138,-2.5126,-2.5012,-2.4731,-2.47,-2.4559,-2.4228,-2.419,-2.419,-2.419,-2.419,-2.419,-2.419,-2.3876,-2.3692,-2.3692,-2.3369,-2.3189,-2.3189,-2.3189,0.0,0.0,0.0,0.0,0.0,0.0,-2.231,0.0,0.0,0.0,0.0,0.0,-2.231,-2.231,0.0,-2.231,-2.231,-2.231,-2.231,0.0,-2.2598,-2.2835,-2.2987,-2.275,-2.2996,-2.3314,-2.3187,-2.3466,-2.3984,0.0,0.0,-2.4827,-2.3586,0.0,0.0,0.0,-2.0019,-1.9782,-2.0035,-2.0089,-2.0089,-2.0089,0.0,0.0,0.0,0.0,0.0,0.0,0.0,0.0,0.0,0.0,0.0,0.0,0.0,-1.9207,-1.865,-1.8968,-1.908,-1.8893,-1.9244,-1.9634,-2.0034,-2.0483,-2.0625,-2.0422,-2.0871,-2.1005,-2.0769,-2.0333,-2.0245,-2.0421,-1.9991,-1.9798,-1.9798,-1.9798,-1.9798,-1.9798,-1.9798,-1.9798,-1.9798,-1.9798,-1.9798,-1.9798,-1.9798,-1.9798,-1.9798,-2.5605,0.0,0.0,0.0,0.0,-2.5376,-2.5313,-2.5553,-2.5649,-2.5341,-2.5572,-2.5538,-2.4929,-2.4828,-2.467,-2.4339,-2.4247,-2.419,-2.419,-2.419,-2.419,-2.419,-2.3876,-2.3774,-2.3876,-2.3544,-2.3455,-2.3566,-2.3566,-2.3566,0.0,0.0,0.0,0.0,0.0,-2.231,-2.231,-2.231,-2.231,0.0,0.0,-2.231,0.0,0.0,-2.231,-2.231,0.0,-2.231,-2.231,-2.231,-2.2632,-2.2936,-2.2462,-2.2945,-2.3744,-2.3789,-2.395,-2.4378,-2.5645,-2.5609,0.0,-2.4288,-2.3756,0.0,-2.1193,0.0,-2.0617,-2.0876,-2.0722,-2.0691,-2.1227,0.0,0.0,0.0,0.0,0.0,0.0,-1.969,0.0,0.0,0.0,0.0,0.0,-1.9854,-1.9788,-1.9419,-1.9717,-1.9737,0.0,-1.9588,-1.969,-1.969,-2.0124,-2.0079,-1.9482,-2.013,-2.0367,-2.0184,-1.9953,-2.0042,-2.0471,-1.9991,-1.9798,-1.9798,-1.9798,-1.9798,-1.9798,-1.9798,-1.9798,-1.9798,-1.9798,-1.9798,-1.9798,-1.9798,-1.9798,-1.9861,-2.5603,-2.5603,0.0,0.0,-2.5434,-2.5376,-2.5303,-2.6043,-2.6294,-2.5399,-2.6063,-2.6184,-2.5118,-2.4877,-2.4731,-2.4545,-2.4339,-2.4228,-2.4209,-2.4209,-2.4209,-2.419,-2.3896,-2.3858,-2.419,-2.3896,-2.3876,-2.419,0.0,0.0,0.0,0.0,0.0,0.0,-2.2598,0.0,-2.2338,-2.231,-2.231,-2.2338,-2.2338,-2.2338,-2.2349,-2.2338,-2.2338,-2.2349,-2.2338,-2.2321,-2.2349,-2.2338,-2.2321,-2.2338,-2.231,-2.2801,-2.3558,-2.4252,-2.4472,-2.4828,-2.6201,-2.5558,-2.4413,-2.4,-2.3885,0.0,0.0,0.0,-2.205,0.0,0.0,-2.1472,-2.2921,0.0,0.0,0.0,0.0,0.0,0.0,0.0,-1.969,0.0,0.0,0.0,-1.9726,-2.007,-2.0314,-2.0314,-2.0314,-2.028,0.0,-1.9909,-1.969,-1.969,-1.969,-1.9453,-1.8962,-1.951,-2.0127,-2.085,-2.0124,-2.0421,-2.1554,-2.037,-1.9798,-1.9798,-1.9798,-1.9798,-1.9798,-1.9798,-1.9798,-1.9798,-1.9798,-1.9798,-1.9798,-1.9798,-1.9798,-1.9949,-2.5663,-2.5634,-2.557,0.0,-2.5447,-2.5387,-2.5303,-2.6043,-2.6294,-2.5399,-2.6063,-2.6184,-2.5118,-2.4974,-2.4891,-2.4746,-2.467,-2.4575,-2.4426,-2.4409,-2.4357,-2.4209,-2.4113,-2.4113,-2.419,-2.4132,-2.4113,-2.419,-2.419,0.0,-2.419,0.0,0.0,0.0,0.0,-2.2599,-2.2573,-2.2388,-2.2426,-2.2599,-2.2599,-2.2755,-2.294,0.0,-2.2738,-2.2958,-2.2704,-2.2755,-2.2933,-2.2678,-2.2764,-2.2883,-2.2443,-2.2999,-2.3755,-2.3701,-2.4052,-2.4591,-2.498,-2.4811,-2.4365,-2.3885,-2.3374,-2.2784,0.0,0.0,0.0,0.0,0.0,0.0,0.0,0.0,0.0,0.0,0.0,0.0,0.0,0.0,-1.969,-1.969,-1.969,0.0,-2.0124,-2.0246,-2.0314,-2.0314,-2.0314,0.0,0.0,0.0,-1.969,-1.969,-1.969,-1.9671,-1.9565,-1.9729,-1.9892,-2.0077,-1.9876,-1.9991,-2.0283,-1.994,-1.9798,-1.9798,-1.9798,-1.9798,-1.9798,-1.9798,-1.9798,-1.9798,-1.9798,-1.9798,-1.9798,-1.9798,-1.9798,-1.9849,-2.5683,-2.5657,-2.5681,-2.5962,-2.5996,-2.594,-2.589,-2.6909,-2.739,-2.6544,-2.6851,-2.6781,-2.5803,-2.5275,-2.4974,-2.4891,-2.4828,-2.476,-2.4639,-2.4623,-2.4545,-2.4339,-2.4339,-2.4284,-2.419,-2.419,-2.419,-2.419,-2.419,0.0,-2.419,0.0,0.0,0.0,0.0,-2.2923,-2.2923,-2.2773,-2.2781,-2.2923,-2.2923,-2.3021,0.0,-2.2996,-2.3117,-2.3392,-2.3189,-2.3165,-2.3165,-2.2972,-2.3045,-2.3135,-2.2616,-2.3141,-2.3843,-2.351,-2.368,-2.4069,-2.4421,-2.4019,-2.3536,-2.356,-2.3295,-2.2851,-2.2258,-2.2079,-2.2221,0.0,-2.2428,-2.2345,0.0,0.0,0.0,0.0,0.0,0.0,0.0,-1.969,-1.969,-1.969,-1.969,-1.9874,-2.0246,-2.0314,-2.0382,-2.0583,-2.0416,0.0,0.0,0.0,-1.969,-1.969,-1.9974,-1.9773,-1.9058,-1.9855,-2.0143,-1.9935,-2.0163,-2.0383,-2.0607,-2.0333,-2.0105,-1.9798,-1.9798,-1.9798,-1.9786,-1.956,-1.9459,-1.9459,-1.9459,-1.9597,-1.9798,-1.9798,-1.9798,-1.9836,-2.6014,-2.5969,0.0,0.0,0.0,-2.6985,-2.6949,-2.8159,-2.8775,-2.7852,-2.7832,-2.7525,-2.6544,-2.5592,-2.5034,-2.5034,-2.493,-2.4842,-2.4828,-2.4832,-2.4727,-2.4561,-2.4545,-2.4462,-2.4247,-2.4247,-2.4228,-2.419,-2.419,0.0,0.0,0.0,0.0,0.0,0.0,0.0,0.0,-2.3253,-2.3277,-2.3277,-2.3277,-2.33,-2.3323,-2.3277,-2.3459,-2.3774,-2.3774,-2.3566,-2.3305,-2.3277,-2.3277,-2.3189,-2.2822,-2.318,-2.3688,-2.3357,-2.3257,-2.3393,-2.4036,-2.3274,-2.2462,-2.3105,-2.3257,-2.3088,-2.2462,-2.2801,-2.3274,-2.3376,-2.2818,-2.2919,-2.4949,0.0,0.0,0.0,0.0,0.0,-1.9824,-1.975,-1.969,-1.969,-1.969,0.0,-2.0246,-2.0314,-2.0483,-2.0862,-2.0516,0.0,0.0,0.0,-1.969,-1.969,-2.0273,-1.9879,-1.846,-1.9929,-2.055,-2.0323,-2.0643,-2.1064,-2.1568,-2.1028,-2.0446,-1.9798,-1.9798,-1.985,-1.9863,-1.9309,-1.9083,-1.912,-1.9008,-1.9346,-1.9798,-1.9798,-1.9798,-1.9874,-2.7759,-2.7704,0.0,0.0,0.0,-2.8692,-2.867,-2.8909,-2.8544,-2.7024,-2.7448,-2.7294,-2.5687,-2.536,-2.5253,-2.5253,-2.5233,-2.513,-2.4974,-2.4962,-2.4904,-2.476,-2.4746,-2.4654,-2.4444,-2.4444,-2.4357,-2.419,-2.419,0.0,0.0,0.0,0.0,0.0,0.0,0.0,-2.3212,-2.35,0.0,-2.361,-2.361,-2.3774,-2.3996,-2.3714,-2.3816,-2.4113,-2.4113,-2.4074,-2.3996,-2.3714,-2.361,-2.3522,-2.288,-2.2799,-2.2859,-2.2575,-2.2496,-2.253,-2.2649,-2.2513,-2.2344,-2.2462,-2.2496,-2.2462,-2.2344,-2.2412,-2.2682,-2.3274,-2.2818,-2.2615,-2.3596,0.0,0.0,0.0,0.0,-2.0528,-2.0528,-2.0049,-1.969,-1.969,-1.969,-1.9874,-2.0246,0.0,0.0,0.0,-2.0348,-2.0158,0.0,0.0,-1.969,0.0,-1.9794,-2.0003,0.0,0.0,-2.0447,-2.1393,-2.1019,-2.0845,-2.093,-2.0845,-2.0446,-1.9798,-1.9798,-2.0105,-2.0597,-1.9953,-1.966,-1.9623,-1.9196,-1.9346,-1.9798,-1.9798,-1.9798,-1.9862,-2.8157,0.0,0.0,0.0,0.0,0.0,0.0,-2.9834,-2.9361,-2.8074,-2.7547,-2.694,-2.6063,-2.5572,-2.5303,-2.5303,-2.5303,-2.5264,-2.5163,-2.5152,-2.5077,-2.4917,-2.4904,-2.4842,-2.4654,-2.4654,-2.4561,-2.4357,-2.4357,0.0,0.0,0.0,0.0,0.0,0.0,-2.3876,0.0,0.0,0.0,-2.3976,-2.3976,-2.4054,-2.417,-2.4016,-2.4074,-2.419,-2.419,-2.419,-2.417,-2.4016,-2.3976,-2.3876,-2.3369,-2.3093,-2.2898,-2.259,-2.2398,-2.231,-2.231,-2.231,-2.231,-2.231,-2.231,-2.231,-2.231,-2.231,-2.2412,-2.2767,-2.2547,-2.2338,-2.2454,-2.2246,0.0,0.0,0.0,-2.0183,-2.0183,-1.9884,-1.969,-1.969,-1.9874,-2.0,-2.0,-2.0193,0.0,0.0,0.0,-1.9894,-1.9711,0.0,-1.969,0.0,0.0,0.0,-1.9746,0.0,-2.095,-2.1292,-2.1634,-2.1595,-2.1245,-2.1245,-2.072,-1.9798,-1.9798,-2.0207,-2.0756,-1.9798,-1.9226,-1.8945,-1.8694,-1.928,-2.0295,-2.0295,-2.0534,-2.0756,-2.872,-2.8671,0.0,0.0,-2.9429,-2.968,-3.0408,-3.0219,-2.9741,-2.8965,-2.7767,-2.6809,-2.6361,-2.5707,-2.5303,-2.5303,-2.5303,-2.5303,-2.5303,-2.5303,-2.5224,-2.5077,-2.5057,-2.5005,-2.4842,-2.4842,-2.4741,-2.4559,-2.4528,0.0,0.0,0.0,0.0,0.0,0.0,0.0,0.0,0.0,-2.419,-2.419,-2.419,-2.419,-2.419,-2.419,-2.419,-2.419,-2.419,-2.419,-2.419,-2.419,-2.4151,-2.4054,-2.3795,-2.3459,-2.3141,-2.2797,-2.2563,-2.236,-2.231,-2.231,-2.231,-2.231,-2.231,-2.231,-2.231,-2.231,-2.231,-2.231,-2.231,-2.2163,-2.1688,-2.1938,0.0,0.0,0.0,0.0,-1.9936,-1.9779,-1.9711,-1.9818,-2.0089,-2.0227,-2.0015,0.0,0.0,0.0,-1.9945,-1.969,-1.969,-1.969,-1.969,0.0,0.0,-2.0101,-1.9299,0.0,-2.1282,-2.1289,-2.212,-2.2278,-2.1899,-2.1899,-2.128,-2.0181,-2.0181,-2.0369,-2.058,-1.9785,-1.9133,-1.8579,-1.8546,-1.946,-2.0795,-2.0795,-2.1113,-2.139,0.0,0.0,0.0,0.0,0.0,-3.049,-3.0574,-2.9357,-2.834,-2.8133,-2.7962,-2.7252,-2.5592,-2.5341,-2.5303,-2.5303,-2.5303,-2.5303,-2.5303,-2.5303,-2.5284,-2.5274,-2.5274,-2.5173,-2.4986,-2.4986,-2.4898,-2.4775,-2.4575,-2.4495,0.0,0.0,0.0,0.0,0.0,0.0,0.0,-2.419,-2.419,-2.419,-2.419,-2.419,-2.419,-2.419,-2.419,-2.419,-2.419,-2.419,-2.419,-2.419,-2.3996,-2.3735,-2.3714,-2.3459,-2.3141,-2.2797,-2.2669,-2.2625,-2.2377,-2.231,-2.231,-2.231,-2.231,-2.231,-2.231,-2.231,-2.231,-2.231,-2.231,-2.2163,-2.1688,-2.2112,-2.2264,0.0,0.0,0.0,0.0,-2.0079,-1.9854,-2.0177,-2.028,-2.0449,-2.0829,-2.0516,0.0,0.0,-1.9945,-1.969,-1.969,-1.969,-1.969,-1.969,-1.975,-2.0049,-2.0542,-2.0103,-2.0782,-2.2536,-2.2018,-2.2103,-2.2603,-2.2603,-2.2207,-2.1506,-2.1506,-2.0996,-2.0106,-2.0525,-2.0362,-1.9853,-1.9781,-2.0159,-2.0795,-2.0795,-2.0845,-2.0894,0.0,0.0,0.0,0.0,0.0,0.0,0.0,-2.9705,-2.8762,-2.8137,-2.7148,-2.619,-2.539,-2.5303,-2.5303,-2.5303,-2.5303,-2.5303,-2.5303,-2.5303,-2.5303,-2.5303,-2.5303,-2.5264,-2.5173,-2.5173,-2.5088,0.0,0.0,0.0,0.0,0.0,0.0,0.0,0.0,-2.419,-2.419,-2.419,-2.419,-2.419,-2.419,-2.419,-2.419,-2.419,-2.419,-2.419,-2.419,-2.419,-2.419,-2.419,-2.4113,-2.3996,-2.3996,-2.3774,-2.3437,-2.3093,-2.2873,-2.2634,-2.236,-2.231,-2.231,-2.231,-2.2426,-2.25,-2.2349,-2.2426,-2.25,-2.2321,-2.231,-2.2237,-2.2032,-2.1996,-2.1886,-2.1553,0.0,0.0,0.0,-2.002,-1.9839,-2.0246,-2.055,-2.0797,-2.0991,-2.1039,0.0,0.0,0.0,-1.969,-1.969,-1.969,-1.9869,-2.0288,0.0,-2.0019,-2.0707,-2.0448,-2.07,-2.1515,-2.2031,-2.2206,-2.2103,-2.2521,-2.2346,-2.1697,-2.2146,-2.1625,-2.0598,-2.1211,-2.1122,-2.0552,-2.0519,-2.1084,-2.1941,-2.1941,-2.2161,-2.2426,-3.0771,0.0,-3.074,0.0,-3.0685,-3.0618,-3.0413,-2.9674,-2.8801,-2.7833,-2.6413,-2.5453,-2.5313,-2.5303,-2.5303,-2.5303,-2.5303,-2.5303,-2.5303,-2.5303,-2.5303,-2.5303,-2.5303,0.0,-2.5303,-2.5303,-2.5224,-2.5088,-2.5652,0.0,0.0,0.0,0.0,0.0,-2.4321,-2.4284,-2.4284,-2.4228,-2.419,-2.419,-2.419,-2.419,-2.419,-2.419,-2.419,-2.419,-2.419,-2.419,-2.419,-2.419,-2.419,-2.419,-2.419,-2.4054,-2.3774,-2.3323,-2.3021,-2.2764,-2.2388,-2.231,-2.2338,-2.2415,-2.2563,-2.266,-2.2463,-2.2546,-2.2608,-2.2349,-2.231,-2.231,-2.231,-2.2032,-2.1764,-2.1612,0.0,0.0,0.0,-2.0158,-2.0174,-2.0483,-2.091,-2.1229,-2.1354,-2.1507,0.0,0.0,0.0,-1.9803,-1.9726,-1.969,-1.9914,0.0,0.0,0.0,-2.0408,-2.0423,-2.0602,-2.1021,-2.1934,-2.2354,-2.2265,-2.2761,-2.2725,-2.2271,-2.277,-2.229,-2.126,-2.1903,-2.1758,-2.1187,-2.1151,-2.1798,-2.2651,-2.2277,-2.2513,-2.2978,-3.0898,-3.0898,-3.0898,-3.0898,-3.0898,-3.0605,-2.9746,-2.8867,-2.7944,-2.6957,-2.6058,-2.5453,-2.5313,-2.5303,-2.5303,-2.5303,-2.5303,-2.5303,-2.5303,-2.5303,-2.5303,0.0,0.0,-2.5303,-2.5303,-2.5303,-2.5303,-2.5303,0.0,0.0,-2.5018,0.0,-2.479,-2.479,-2.4594,-2.4495,-2.4478,-2.4284,-2.419,-2.419,-2.419,-2.419,-2.419,-2.419,-2.419,-2.419,-2.419,-2.419,-2.419,-2.419,-2.419,-2.419,-2.419,-2.4208,-2.4074,-2.3392,-2.3189,-2.3063,-2.247,-2.231,-2.236,-2.2634,-2.2695,-2.2695,-2.2695,-2.2695,-2.2608,-2.2349,-2.231,-2.231,-2.231,-2.2282,-2.2135,-2.1688,0.0,0.0,0.0,-2.0682,-2.1007,-2.0991,-2.1337,-2.1764,-2.2237,-2.1869,0.0,0.0,0.0,0.0,0.0,0.0,0.0,-1.969,-1.969,0.0,-1.969,-1.969,-2.0363,-2.168,-2.1695,-2.2368,-2.358,-2.3595,-2.3595,-2.3595,-2.361,-2.2964,-2.1946,-2.2485,-2.2359,-2.1873,-2.1747,-2.2098,-2.2536,-2.1226,-2.1169,-2.1729,-3.0898,-3.0898,-3.0898,-3.0898,-3.041,-2.9922,-2.9648,-2.8359,-2.7283,-2.6919,-2.6113,-2.552,-2.5447,-2.5354,-2.5322,0.0,-2.534,-2.5303,0.0,-2.5348,-2.5371,-2.5371,-2.5379,-2.5379,-2.5371,-2.5312,-2.5303,-2.5303,0.0,0.0,0.0,-2.5707,-2.5322,-2.4804,-2.4731,-2.47,-2.4685,-2.4495,-2.441,-2.4393,-2.4266,-2.4284,-2.441,-2.441,-2.4495,-2.4591,-2.4444,-2.441,-2.4393,-2.4247,-2.419,-2.419,-2.419,-2.419,-2.4113,-2.3671,-2.3544,-2.3455,-2.3032,-2.2908,-2.2915,-2.3021,-2.3212,-2.3323,-2.3093,-2.2873,-2.2608,-2.2349,-2.231,-2.231,-2.231,-2.231,-2.2237,-2.2106,-2.1794,0.0,-2.1228,0.0,-2.1086,-2.1368,-2.1521,-2.1794,-2.2237,-2.2163,0.0,0.0,0.0,0.0,0.0,0.0,0.0,0.0,-2.0378,0.0,-2.0378,-2.0378,-2.0602,-2.1036,-2.1485,-2.2368,-2.3595,-2.3595,-2.3595,-2.3595,-2.3595,-2.315,-2.2443,-2.2626,-2.233,-2.1762,-2.1729,-2.1813,-2.2005,-2.2061,-2.2209,-2.2243,-3.0898,-3.0644,-3.041,-3.041,-2.9687,-2.9004,-2.8672,-2.7695,-2.6854,-2.6466,-2.5935,-2.5573,-2.5547,-2.5441,0.0,-2.5398,-2.5363,-2.5321,-2.5313,-2.5363,-2.5406,-2.5406,-2.5421,-2.5428,-2.5406,-2.5363,0.0,-2.5303,-2.5851,-2.6049,-2.5922,-2.5799,-2.5475,-2.4975,-2.491,-2.4883,-2.485,-2.47,-2.4607,-2.4591,-2.4478,-2.4495,-2.4607,-2.4607,-2.4685,-2.479,-2.4654,-2.4559,-2.4478,-2.4375,-2.4247,-2.419,-2.419,-2.419,-2.4113,-2.3795,-2.3692,-2.3628,-2.33,-2.3189,-2.3212,-2.3369,-2.3544,-2.3649,-2.3455,-2.3021,-2.266,-2.2473,-2.236,-2.231,-2.231,-2.231,-2.231,-2.231,-2.2032,-2.1794,-2.1612,-2.1538,-2.1524,-2.1582,-2.1764,-2.1974,0.0,-2.231,-2.202,0.0,0.0,0.0,0.0,0.0,-2.0154,-2.0318,-2.0318,-2.0318,-2.0318,-2.0318,-2.0587,-2.1096,-2.1979,-2.2832,-2.3595,-2.3595,-2.3595,-2.3595,-2.3595,-2.3251,-2.2724,-2.2724,-2.2278,-2.1665,-2.1425,-2.1635,-2.2054,-2.1964,-2.2248,-2.2536,-3.0858,-3.0195,-2.959,-2.9609,-2.8828,-2.7949,-2.7129,-2.6953,-2.66,-2.5724,-2.5605,-2.5605,-2.5605,-2.5554,-2.5498,-2.5421,0.0,0.0,-2.5293,-2.5379,-2.5401,-2.5401,-2.5463,-2.5488,-2.5415,-2.5401,-2.5379,-2.5303,-2.5303,-2.5303,-2.5303,-2.5303,-2.5303,-2.5284,-2.5099,-2.5022,-2.501,-2.4864,-2.4799,-2.4818,-2.4804,-2.4804,-2.4799,-2.4799,-2.4832,-2.4832,-2.4818,-2.4682,-2.4526,-2.451,-2.4393,-2.4228,-2.4228,-2.4209,-2.4151,-2.3816,-2.3735,-2.3671,-2.3346,-2.3259,-2.3346,-2.3671,-2.3735,-2.3714,-2.3714,-2.323,-2.2772,-2.2721,-2.25,-2.2321,-2.231,-2.231,-2.231,-2.231,-2.231,-2.2152,-2.1718,-2.2032,-2.2135,-2.1688,0.0,0.0,-2.2237,-2.2237,-2.2049,0.0,0.0,0.0,0.0,0.0,-2.0393,-1.9705,-1.9735,-1.9735,-1.969,-1.9779,-2.0483,-2.1784,-2.3011,-2.3595,-2.3595,-2.3595,-2.3595,-2.3595,-2.3595,-2.3221,-2.2649,-2.2649,-2.2188,-2.15,-2.0872,-2.1395,-2.2338,-2.1201,-2.156,-2.2476,0.0,0.0,-2.9541,-2.9589,-2.832,-2.7246,-2.7031,-2.6445,-2.5937,-2.5702,-2.5682,-2.5682,-2.5682,-2.5661,-2.5631,-2.5558,-2.5465,-2.5379,-2.5293,-2.5401,-2.5488,-2.5488,-2.5547,-2.5564,-2.5554,-2.544,-2.5379,-2.5303,-2.5303,-2.5303,-2.5303,-2.5303,-2.5303,-2.5303,-2.5253,-2.5224,-2.5214,-2.503,-2.4949,-2.4937,-2.4842,-2.4869,-2.4949,-2.4949,-2.5041,-2.516,-2.5005,-2.4924,-2.4872,-2.4756,-2.461,-2.4445,-2.4445,-2.4303,-2.417,-2.4094,-2.4074,-2.4074,-2.3996,-2.3958,-2.3996,-2.4074,-2.4074,-2.4016,-2.3774,-2.3566,-2.3323,-2.2822,-2.266,-2.2537,-2.2349,-2.231,-2.231,-2.231,-2.231,-2.2254,-2.2135,-2.2237,-2.2254,0.0,-2.2237,-2.2163,-2.1794,-2.1764,-2.143,0.0,0.0,-2.0837,-1.9904,-2.0407,-2.0393,-1.9705,-2.0198,-2.0228,-1.969,-2.0707,-2.1635,-2.2458,-2.3236,-2.3595,-2.3595,-2.3595,-2.3595,-2.3595,-2.3595,-2.2966,-2.1934,-2.1934,-2.1231,-2.0154,-1.9989,-2.0124,-2.0483,-2.1201,-2.1665,-2.1824,-3.0648,-2.9687,-2.8883,-2.8955,-2.7514,-2.6501,-2.6933,-2.6602,-2.6445,-2.6836,-2.6543,-2.6289,-2.6289,-2.5937,-2.5662,-2.5603,-2.5539,-2.5465,-2.5398,-2.5498,-2.5551,-2.5551,-2.5605,-2.5634,-2.5601,-2.5535,-2.5447,-2.5357,-2.5357,-2.5321,-2.5303,-2.5303,-2.5303,-2.5303,-2.5303,-2.5303,-2.5284,-2.5173,-2.5141,-2.5141,-2.5049,-2.5072,-2.5141,-2.5141,-2.5203,-2.5293,-2.5192,-2.5088,-2.4998,-2.4917,-2.4785,-2.4623,-2.4528,-2.4428,-2.4321,-2.4228,-2.419,-2.419,-2.419,-2.419,-2.419,-2.419,-2.419,-2.4151,-2.3976,-2.3816,-2.3606,-2.3212,-2.2923,-2.266,-2.25,-2.2388,-2.231,-2.231,-2.231,-2.231,-2.231,-2.231,-2.231,-2.231,-2.231,-2.2209,-2.1928,-2.1928,-2.1568,-2.0682,-2.1129,0.0,-2.0574,-2.1039,-2.086,-1.9741,-2.0363,-2.0543,-2.0154,-2.1485,-2.2323,-2.2724,-2.3295,-2.3595,-2.3595,-2.3595,-2.3595,-2.3595,-2.3595,-2.2877,-2.1695,-2.1695,-2.0902,-1.969,-1.969,-1.9884,-2.0243,-2.0976,-2.162,-2.2058,-3.0568,-2.9337,-2.829,-2.8349,-2.7033,-2.6247,-2.7069,-2.7187,-2.7441,-2.8203,-2.7539,-2.6992,-2.6992,-2.6211,-2.5683,-2.5629,-2.5627,-2.5573,-2.5517,-2.5561,-2.5601,-2.5601,-2.5661,-2.5662,-2.5629,-2.5603,-2.5543,-2.5415,-2.5394,-2.5371,-2.5313,-2.5293,-2.5303,-2.5303,-2.5303,-2.5303,-2.5303,-2.5303,-2.5303,-2.5303,-2.5303,-2.5303,-2.5303,-2.5303,-2.5303,-2.5303,-2.5303,-2.5203,-2.5046,-2.5046,-2.4956,-2.4799,-2.462,-2.4543,-2.4461,-2.4303,-2.4228,-2.419,-2.419,-2.419,-2.419,-2.419,-2.419,-2.419,-2.419,-2.3976,-2.3774,-2.3714,-2.3253,-2.2848,-2.2797,-2.2607,-2.2466,-2.253,-2.2445,-2.2383,-2.2462,0.0,-2.231,-2.231,-2.231,-2.2282,-2.2209,-2.218,-2.1919,-2.1215,-2.1469,-2.1682,-2.1757,-2.2088,-2.1632,-2.0263,-2.0788,-2.1077,-2.1106,-2.2219,-2.2877,-2.2983,-2.3468,-2.3752,-2.3837,-2.3752,-2.3709,-2.3724,-2.3638,-2.2936,-2.1844,-2.1844,-2.1051,-1.9839,-1.9839,-2.0139,-2.0572,-2.0677,-2.1485,-2.2402,-3.0507,-2.9702,-2.9047,-2.9121,-2.8329,-2.779,-2.7981,-2.8006,-2.8073,-2.8261,-2.7539,-2.6992,-2.6992,-2.6211,-2.5703,-2.5683,-2.5683,-2.5634,-2.5517,-2.5561,-2.5601,-2.5601,-2.5661,-2.5703,-2.5683,-2.5633,-2.5561,-2.5473,-2.5421,-2.5391,-2.5376,-2.534,-2.5303,-2.5303,-2.5303,-2.5303,-2.5303,-2.5303,-2.5303,-2.5303,-2.5303,-2.5303,-2.5303,-2.5303,-2.5303,-2.5303,-2.5303,-2.5274,-2.5253,-2.5253,-2.513,-2.4962,-2.4937,-2.4737,-2.4495,-2.4461,-2.4321,-2.419,-2.419,-2.419,-2.419,-2.419,-2.419,-2.419,-2.419,-2.417,-2.4036,-2.3774,-2.3628,-2.3459,-2.3165,-2.3087,-2.3193,-2.3594,-2.3083,-2.2787,-2.318,0.0,-2.231,-2.231,-2.231,-2.2135,-2.1764,-2.1718,-2.1784,-2.1922,-2.1987,-2.2309,-2.2895,-2.2996,-2.2897,-2.2646,-2.2757,-2.2891,-2.2995,-2.3211,-2.3557,-2.4128,-2.422,-2.4496,-2.495,-2.4471,-2.4266,-2.4225,-2.3794,-2.3191,-2.2517,-2.2517,-2.1739,-2.0557,-2.0557,-2.0258,-1.9914,-2.0498,-2.1201,-2.1829,-3.0441,-2.9737,-2.9168,-2.9241,-2.8577,-2.8217,-2.8725,-2.8792,-2.8961,-2.9475,-2.8405,-2.7789,-2.8291,-2.6731,-2.5855,-2.6367,-2.5977,-2.5662,-2.5607,-2.5636,-2.5659,-2.5659,-2.5683,-2.5703,-2.5703,-2.5662,-2.5609,-2.5554,-2.5531,-2.5477,-2.5406,-2.5379,-2.5354,-2.5354,-2.5354,-2.5368,-2.5413,-2.5379,-2.5354,-2.5346,-2.5313,-2.5303,-2.5303,-2.5303,-2.5303,-2.5303,-2.5303,-2.5303,-2.5303,-2.5303,-2.5253,-2.5152,-2.5034,-2.4879,-2.4766,-2.4666,-2.4444,-2.419,-2.419,-2.419,-2.419,-2.419,-2.419,-2.419,-2.419,-2.419,-2.4151,-2.3996,-2.3816,-2.3649,-2.35,-2.3323,-2.3217,-2.325,-2.2937,-2.272,-2.2807,-2.2513,-2.231,-2.231,-2.231,-2.2209,-2.2003,-2.2354,-2.2538,-2.2427,-2.3013,-2.3638,-2.4125,-2.4379,-2.4679,-2.5077,-2.4213,-2.3946,-2.4381,-2.4381,-2.45,-2.4831,-2.4831,-2.495,-2.5182,-2.4617,-2.4389,-2.4389,-2.3837,-2.3251,-2.2724,-2.2724,-2.2113,-2.1201,-2.0857,-2.0737,-2.0767,-2.0722,-2.1126,-2.1695,-3.0398,-2.9871,-2.9424,-2.9477,-2.8965,-2.8797,-2.9467,-2.9577,-2.9817,-3.0502,-2.9296,-2.8656,-2.9367,-2.7495,-2.6473,-2.7199,-2.6657,-2.6209,-2.5994,-2.5996,-2.5918,-2.5703,-2.5703,-2.5703,-2.5703,-2.5703,-2.5662,-2.5611,-2.5605,-2.5551,-2.5453,-2.5434,-2.5421,-2.5421,-2.5421,-2.5459,-2.5508,-2.5453,-2.5408,-2.5398,-2.5329,-2.5313,-2.5303,-2.5303,-2.5303,-2.5303,-2.5303,-2.5303,-2.5303,-2.5303,-2.5303,-2.5274,-2.5111,-2.5034,-2.4986,-2.4883,-2.4607,-2.4339,-2.4284,-2.4247,-2.419,-2.419,-2.419,-2.419,-2.419,-2.419,-2.419,-2.419,-2.3996,-2.3816,-2.3816,-2.3628,-2.3376,-2.32,0.0,-2.3093,-2.2726,-2.2726,-2.2726,-2.2564,-2.2604,-2.27,-2.2801,-2.3325,-2.3577,-2.3385,-2.4236,-2.4923,-2.5379,-2.5681,-2.6116,-2.6674,-2.5436,-2.4972,-2.5373,-2.5373,-2.5373,-2.5373,-2.5373,-2.5373,-2.5373,-2.4831,-2.4511,-2.4389,-2.3948,-2.3453,-2.2933,-2.3043,-2.2626,-2.1874,-2.1506,-2.1545,-2.1801,-2.1288,-2.1529,-2.2088,-3.0398,-3.034,-3.0314,-3.0306,-3.0267,-3.0274,-3.0393,-3.041,-3.0451,-3.0574,-2.9783,-2.9232,-2.9316,-2.8474,-2.7949,-2.8012,-2.8014,-2.7669,-2.6866,-2.6871,-2.6543,-2.5742,-2.5703,-2.5703,-2.5703,-2.5703,-2.5703,-2.5683,-2.5633,-2.5598,-2.5573,-2.5511,-2.5484,-2.5484,-2.5484,-2.5508,-2.5489,-2.5489,-2.5459,-2.5398,-2.5391,-2.5365,-2.5303,-2.5303,-2.5303,-2.5303,-2.5303,-2.5303,-2.5303,-2.5303,-2.5303,-2.5303,-2.5274,-2.5152,-2.501,-2.4998,-2.4877,-2.4716,-2.4528,-2.4339,-2.419,-2.419,-2.419,-2.419,-2.419,-2.419,-2.419,-2.419,-2.417,-2.417,-2.417,-2.4151,-2.4233,-2.4577,0.0,0.0,-2.3865,-2.4068,-2.4007,-2.3379,-2.3579,-2.3921,-2.4316,-2.4404,-2.4695,-2.5357,-2.5458,-2.5845,-2.6539,-2.6607,-2.664,-2.6691,-2.6573,-2.6351,-2.5924,-2.5924,-2.5924,-2.5924,-2.5924,-2.5924,-2.5924,-2.5373,-2.4855,-2.4389,-2.4348,-2.4044,-2.3563,-2.4081,-2.3631,-2.2675,-2.3038,-2.2832,-2.2359,-2.2313,-2.2678,-2.3187,-3.0398,-2.9967,-2.9583,-2.9583,-2.9583,-2.9605,-2.962,-3.0094,-3.0451,-3.0463,-2.9718,-2.9397,-2.9986,-2.8357,-2.7466,-2.804,-2.7123,-2.64,-2.6046,-2.6088,-2.5992,-2.5703,-2.5703,-2.5703,-2.5703,-2.5703,-2.5703,-2.5703,-2.5662,-2.5636,-2.5601,-2.5567,-2.5561,-2.5561,-2.5561,-2.5593,-2.5611,-2.557,-2.5551,-2.5526,-2.5488,-2.5415,-2.5379,-2.542,-2.536,-2.5313,-2.5337,-2.5339,-2.5303,-2.5303,-2.5303,-2.5303,-2.5303,-2.5253,-2.5192,-2.5192,-2.5053,-2.4917,-2.4831,-2.4586,-2.4393,-2.4393,-2.4284,-2.419,-2.419,-2.419,-2.419,-2.419,-2.419,-2.4355,-2.4832,-2.4924,-2.51,-2.5525,0.0,-2.5488,-2.5023,-2.5057,-2.5057,-2.4795,-2.4892,-2.5024,-2.517,-2.5421,-2.5674,-2.5966,-2.6177,-2.6404,-2.6674,-2.6691,-2.6691,-2.6691,-2.6691,-2.6607,-2.6453,-2.6436,-2.6436,-2.6436,-2.6436,-2.6297,-2.5977,-2.5449,-2.491,-2.4389,-2.4389,-2.4266,-2.4116,-2.4307,-2.4331,-2.417,-2.3616,-2.3693,-2.4109,-2.3666,-2.3456,-2.3367,-3.0398,-2.9929,-2.9506,-2.9506,-2.9506,-2.9506,-2.9506,-3.0025,-3.0398,-3.0398,-2.989,-2.9762,-3.0395,-2.8907,-2.8006,-2.8376,-2.7343,-2.6448,-2.5898,-2.5707,-2.5633,-2.5703,-2.5703,-2.5703,-2.5703,-2.5703,-2.5703,-2.5703,-2.5703,-2.5682,-2.5634,-2.5634,-2.5634,-2.5634,-2.5634,-2.566,-2.5703,-2.5658,-2.5629,-2.5601,-2.5551,-2.5484,-2.5441,-2.5473,-2.5447,-2.5371,-2.5398,-2.536,-2.5321,-2.5303,-2.5303,-2.5303,-2.5303,-2.5303,-2.5303,-2.5303,-2.5203,-2.5099,-2.5099,-2.4872,-2.4636,-2.4545,-2.4393,-2.4266,-2.4209,-2.4392,-2.4575,-2.4575,-2.4777,-2.5126,-2.5676,-2.5768,-2.5871,-2.6209,-2.6477,-2.6416,-2.5839,-2.6068,-2.6204,-2.6001,-2.6053,-2.615,-2.6313,-2.6571,-2.6673,-2.6554,-2.6776,-2.6841,-2.6691,-2.6691,-2.6691,-2.6691,-2.6691,-2.6691,-2.6691,-2.6691,-2.6691,-2.6691,-2.6691,-2.6436,-2.5977,-2.5615,-2.5144,-2.4657,-2.4831,-2.4831,-2.4657,-2.4816,-2.5028,-2.5134,-2.4449,-2.4713,-2.54,-2.4751,-2.4274,-2.3928,-3.0398,-3.0379,-3.0379,-3.0379,-3.0379,-3.0379,-3.0379,-3.0398,-3.0398,-3.0398,-3.0398,-3.0398,-3.0398,-3.0379,-3.0044,-2.9179,-2.9158,-2.8465,-2.6812,-2.5994,-2.5633,-2.5703,-2.5703,-2.5703,-2.5703,-2.5703,-2.5703,-2.5703,-2.5703,-2.5703,-2.5703,-2.5703,-2.5703,-2.5703,-2.5703,-2.5703,-2.5703,-2.5703,-2.566,-2.5601,-2.5601,-2.5561,-2.5493,-2.5493,-2.5493,-2.5484,-2.5428,-2.5394,-2.5398,-2.5312,-2.5303,-2.5303,-2.5303,-2.5303,-2.5303,-2.5303,-2.5303,-2.5303,-2.5303,-2.5152,-2.4924,-2.4591,-2.4512,-2.4462,-2.4266,-2.4852,-2.5403,-2.5421,-2.6043,-2.6612,-2.6612,-2.6612,-2.6612,-2.6631,-2.7291,-2.7405,-2.6294,-2.71,-2.7565,-2.6899,-2.7046,-2.7384,-2.7865,-2.7897,-2.7754,-2.7317,-2.7286,-2.7115,-2.6725,-2.6691,-2.6691,-2.6691,-2.6691,-2.6691,-2.6691,-2.6691,-2.6691,-2.6691,-2.6691,-2.6436,-2.6013,-2.6013,-2.5689,-2.5221,-2.5779,-2.5689,-2.5259,-2.5762,-2.5689,-2.5259,-2.5799,-2.6013,-2.5924,-2.5411,-2.5221,-2.5067,-3.0398,-2.991,-2.9486,-2.9486,-2.9486,-2.9486,-2.9486,-3.0525,-3.1102,-3.0475,-3.0929,-3.1083,-3.0456,-2.9852,-2.9371,-2.9121,-2.8047,-2.6929,-2.5855,-2.557,-2.5479,-2.5558,-2.5658,-2.5703,-2.5703,-2.5703,-2.5703,-2.5703,-2.5703,-2.5703,-2.5703,-2.5703,-2.5703,-2.5703,-2.5703,-2.5703,-2.5703,-2.5703,-2.5683,-2.5662,-2.5662,-2.5633,-2.5587,-2.5611,-2.5573,-2.5493,-2.5539,-2.5473,-2.5406,-2.5376,-2.5348,-2.5303,-2.5303,-2.5303,-2.5303,-2.5303,-2.5303,-2.5303,-2.5303,-2.5264,-2.5152,-2.4911,-2.5196,-2.5546,-2.5483,-2.612,-2.6686,-2.6488,-2.6637,-2.6949,-2.7371,-2.7438,-2.764,-2.8191,-2.8503,-2.8512,-2.8187,-2.8416,-2.8581,-2.8355,-2.8427,-2.8518,-2.8658,-2.8412,-2.8192,-2.8084,-2.7601,-2.7115,-2.6725,-2.6691,-2.6691,-2.6691,-2.6691,-2.6691,-2.6691,-2.6691,-2.6691,-2.6691,-2.6691,-2.6436,-2.6013,-2.6013,-2.5689,-2.5221,-2.5779,-2.5924,-2.5762,-2.5924,-2.6104,-2.6245,-2.6068,-2.6191,-2.647,-2.6315,-2.5819,-2.5128,-3.084,-3.0217,-2.9717,-3.0063,-2.9833,-2.9602,-2.9602,-3.0506,-3.1006,-3.0456,-3.0871,-3.0987,-3.0456,-2.9929,-2.9486,-2.9121,-2.7563,-2.64,-2.5933,-2.5599,-2.5434,-2.5508,-2.559,-2.5634,-2.566,-2.566,-2.5662,-2.5703,-2.5703,-2.5703,-2.5703,-2.5703,-2.5703,-2.5703,-2.5703,-2.5703,-2.5703,-2.5703,-2.5703,-2.5703,-2.5703,-2.5682,-2.5637,-2.5683,-2.5658,-2.5573,-2.5598,-2.5551,-2.5488,-2.5453,-2.5408,-2.5368,-2.5337,-2.5348,-2.5339,-2.5303,-2.5303,-2.5303,-2.5303,-2.5303,-2.5351,-2.5573,-2.5869,-2.619,-2.6458,-2.7097,-2.758,-2.7419,-2.7547,-2.7853,-2.8195,-2.8282,-2.8429,-2.892,-2.8994,-2.8994,-2.8994,-2.8994,-2.8994,-2.8994,-2.8994,-2.8994,-2.8994,-2.8773,-2.8515,-2.8237,-2.7631,-2.7115,-2.6725,-2.6691,-2.6691,-2.6691,-2.6691,-2.6691,-2.6691,-2.6691,-2.6843,-2.7131,-2.6843,-2.6707,-2.6695,-2.6395,-2.6104,-2.5819,-2.6139,-2.6297,-2.6297,-2.6297,-2.6436,-2.6657,-2.6401,-2.6183,-2.6034,-2.6094,-2.5403,-2.4492,-3.1392,-3.0982,-3.0701,-3.1436,-3.0917,-3.0367,-3.0398,-3.0456,-3.0494,-3.0398,-3.0456,-3.0475,-3.0398,-3.0398,-3.0083,-2.9294,-2.7678,-2.6709,-2.6691,-2.5875,-2.5415,-2.5488,-2.5473,-2.5503,-2.557,-2.5595,-2.5611,-2.5683,-2.5683,-2.5683,-2.5703,-2.5703,-2.5703,-2.5703,-2.5703,-2.5703,-2.5703,-2.5703,-2.5703,-2.5703,-2.5703,-2.5703,-2.5703,-2.5703,-2.5703,-2.5683,-2.5633,-2.5603,-2.5595,-2.5511,-2.5493,-2.5479,-2.5428,-2.5401,-2.5391,-2.5321,-2.5293,-2.5303,-2.5303,-2.5303,-2.5534,-2.6486,-2.6581,-2.6619,-2.7304,-2.7893,-2.8297,-2.8278,-2.8693,-2.9067,-2.904,-2.9017,-2.8994,-2.8994,-2.8994,-2.8994,-2.8994,-2.8994,-2.8994,-2.8994,-2.8994,-2.8994,-2.8994,-2.8994,-2.8712,-2.8042,-2.7595,-2.7147,-2.6725,-2.6759,-2.6759,-2.6691,-2.6759,-2.6793,-2.6793,-2.6725,-2.7046,-2.7671,-2.7012,-2.7046,-2.7689,-2.7012,-2.6691,-2.6691,-2.6691,-2.6691,-2.6691,-2.6691,-2.6691,-2.6691,-2.6623,-2.6017,-2.5159,-2.5232,-2.4519,-2.3538,-3.0676,-3.0748,-3.0779,-3.0688,-3.0356,-3.015,-3.0367,-3.0987,-3.1179,-3.0494,-3.0987,-3.116,-3.0456,-3.0398,-3.0321,-3.014,-2.8582,-2.7323,-2.668,-2.5813,-2.5321,-2.5348,-2.5329,-2.5368,-2.5447,-2.5489,-2.5554,-2.5611,-2.5611,-2.5658,-2.5703,-2.5703,-2.5703,-2.5703,-2.5703,-2.5703,-2.5703,-2.5703,-2.5703,-2.5703,-2.5703,-2.5703,-2.5703,-2.5703,-2.5703,-2.5703,-2.5683,-2.5637,-2.5595,-2.5511,-2.5493,-2.5508,-2.5473,-2.5447,-2.5406,-2.5376,-2.5339,-2.5303,-2.5303,-2.5303,-2.5668,-2.7236,-2.758,-2.7769,-2.8521,-2.9328,-2.9841,-2.9623,-2.9563,-2.9514,-2.9332,-2.9156,-2.8994,-2.8994,-2.8994,-2.8994,-2.8994,-2.8994,-2.8994,-2.8994,-2.8994,-2.8994,-2.8994,-2.8994,-2.8973,-2.8863,-2.8176,-2.7457,-2.6758,-2.7249,-2.73,-2.6708,-2.7266,-2.7571,-2.7571,-2.6996,-2.6776,-2.6945,-2.6776,-2.6776,-2.6928,-2.6776,-2.6691,-2.6691,-2.6691,-2.6691,-2.6691,-2.6691,-2.6691,-2.664,-2.6065,-2.6016,-2.627,-2.5698,-2.5074,-2.4434,-3.1115,-3.0774,-3.0389,-3.0632,-3.0318,-3.0061,-3.0196,-3.0695,-3.0929,-3.0456,-3.0814,-3.091,-3.0436,-3.0398,-3.0398,-3.0398,-2.8871,-2.7698,-2.7255,-2.6005,-2.5303,-2.5303,-2.5303,-2.5322,-2.5346,-2.5383,-2.5459,-2.5554,-2.5573,-2.5629,-2.5659,-2.5683,-2.5683,-2.5659,-2.5683,-2.5683,-2.5659,-2.5683,-2.5703,-2.5703,-2.5703,-2.5703,-2.5703,-2.5703,-2.5703,-2.5703,-2.5703,-2.5683,-2.5637,-2.5605,-2.5874,-2.6203,-2.6185,-2.6431,-2.6734,-2.6701,-2.6359,-2.6018,-2.5989,-2.5655,-2.5753,-2.7468,-2.789,-2.8217,-2.9448,-2.9965,-3.0163,-3.0028,-2.9845,-2.9625,-2.9434,-2.9289,-2.9156,-2.9017,-2.8994,-2.8994,-2.8994,-2.8994,-2.8994,-2.8994,-2.8994,-2.914,-2.9549,-2.9934,-3.0086,-2.9976,-2.9186,-2.8468,-2.7886,-2.765,-2.7365,-2.7004,-2.7521,-2.7789,-2.7789,-2.7623,-2.7706,-2.8099,-2.7487,-2.7232,-2.7232,-2.7232,-2.7029,-2.6691,-2.6691,-2.6691,-2.6691,-2.6691,-2.6488,-2.6133,-2.5761,-2.526,-2.4812,-2.5113,-2.5106,-2.4944,-3.1864,-3.0998,-3.0189,-3.0864,-3.0381,-2.9908,-2.9954,-3.0142,-3.0286,-3.0286,-3.0286,-3.0286,-3.0286,-3.0311,-3.0355,-3.0398,-2.8871,-2.789,-2.789,-2.6274,-2.5303,-2.5303,-2.5303,-2.5303,-2.5303,-2.5303,-2.5363,-2.5473,-2.5543,-2.5567,-2.5573,-2.5636,-2.5634,-2.5593,-2.5636,-2.5634,-2.5595,-2.5659,-2.5683,-2.5683,-2.5703,-2.5703,-2.5703,-2.5703,-2.5703,-2.5703,-2.5703,-2.5703,-2.5703,-2.5703,-2.6172,-2.6797,-2.6885,-2.7403,-2.8001,-2.8084,-2.7595,-2.7011,-2.6948,-2.6403,-2.6204,-2.775,-2.8104,-2.8506,-3.0063,-3.0241,-3.0075,-3.0075,-2.9893,-2.9696,-2.9532,-2.9454,-2.933,-2.9112,-2.904,-2.8994,-2.8994,-2.8994,-2.8994,-2.8994,-2.9104,-2.9586,-3.0522,-3.1091,-3.1313,-3.111,-3.0161,-2.944,-2.9118,-2.8132,-2.7517,-2.7426,-2.7926,-2.8186,-2.8186,-2.8539,-2.9099,-2.9913,-2.8887,-2.8322,-2.8099,-2.791,-2.7486,-2.6877,-2.6742,-2.6691,-2.6691,-2.6691,-2.6336,-2.5761,-2.5507,-2.459,-2.3503,-2.4563,-2.5095,-2.5232,-3.1974,-3.1592,-3.1117,-3.0942,-3.0114,-2.9551,-2.9713,-2.9782,-2.9799,-2.9799,-2.9799,-2.9799,-2.9799,-2.9939,-3.015,-3.0367,-2.8871,-2.789,-2.789,-2.6274,-2.5303,-2.5303,-2.5303,-2.5303,-2.5303,-2.5303,-2.5339,-2.542,-2.5421,-2.5465,-2.5503,-2.5511,-2.5511,-2.5503,-2.5511,-2.5511,-2.5526,-2.5593,-2.5607,-2.5629,-2.5682,-2.5703,-2.5703,-2.5703,-2.5703,-2.5703,-2.5703,-2.5703,-2.5703,-2.5703,-2.5781,-2.6016,-2.6757,-2.7025,-2.7223,-2.7962,-2.8053,-2.7921,-2.7912,-2.7777,-2.7873,-2.8786,-2.8985,-2.9179,-3.0179,-3.0367,-3.0355,-3.0355,-3.0136,-2.9954,-2.9924,-2.9625,-2.9392,-2.9351,-2.9156,-2.8994,-2.8994,-2.8994,-2.8994,-2.8994,-2.9622,-3.0632,-3.2137,-3.1733,-3.155,-3.1898,-3.0487,-2.944,-2.9118,-2.8894,-2.8482,-2.7829,-2.9145,-2.9902,-2.9902,-2.9995,-3.0397,-3.1158,-3.0988,-3.0357,-2.9315,-2.827,-2.7739,-2.7638,-2.6979,-2.6691,-2.6691,-2.6691,-2.664,-2.642,-2.5135,-2.5255,-2.6101,-2.5663,-2.5512,-2.5463,-3.1593,-3.0822,-3.0005,-2.9866,-2.9595,-2.9434,-2.9513,-2.9644,-2.9696,-2.9696,-2.9696,-2.9696,-2.9696,-2.9877,-3.0061,-3.0182,-2.9178,-2.8563,-2.8563,-2.7428,-2.6544,-2.6063,-2.6024,-2.5813,-2.5303,-2.5303,-2.5313,-2.5348,-2.5383,-2.5408,-2.5447,-2.5473,-2.5473,-2.5453,-2.5473,-2.5468,-2.5453,-2.5526,-2.5564,-2.5603,-2.5634,-2.5661,-2.5703,-2.5703,-2.5703,-2.5703,-2.5703,-2.6016,-2.6426,-2.6426,-2.707,-2.7949,-2.832,-2.8768,-2.9214,-2.9605,-2.9347,-2.8925,-2.8889,-2.8513,-2.829,-2.902,-2.9186,-2.9371,-3.021,-3.0794,-3.0987,-3.0494,-3.0311,-3.0182,-3.0028,-2.9861,-2.9661,-2.9434,-2.931,-2.916,-2.9017,-2.8994,-2.9159,-2.9622,-3.0375,-3.1329,-3.2504,-3.2687,-3.2837,-3.3031,-3.1946,-3.121,-3.1057,-3.042,-2.9912,-2.9572,-3.0421,-3.0867,-3.0867,-3.11,-3.1631,-3.2384,-3.1954,-3.0991,-2.9589,-2.9489,-2.9091,-2.8433,-2.7655,-2.7317,-2.7283,-2.686,-2.6454,-2.5981,-2.4929,-2.4881,-2.5473,-2.5575,-2.5609,-2.5558]},{"header":{"parameterUnit":"m.s-1","parameterCategory":1,"la1":30.6,"la2":28.766,"lo1":-90.7593,"lo2":-88.6598,"dy":0.0162,"dx":0.0183,"nx":116,"ny":114,"refTime":"2023-03-06T18:00:00:Z","depth":0,"parameterNumber":3,"parameterNumberName":"V-component_of_WINDS"},"data":[0.0,0.0,0.0,0.0,0.0,0.0,0.0,0.0,0.0,0.0,0.0,0.0,0.0,0.0,0.0,0.0,0.0,0.0,0.0,0.0,0.0,0.0,0.0,0.0,0.0,0.0,0.0,0.0,0.0,0.0,0.0,0.0,0.0,0.0,0.0,0.0,0.0,0.0,0.0,0.0,0.0,0.0,0.0,0.0,0.0,0.0,0.0,0.0,0.0,0.0,0.0,0.0,0.0,0.0,0.0,0.0,0.0,0.0,0.0,0.0,0.0,0.0,0.0,0.0,0.0,0.0,0.0,0.0,0.0,0.0,0.0,0.0,0.0,0.0,0.0,0.0,0.0,0.0,0.0,0.0,0.0,0.0,0.0,0.0,0.0,0.0,0.0,0.0,0.0,0.0,0.0,0.0,0.0,0.0,0.0,0.0,0.0,0.0,0.0,0.0,0.0,0.0,0.0,0.0,0.0,0.0,0.0,0.0,0.0,0.0,0.0,0.0,0.0,0.0,0.0,0.0,0.0,0.0,0.0,0.0,0.0,0.0,0.0,0.0,0.0,0.0,0.0,0.0,0.0,0.0,0.0,0.0,0.0,0.0,0.0,0.0,0.0,0.0,0.0,0.0,0.0,0.0,0.0,0.0,0.0,0.0,0.0,0.0,0.0,0.0,0.0,0.0,0.0,0.0,0.0,0.0,0.0,0.0,0.0,0.0,0.0,0.0,0.0,0.0,0.0,0.0,0.0,0.0,0.0,0.0,0.0,0.0,0.0,0.0,0.0,0.0,0.0,0.0,0.0,0.0,0.0,0.0,0.0,0.0,0.0,0.0,0.0,0.0,0.0,0.0,0.0,0.0,0.0,0.0,0.0,0.0,0.0,0.0,0.0,0.0,0.0,0.0,0.0,0.0,0.0,0.0,0.0,0.0,0.0,0.0,0.0,0.0,0.0,0.0,0.0,0.0,0.0,0.0,0.0,0.0,0.0,0.0,0.0,0.0,0.0,0.0,0.0,0.0,0.0,0.0,0.0,0.0,0.0,0.0,0.0,0.0,0.0,0.0,0.0,0.0,0.0,0.0,0.0,0.0,0.0,0.0,0.0,0.0,0.0,0.0,0.0,0.0,0.0,0.0,0.0,0.0,0.0,0.0,0.0,0.0,0.0,0.0,0.0,0.0,0.0,0.0,0.0,0.0,0.0,0.0,0.0,0.0,0.0,0.0,0.0,0.0,0.0,0.0,0.0,0.0,0.0,0.0,0.0,0.0,0.0,0.0,0.0,0.0,0.0,0.0,0.0,0.0,0.0,0.0,0.0,0.0,0.0,0.0,0.0,0.0,0.0,0.0,0.0,0.0,0.0,0.0,0.0,0.0,0.0,0.0,0.0,0.0,0.0,0.0,0.0,0.0,0.0,0.0,0.0,0.0,0.0,0.0,0.0,0.0,0.0,0.0,0.0,0.0,0.0,0.0,0.0,0.0,0.0,0.0,0.0,0.0,0.0,0.0,0.0,0.0,0.0,0.0,0.0,0.0,0.0,0.0,0.0,0.0,0.0,0.0,0.0,0.0,0.0,0.0,0.0,0.0,0.0,0.0,0.0,0.0,0.0,0.0,0.0,0.0,0.0,0.0,0.0,0.0,0.0,0.0,0.0,0.0,0.0,0.0,0.0,0.0,0.0,0.0,0.0,0.0,0.0,0.0,0.0,0.0,0.0,0.0,0.0,0.0,0.0,0.0,0.0,0.0,0.0,0.0,0.0,0.0,0.0,0.0,0.0,0.0,0.0,0.0,0.0,0.0,0.0,0.0,0.0,0.0,0.0,0.0,0.0,0.0,0.0,0.0,0.0,0.0,0.0,0.0,0.0,0.0,0.0,0.0,0.0,0.0,0.0,0.0,0.0,0.0,0.0,0.0,0.0,0.0,0.0,0.0,0.0,0.0,0.0,0.0,0.0,0.0,0.0,0.0,0.0,0.0,0.0,0.0,0.0,0.0,0.0,0.0,0.0,0.0,0.0,0.0,0.0,0.0,0.0,0.0,0.0,0.0,0.0,0.0,0.0,0.0,0.0,0.0,0.0,0.0,0.0,0.0,0.0,0.0,0.0,0.0,0.0,0.0,0.0,0.0,0.0,0.0,0.0,0.0,0.0,0.0,0.0,0.0,0.0,0.0,0.0,0.0,0.0,0.0,0.0,0.0,0.0,0.0,0.0,0.0,0.0,0.0,0.0,0.0,0.0,0.0,0.0,0.0,0.0,0.0,0.0,0.0,0.0,0.0,0.0,0.0,0.0,0.0,0.0,0.0,0.0,0.0,0.0,0.0,0.0,0.0,0.0,0.0,0.0,0.0,0.0,0.0,0.0,0.0,0.0,0.0,0.0,0.0,0.0,0.0,0.0,0.0,0.0,0.0,0.0,0.0,0.0,0.0,0.0,0.0,0.0,0.0,0.0,0.0,0.0,0.0,0.0,0.0,0.0,0.0,0.0,0.0,0.0,0.0,0.0,0.0,0.0,0.0,0.0,0.0,0.0,0.0,0.0,0.0,0.0,0.0,0.0,0.0,0.0,0.0,0.0,0.0,0.0,0.0,0.0,0.0,0.0,0.0,0.0,0.0,0.0,0.0,0.0,0.0,0.0,0.0,0.0,0.0,0.0,0.0,0.0,0.0,0.0,0.0,0.0,0.0,0.0,0.0,0.0,0.0,0.0,0.0,0.0,0.0,0.0,0.0,0.0,0.0,0.0,0.0,0.0,0.0,0.0,0.0,0.0,0.0,0.0,0.0,0.0,0.0,0.0,0.0,0.0,0.0,0.0,0.0,0.0,0.0,0.0,0.0,0.0,0.0,0.0,0.0,0.0,0.0,0.0,0.0,0.0,0.0,0.0,0.0,0.0,0.0,0.0,0.0,0.0,0.0,0.0,0.0,0.0,0.0,0.0,0.0,0.0,0.0,0.0,0.0,0.0,0.0,0.0,0.0,0.0,0.0,0.0,0.0,0.0,0.0,0.0,0.0,0.0,0.0,0.0,0.0,0.0,0.0,0.0,0.0,0.0,0.0,0.0,0.0,0.0,0.0,0.0,0.0,0.0,0.0,0.0,0.0,0.0,0.0,0.0,0.0,0.0,0.0,0.0,0.0,0.0,0.0,0.0,0.0,0.0,0.0,0.0,0.0,0.0,0.0,0.0,0.0,0.0,0.0,0.0,0.0,0.0,0.0,0.0,0.0,0.0,0.0,0.0,0.0,0.0,0.0,0.0,0.0,0.0,0.0,0.0,0.0,0.0,0.0,0.0,0.0,0.0,0.0,0.0,0.0,0.0,0.0,0.0,0.0,0.0,0.0,0.0,0.0,0.0,0.0,0.0,0.0,0.0,0.0,0.0,0.0,0.0,0.0,0.0,0.0,0.0,0.0,0.0,0.0,0.0,0.0,0.0,0.0,0.0,0.0,0.0,0.0,0.0,0.0,0.0,0.0,0.0,0.0,0.0,0.0,0.0,0.0,0.0,0.0,0.0,0.0,0.0,0.0,0.0,0.0,0.0,0.0,0.0,0.0,0.0,0.0,0.0,0.0,0.0,0.0,0.0,0.0,0.0,0.0,0.0,0.0,0.0,0.0,0.0,0.0,0.0,0.0,0.0,0.0,0.0,0.0,0.0,0.0,0.0,0.0,0.0,0.0,0.0,0.0,0.0,0.0,0.0,0.0,0.0,0.0,0.0,0.0,0.0,0.0,0.0,0.0,0.0,0.0,0.0,0.0,0.0,0.0,0.0,0.0,0.0,0.0,0.0,0.0,0.0,0.0,0.0,0.0,0.0,0.0,0.0,0.0,0.0,0.0,0.0,0.0,0.0,0.0,0.0,0.0,0.0,0.0,0.0,0.0,0.0,0.0,0.0,0.0,0.0,0.0,0.0,0.0,0.0,0.0,0.0,0.0,0.0,0.0,0.0,0.0,0.0,0.0,0.0,0.0,0.0,0.0,0.0,0.0,0.0,0.0,0.0,0.0,0.0,0.0,0.0,0.0,0.0,0.0,0.0,0.0,0.0,0.0,0.0,0.0,0.0,0.0,0.0,0.0,0.0,0.0,0.0,0.0,0.0,0.0,0.0,0.0,0.0,0.0,0.0,0.0,0.0,0.0,0.0,0.0,0.0,0.0,0.0,0.0,0.0,0.0,0.0,0.0,0.0,0.0,0.0,0.0,0.0,0.0,0.0,0.0,0.0,0.0,0.0,0.0,0.0,0.0,0.0,0.0,0.0,0.0,0.0,0.0,0.0,0.0,0.0,0.0,0.0,0.0,0.0,0.0,0.0,0.0,0.0,0.0,0.0,0.0,0.0,0.0,0.0,0.0,0.0,0.0,0.0,0.0,0.0,0.0,0.0,0.0,0.0,0.0,0.0,0.0,0.0,0.0,0.0,0.0,0.0,0.0,0.0,0.0,0.0,0.0,0.0,0.0,0.0,0.0,0.0,0.0,0.0,0.0,0.0,0.0,0.0,0.0,0.0,0.0,0.0,0.0,0.0,0.0,0.0,0.0,0.0,0.0,0.0,0.0,0.0,0.0,0.0,0.0,0.0,0.0,0.0,0.0,0.0,0.0,0.0,0.0,0.0,0.0,0.0,0.0,0.0,0.0,0.0,0.0,0.0,0.0,0.0,0.0,0.0,0.0,0.0,0.0,0.0,0.0,0.0,0.0,0.0,0.0,0.0,0.0,0.0,0.0,0.0,0.0,0.0,0.0,0.0,0.0,0.0,0.0,0.0,0.0,0.0,0.0,0.0,0.0,0.0,0.0,0.0,0.0,0.0,0.0,0.0,0.0,0.0,0.0,0.0,0.0,0.0,0.0,0.0,0.0,0.0,0.0,0.0,0.0,0.0,0.0,0.0,0.0,0.0,0.0,0.0,0.0,0.0,0.0,0.0,0.0,0.0,0.0,0.0,0.0,0.0,0.0,0.0,0.0,0.0,0.0,0.0,0.0,0.0,0.0,0.0,0.0,0.0,0.0,0.0,0.0,0.0,0.0,0.0,0.0,0.0,0.0,0.0,0.0,0.0,0.0,0.0,0.0,0.0,0.0,0.0,0.0,0.0,0.0,0.0,0.0,0.0,0.0,0.0,0.0,0.0,0.0,0.0,0.0,0.0,0.0,0.0,0.0,0.0,0.0,0.0,0.0,0.0,0.0,0.0,0.0,0.0,0.0,0.0,0.0,0.0,0.0,0.0,0.0,0.0,0.0,0.0,0.0,0.0,0.0,0.0,0.0,0.0,0.0,0.0,0.0,0.0,0.0,0.0,0.0,0.0,0.0,0.0,0.0,0.0,0.0,0.0,0.0,0.0,0.0,0.0,0.0,0.0,0.0,0.0,0.0,0.0,0.0,0.0,0.0,0.0,0.0,0.0,0.0,0.0,0.0,0.0,0.0,0.0,0.0,0.0,0.0,0.0,0.0,0.0,0.0,0.0,0.0,0.0,0.0,0.0,0.0,0.0,0.0,0.0,0.0,0.0,0.0,0.0,0.0,0.0,0.0,0.0,0.0,0.0,0.0,0.0,0.0,0.0,0.0,0.0,0.0,0.0,0.0,0.0,0.0,0.0,0.0,0.0,0.0,0.0,0.0,0.0,0.0,0.0,0.0,0.0,0.0,0.0,0.0,0.0,0.0,0.0,0.0,0.0,0.0,0.0,0.0,0.0,0.0,0.0,0.0,0.0,0.0,0.0,0.0,0.0,0.0,0.0,0.0,0.0,0.0,0.0,0.0,0.0,0.0,0.0,0.0,0.0,0.0,0.0,0.0,0.0,0.0,0.0,0.0,0.0,0.0,0.0,0.0,0.0,0.0,0.0,0.0,0.0,0.0,0.0,0.0,0.0,0.0,0.0,0.0,0.0,0.0,0.0,0.0,0.0,0.0,0.0,0.0,0.0,0.0,0.0,0.0,0.0,0.0,0.0,0.0,0.0,0.0,0.0,0.0,0.0,0.0,0.0,0.0,0.0,0.0,0.0,0.0,0.0,0.0,0.0,0.0,0.0,0.0,0.0,0.0,0.0,0.0,0.0,0.0,0.0,0.0,0.0,0.0,0.0,0.0,0.0,0.0,0.0,0.0,0.0,0.0,0.0,0.0,-1.3527,-1.4227,0.0,0.0,0.0,0.0,0.0,0.0,0.0,0.0,0.0,0.0,0.0,0.0,0.0,0.0,0.0,0.0,0.0,0.0,0.0,0.0,0.0,0.0,0.0,0.0,0.0,0.0,0.0,0.0,0.0,0.0,0.0,0.0,0.0,0.0,0.0,0.0,0.0,0.0,0.0,0.0,0.0,0.0,0.0,0.0,0.0,0.0,0.0,0.0,0.0,0.0,0.0,0.0,0.0,0.0,0.0,0.0,0.0,0.0,0.0,0.0,0.0,0.0,0.0,0.0,0.0,0.0,0.0,0.0,0.0,0.0,0.0,0.0,0.0,0.0,0.0,0.0,0.0,0.0,0.0,0.0,0.0,0.0,0.0,0.0,0.0,0.0,0.0,0.0,0.0,0.0,0.0,0.0,0.0,0.0,0.0,0.0,0.0,0.0,0.0,0.0,0.0,0.0,0.0,0.0,0.0,0.0,0.0,0.0,0.0,0.0,0.0,0.0,0.0,0.0,-1.4795,-1.468,0.0,0.0,0.0,0.0,0.0,0.0,0.0,0.0,0.0,0.0,0.0,0.0,0.0,0.0,0.0,0.0,0.0,0.0,0.0,0.0,0.0,0.0,0.0,0.0,0.0,0.0,0.0,0.0,0.0,0.0,0.0,0.0,0.0,0.0,0.0,0.0,0.0,0.0,0.0,0.0,0.0,0.0,0.0,0.0,0.0,0.0,0.0,0.0,0.0,0.0,0.0,0.0,0.0,0.0,0.0,0.0,0.0,0.0,0.0,0.0,0.0,0.0,0.0,0.0,0.0,0.0,0.0,0.0,0.0,0.0,0.0,0.0,0.0,0.0,0.0,0.0,0.0,0.0,0.0,0.0,0.0,0.0,0.0,0.0,0.0,0.0,0.0,0.0,0.0,0.0,0.0,0.0,0.0,0.0,0.0,0.0,0.0,0.0,0.0,0.0,0.0,0.0,0.0,0.0,0.0,0.0,0.0,0.0,-1.4936,-1.5857,-1.6115,-1.6586,-1.6516,-1.5999,-1.5838,-1.5092,-1.4066,-1.5507,0.0,0.0,0.0,0.0,0.0,0.0,0.0,0.0,0.0,0.0,0.0,0.0,0.0,0.0,0.0,0.0,0.0,0.0,0.0,0.0,0.0,0.0,0.0,0.0,0.0,0.0,0.0,0.0,0.0,0.0,0.0,0.0,0.0,0.0,0.0,0.0,0.0,0.0,-1.628,-1.6039,-1.634,-1.7048,0.0,0.0,0.0,0.0,0.0,0.0,0.0,0.0,0.0,0.0,0.0,0.0,0.0,0.0,0.0,0.0,0.0,0.0,0.0,0.0,0.0,0.0,0.0,0.0,0.0,0.0,0.0,0.0,0.0,0.0,0.0,0.0,0.0,0.0,0.0,0.0,0.0,0.0,0.0,0.0,0.0,0.0,0.0,0.0,-0.4385,-0.5317,0.0,0.0,0.0,0.0,0.0,0.0,0.0,0.0,0.0,0.0,0.0,0.0,0.0,-1.193,-1.2613,-1.2762,-1.3493,-1.4825,-1.5206,-1.5366,-1.5366,-1.6364,-1.6241,-1.5277,-1.5872,0.0,-1.5345,-1.5567,0.0,0.0,0.0,0.0,0.0,0.0,0.0,0.0,0.0,0.0,0.0,0.0,0.0,0.0,0.0,0.0,0.0,0.0,0.0,0.0,0.0,0.0,0.0,0.0,0.0,0.0,0.0,0.0,0.0,0.0,0.0,0.0,0.0,0.0,0.0,0.0,0.0,0.0,0.0,-1.7455,-1.8134,-1.8877,-1.8519,-1.8129,-1.7714,-1.7212,0.0,0.0,0.0,0.0,0.0,0.0,0.0,0.0,0.0,0.0,0.0,0.0,0.0,0.0,0.0,0.0,0.0,0.0,0.0,0.0,0.0,0.0,0.0,0.0,0.0,0.0,0.0,0.0,0.0,0.0,0.0,0.0,0.0,0.0,0.0,0.0,0.0,0.0,0.0,-0.3454,-0.4788,-0.5531,-0.7492,-0.8812,0.0,0.0,0.0,0.0,0.0,0.0,0.0,0.0,0.0,-1.3528,-1.3508,-1.3541,-1.3617,-1.4369,-1.5102,-1.5792,-1.5994,-1.6061,-1.6061,-1.6386,-1.6249,-1.5805,-1.6322,-1.6418,-1.621,-1.6227,-1.6573,-1.7157,0.0,0.0,0.0,0.0,-1.9583,-1.9803,0.0,0.0,0.0,0.0,0.0,0.0,0.0,0.0,0.0,0.0,0.0,0.0,0.0,0.0,0.0,-1.829,0.0,0.0,0.0,0.0,0.0,0.0,0.0,0.0,0.0,0.0,0.0,0.0,0.0,0.0,0.0,0.0,0.0,-2.0427,-2.0309,-1.9573,-1.8508,-1.7857,-1.735,0.0,0.0,0.0,0.0,0.0,0.0,0.0,0.0,0.0,0.0,0.0,0.0,0.0,0.0,0.0,0.0,0.0,0.0,0.0,0.0,0.0,0.0,0.0,0.0,0.0,0.0,0.0,0.0,0.0,0.0,0.0,0.0,0.0,0.0,0.0,0.0,0.0,0.0,-0.3963,-0.4927,-0.5917,-0.7889,-0.9132,0.0,0.0,0.0,0.0,0.0,0.0,-1.4477,-1.4123,-1.427,-1.5082,-1.5066,-1.4948,-1.4807,-1.5941,-1.6556,-1.6652,-1.6857,-1.6965,-1.695,-1.6741,-1.6699,-1.6797,-1.7047,-1.7263,-1.7368,-1.7007,-1.6953,-1.723,-1.8353,-1.8905,-1.9147,-1.9626,-2.0182,-2.0511,0.0,0.0,0.0,0.0,0.0,0.0,0.0,0.0,0.0,0.0,0.0,0.0,0.0,0.0,-1.8317,-1.8977,-2.016,-2.0534,0.0,0.0,0.0,0.0,0.0,0.0,0.0,0.0,0.0,0.0,0.0,0.0,0.0,0.0,0.0,0.0,0.0,-2.1476,-2.1427,-1.9147,-1.8141,-1.8028,0.0,0.0,0.0,0.0,0.0,0.0,0.0,0.0,0.0,0.0,0.0,0.0,0.0,0.0,0.0,0.0,0.0,0.0,0.0,0.0,0.0,0.0,0.0,0.0,0.0,0.0,0.0,0.0,0.0,0.0,0.0,0.0,0.0,0.0,0.0,0.0,0.0,0.0,0.0,-0.6781,-0.8007,0.0,0.0,0.0,0.0,-1.3895,-1.5389,-1.6061,-1.564,-1.559,-1.5605,-1.5647,-1.5668,-1.6063,-1.6954,-1.7016,-1.7246,-1.7637,-1.7637,-1.7637,-1.7637,-1.764,-1.7803,-1.8115,-1.813,-1.8548,-1.9159,-1.7823,-1.7247,-1.7337,-1.8711,-1.9265,-1.9439,-2.072,-2.1238,-2.1167,0.0,0.0,0.0,0.0,0.0,0.0,0.0,0.0,0.0,0.0,0.0,0.0,0.0,-1.8579,-1.9061,-1.9989,-2.09,-2.0806,-1.9362,0.0,0.0,0.0,0.0,0.0,0.0,0.0,0.0,0.0,0.0,0.0,0.0,0.0,0.0,0.0,0.0,0.0,-2.1869,-2.0002,-1.8631,-1.7614,-1.6835,-1.6905,0.0,0.0,0.0,0.0,0.0,0.0,0.0,0.0,0.0,0.0,0.0,0.0,0.0,0.0,0.0,0.0,0.0,0.0,0.0,0.0,0.0,0.0,0.0,0.0,0.0,0.0,0.0,0.0,0.0,0.0,0.0,0.0,0.0,0.0,0.0,0.0,0.0,-0.7544,-0.8933,0.0,-1.1148,-1.2743,-1.3819,-1.4082,-1.4965,-1.553,-1.568,-1.5693,-1.5838,-1.6194,-1.6889,-1.7419,-1.7721,-1.8411,-1.8832,-1.8986,-1.8553,-1.8343,-1.8343,-1.7891,-1.7779,-1.7878,-1.7878,-1.847,-1.937,-1.9154,-1.9028,-1.9077,-1.975,-2.0016,-2.0119,-2.0985,-2.1634,-2.2016,0.0,0.0,0.0,0.0,0.0,0.0,0.0,0.0,0.0,0.0,0.0,-1.6982,-1.8539,-1.9206,-1.9907,-2.0873,-2.1411,-2.1066,-1.9614,0.0,0.0,0.0,0.0,0.0,0.0,0.0,0.0,0.0,0.0,0.0,0.0,0.0,0.0,0.0,0.0,0.0,0.0,0.0,-1.9162,-1.7491,-1.7177,-1.7748,-1.8671,0.0,0.0,0.0,0.0,0.0,0.0,0.0,0.0,0.0,0.0,0.0,0.0,0.0,0.0,0.0,0.0,0.0,0.0,0.0,0.0,0.0,0.0,0.0,0.0,0.0,0.0,0.0,0.0,0.0,0.0,0.0,0.0,0.0,0.0,-0.6007,-0.7158,-0.8849,-1.0489,-1.1882,-1.2806,-1.4061,-1.4903,-1.5198,-1.5529,-1.5881,-1.6245,-1.6082,-1.6216,-1.674,-1.7463,-1.7987,-1.838,-1.908,-1.953,-1.9675,-1.9241,-1.9031,-1.9016,-1.8583,-1.8388,-1.8388,-1.8525,-1.9098,-1.9972,-2.0365,-2.0624,-2.0788,-2.0977,-2.0899,-2.0766,-2.1512,-2.2178,-2.2722,0.0,0.0,0.0,0.0,0.0,0.0,0.0,0.0,0.0,0.0,-1.5658,-1.6712,-1.81,-1.9621,-2.0846,-2.1509,-2.1591,-2.1314,-2.0697,-1.9516,0.0,0.0,0.0,0.0,0.0,0.0,0.0,0.0,0.0,0.0,0.0,0.0,0.0,0.0,0.0,0.0,0.0,0.0,0.0,-1.7796,-1.8129,-1.8996,-1.9932,0.0,0.0,0.0,0.0,0.0,0.0,0.0,0.0,0.0,0.0,0.0,0.0,0.0,0.0,0.0,0.0,0.0,0.0,0.0,0.0,0.0,0.0,0.0,0.0,0.0,0.0,0.0,0.0,0.0,0.0,0.0,0.0,0.0,-0.5903,-0.7212,-0.8822,-1.0787,-1.2512,-1.4022,-1.5196,-1.6115,-1.6849,-1.7355,-1.74,-1.74,-1.74,-1.6873,-1.6803,-1.7323,-1.7352,-1.7854,-1.8884,-1.8907,-1.9169,-1.969,-1.969,-1.969,-1.969,-1.969,-1.9726,-1.9747,-2.0124,-2.055,-2.1055,-2.143,-2.1869,-2.231,-2.231,-2.1854,-2.1349,-2.235,-2.2923,-2.3282,0.0,0.0,0.0,0.0,0.0,0.0,0.0,0.0,0.0,0.0,-1.5522,-1.7011,-1.8618,-1.9508,-2.0258,-2.0909,-2.0103,-1.9548,-1.9377,0.0,0.0,0.0,0.0,0.0,0.0,0.0,0.0,0.0,0.0,0.0,0.0,0.0,0.0,0.0,0.0,0.0,0.0,0.0,0.0,0.0,-1.93,-1.9551,-1.9807,0.0,0.0,0.0,0.0,0.0,0.0,0.0,0.0,0.0,0.0,0.0,0.0,0.0,0.0,0.0,0.0,0.0,0.0,0.0,0.0,0.0,0.0,0.0,0.0,0.0,0.0,0.0,0.0,0.0,0.0,0.0,-0.541,-0.5865,-0.6486,-0.7609,-0.9138,-1.1402,-1.2565,-1.389,-1.5753,-1.6664,-1.7362,-1.7931,-1.7978,-1.7978,-1.7978,-1.7827,-1.7785,-1.7956,-1.7935,-1.8242,-1.8877,-1.8917,-1.9169,-1.969,-1.969,-1.969,-1.969,-1.969,-1.9874,-2.0124,-1.9929,-2.0449,-2.143,-2.1244,-2.1615,-2.231,-2.231,-2.2192,-2.2061,-2.2513,-2.2923,-2.3259,0.0,0.0,0.0,0.0,0.0,0.0,0.0,0.0,0.0,0.0,-1.5341,-1.6854,-1.7831,-1.8882,-1.9522,-1.9623,-1.8974,-1.8563,-1.8563,0.0,0.0,0.0,0.0,0.0,0.0,0.0,0.0,0.0,0.0,0.0,0.0,0.0,0.0,0.0,0.0,0.0,0.0,0.0,0.0,0.0,-2.1145,-2.123,-2.1169,-2.0105,-2.0254,-2.0953,-1.9694,-1.9436,-1.9425,-1.8037,0.0,0.0,0.0,0.0,0.0,0.0,0.0,0.0,0.0,0.0,0.0,0.0,0.0,0.0,0.0,0.0,0.0,0.0,0.0,0.0,0.0,0.0,0.0,0.0,-0.7683,-0.8156,-0.8604,-0.9402,-1.0552,-1.2158,-1.3789,-1.5275,-1.6647,-1.7454,-1.8137,-1.882,-1.8668,-1.8555,-1.8555,-1.8329,-1.8204,-1.8204,-1.8201,-1.8565,-1.9292,-1.9319,-1.9594,-2.0124,-2.0124,-1.9959,-1.969,-1.969,-1.9909,-2.0314,-2.0261,-2.0764,-2.1598,-2.1554,-2.184,0.0,0.0,0.0,0.0,0.0,-2.2822,-2.3045,0.0,0.0,0.0,0.0,0.0,0.0,0.0,0.0,0.0,0.0,0.0,-1.6308,-1.6245,-1.7739,-1.8543,-1.8053,-1.7999,-1.8028,0.0,0.0,0.0,0.0,0.0,0.0,0.0,0.0,0.0,0.0,0.0,0.0,0.0,0.0,0.0,0.0,0.0,0.0,0.0,0.0,0.0,0.0,0.0,-2.3208,-2.3204,-2.1446,-2.2049,-2.3609,-2.1445,-2.0744,-2.0616,-1.956,0.0,0.0,0.0,0.0,0.0,0.0,0.0,0.0,0.0,0.0,0.0,0.0,0.0,0.0,0.0,0.0,0.0,0.0,0.0,0.0,0.0,0.0,0.0,0.0,-1.0465,-1.1206,-1.1609,-1.2183,-1.2747,-1.3247,-1.5549,-1.7313,-1.7734,-1.8449,-1.916,-1.9935,-1.951,-1.9208,-1.9208,-1.8694,0.0,0.0,0.0,-1.8897,-2.0012,-2.0029,-2.0299,-2.0827,-2.0827,-2.0468,-1.9794,-1.9794,-2.0021,-2.0382,-2.0731,-2.1181,-2.1688,-2.2003,-2.2209,-2.231,-2.231,-2.231,-2.2321,-2.2563,-2.2643,-2.2712,0.0,0.0,0.0,0.0,0.0,0.0,0.0,0.0,0.0,-1.2642,-1.4099,-1.5054,-1.4614,-1.6007,-1.6961,-1.6861,-1.6718,-1.725,0.0,0.0,0.0,0.0,0.0,0.0,0.0,0.0,0.0,0.0,0.0,0.0,0.0,0.0,0.0,0.0,0.0,0.0,0.0,0.0,0.0,0.0,0.0,-2.3191,-2.3052,-2.228,-2.2013,-2.1971,-2.1488,-2.161,-2.1794,-2.0731,-1.9981,-1.9254,-1.7974,0.0,0.0,0.0,0.0,0.0,0.0,0.0,0.0,0.0,0.0,0.0,0.0,0.0,0.0,0.0,0.0,0.0,0.0,0.0,0.0,-1.2919,-1.305,-1.338,-1.3961,-1.4788,-1.5233,-1.506,-1.6027,-1.7277,-1.8655,-1.946,-2.0282,-2.1099,-2.0652,-2.0351,-2.0351,-1.9811,-1.9497,-1.9497,-1.9597,-1.9954,-2.0616,-2.067,-2.0971,-2.1515,-2.1515,0.0,-2.0513,-2.0513,-2.0656,-2.0829,-2.0208,-2.0797,-2.2106,-2.1493,-2.1661,-2.231,-2.231,-2.231,-2.231,-2.2377,-2.2388,-2.2426,0.0,0.0,0.0,0.0,0.0,0.0,0.0,0.0,0.0,0.0,-1.395,-1.4387,-1.4123,-1.5079,-1.558,-1.5304,-1.5981,0.0,0.0,0.0,0.0,0.0,0.0,0.0,0.0,0.0,0.0,0.0,0.0,0.0,0.0,0.0,0.0,0.0,0.0,0.0,0.0,0.0,0.0,0.0,0.0,0.0,-2.4305,-2.3766,-2.3552,-2.3477,-2.2937,-2.266,-2.2408,-2.1743,-2.0244,-1.8619,-1.8322,-1.6915,-1.531,0.0,0.0,0.0,0.0,0.0,0.0,0.0,0.0,0.0,0.0,0.0,0.0,0.0,0.0,-1.6568,0.0,0.0,-1.6284,-1.5984,-1.5525,-1.5347,-1.5861,-1.6189,-1.6184,-1.5719,-1.6476,-1.7529,-1.8955,-1.9408,-2.0169,-2.1425,-2.123,-2.0953,-2.0731,-2.0652,-2.0388,-1.9823,-2.0438,-2.0891,-2.1236,-2.1573,-2.1917,-2.2188,-2.2188,-2.1844,-2.1201,-2.0857,-2.0998,-2.147,-2.0689,-2.1086,-2.2282,-2.1827,-2.1915,-2.231,-2.231,-2.231,-2.231,-2.231,-2.231,-2.2338,0.0,0.0,0.0,0.0,0.0,0.0,0.0,0.0,0.0,0.0,0.0,-1.3846,-1.3632,-1.4198,-1.4487,0.0,0.0,0.0,0.0,0.0,0.0,0.0,0.0,0.0,0.0,0.0,0.0,0.0,0.0,0.0,0.0,0.0,0.0,0.0,0.0,0.0,0.0,0.0,0.0,0.0,0.0,0.0,-2.5862,-2.5335,-2.5272,-2.5322,-2.4356,-2.3392,-2.2549,-2.2184,-2.0029,-1.7605,-1.825,-1.6848,-1.4932,-1.4414,-1.4141,0.0,0.0,0.0,0.0,0.0,0.0,0.0,0.0,0.0,-1.6764,-1.6806,-1.8227,-1.9553,-1.9922,-1.9722,-1.9362,-1.8745,-1.7948,-1.7474,-1.7613,-1.7229,-1.6904,-1.6698,-1.7301,-1.8178,-1.9315,-1.9512,-2.024,-2.1693,-2.1707,-2.1455,-2.1004,-2.1305,-2.1066,-2.0162,-2.1275,-2.197,-2.2083,-2.2811,-2.3148,-2.3056,-2.3167,-2.2787,-2.2003,-2.134,-2.1399,-2.1999,-2.136,-2.1589,-2.2365,-2.2333,-2.231,-2.231,-2.231,-2.2395,-2.2513,-2.2361,-2.231,-2.231,0.0,0.0,0.0,0.0,0.0,0.0,0.0,0.0,0.0,0.0,0.0,0.0,0.0,0.0,0.0,0.0,0.0,0.0,0.0,0.0,0.0,0.0,0.0,0.0,0.0,0.0,0.0,0.0,0.0,0.0,0.0,0.0,0.0,0.0,0.0,0.0,0.0,0.0,0.0,0.0,0.0,0.0,-2.703,-2.649,-2.5711,-2.482,-2.4217,-2.329,-2.2225,-2.1558,-2.0143,-1.8605,-1.8205,-1.7083,-1.5821,-1.4951,0.0,-1.3477,-1.3008,-1.291,-1.3402,-1.5279,-1.5479,-1.5721,0.0,0.0,-1.9166,-1.9376,-2.058,-2.1616,-2.1625,-2.2001,-2.1847,-2.0722,-2.0375,-2.0053,-1.9199,-1.8686,-1.8665,-1.9346,-1.9266,-1.9456,-2.037,-2.1128,-2.1957,-2.283,-2.2498,-2.2196,-2.2133,-2.1719,-2.143,-2.1305,-2.2631,-2.3365,-2.3395,-2.466,-2.4982,-2.4403,-2.4856,-2.4421,-2.318,-2.2523,-2.2164,-2.2083,-2.1693,-2.1944,-2.2642,-2.2404,-2.231,-2.231,-2.231,-2.2699,-2.319,-2.2547,-2.231,-2.231,0.0,0.0,0.0,0.0,0.0,0.0,0.0,0.0,0.0,0.0,0.0,0.0,0.0,0.0,0.0,0.0,0.0,0.0,0.0,0.0,0.0,0.0,0.0,0.0,0.0,0.0,0.0,0.0,0.0,0.0,0.0,0.0,0.0,0.0,0.0,0.0,0.0,0.0,0.0,0.0,0.0,0.0,-2.718,-2.6289,-2.5071,-2.3766,-2.3213,-2.1955,0.0,0.0,-1.8532,-1.6929,-1.7164,-1.6338,-1.5195,-1.459,-1.4336,0.0,-1.4582,-1.4687,-1.5143,0.0,-1.769,-1.8389,-1.936,-2.0556,-2.1525,-2.1624,-2.2678,-2.3749,-2.398,-2.3821,-2.322,0.0,-2.1503,-2.0793,-1.9797,-1.9473,-1.9602,-2.0209,-2.0599,-2.0974,-2.1302,-2.169,-2.2261,-2.3017,-2.2865,-2.2648,-2.2334,-2.2397,-2.2363,-2.213,-2.3362,-2.4094,-2.4248,-2.5104,-2.5427,-2.5196,-2.5356,-2.5106,-2.4544,-2.3444,-2.2689,-2.2252,-2.2654,-2.2996,-2.3308,-2.3483,-2.3579,-2.3579,-2.3579,-2.3765,-2.3934,-2.3207,-2.2936,-2.2936,0.0,0.0,0.0,0.0,0.0,0.0,0.0,0.0,0.0,0.0,0.0,0.0,0.0,0.0,0.0,0.0,0.0,0.0,0.0,0.0,0.0,0.0,0.0,0.0,0.0,0.0,0.0,0.0,0.0,0.0,0.0,0.0,0.0,0.0,0.0,0.0,0.0,0.0,0.0,0.0,0.0,0.0,-2.6678,-2.5398,-2.3891,-2.2397,-2.1995,-2.0609,0.0,0.0,-1.7014,-1.5624,-1.6073,-1.5517,-1.4727,-1.4404,-1.4464,-1.4868,-1.5775,-1.6223,0.0,-1.8688,-1.9947,-2.0862,-2.1441,-2.2691,-2.36,-2.334,-2.4202,-2.5109,-2.5335,-2.4841,-2.4053,-2.2987,-2.2215,-2.1471,-2.0577,-2.0257,-2.0424,-2.1242,-2.1644,-2.2002,-2.2199,-2.2261,-2.2445,-2.3078,-2.3078,-2.2902,-2.256,-2.309,-2.3335,-2.3093,-2.4281,-2.5024,-2.5164,-2.5763,-2.5991,-2.5884,-2.5909,-2.5858,-2.5566,-2.4241,-2.3257,-2.2654,-2.3115,-2.3481,-2.3831,-2.4,-2.416,-2.4286,-2.4286,-2.45,-2.4729,-2.4205,-2.3883,-2.3697,0.0,0.0,0.0,0.0,0.0,0.0,0.0,0.0,0.0,0.0,0.0,0.0,0.0,0.0,0.0,0.0,0.0,0.0,0.0,0.0,0.0,0.0,0.0,0.0,0.0,0.0,0.0,0.0,0.0,0.0,0.0,0.0,0.0,0.0,0.0,0.0,0.0,0.0,0.0,0.0,0.0,0.0,-2.5473,-2.3828,-2.2184,-2.0794,-2.0769,0.0,0.0,0.0,-1.6171,-1.584,-1.5099,-1.4851,0.0,-1.4766,-1.4576,0.0,0.0,0.0,-1.7951,-2.1224,-2.2091,-2.2618,-2.4422,-2.5208,-2.5269,-2.4321,-2.4946,-2.5423,-2.4933,-2.4781,-2.4328,-2.292,-2.2715,-2.2512,-2.2018,-2.1157,-2.1204,-2.2998,-2.2443,-2.2199,-2.3005,-2.3078,-2.3078,-2.3078,-2.3078,-2.3065,-2.3053,-2.3813,-2.4266,-2.4239,-2.5659,-2.6443,-2.6453,-2.7159,-2.7215,-2.6557,-2.707,-2.6951,-2.6142,-2.4782,-2.3887,-2.3344,-2.2631,-2.3026,-2.4026,-2.3335,-2.3312,-2.372,-2.372,-2.448,-2.5575,-2.5558,-2.5067,-2.4472,0.0,0.0,0.0,0.0,0.0,0.0,0.0,0.0,0.0,0.0,0.0,0.0,0.0,0.0,0.0,0.0,0.0,0.0,0.0,0.0,0.0,0.0,0.0,0.0,0.0,0.0,0.0,0.0,0.0,0.0,0.0,0.0,0.0,0.0,0.0,0.0,0.0,0.0,0.0,0.0,0.0,0.0,-2.3067,-2.1935,-2.069,-1.9484,0.0,0.0,0.0,0.0,0.0,0.0,-1.4812,0.0,0.0,-1.4892,0.0,0.0,0.0,0.0,-2.1164,-2.3786,-2.4772,-2.5344,-2.6309,-2.6058,-2.5432,-2.4752,-2.3927,-2.3364,-2.3188,-2.315,-2.301,-2.2612,-2.32,-2.3534,-2.308,-2.2954,-2.3052,-2.3258,-2.3753,0.0,0.0,0.0,-2.3305,-2.3826,-2.3781,-2.3783,-2.391,-2.4485,-2.4909,-2.5021,-2.6014,-2.6721,-2.7255,-2.7473,-2.7505,-2.728,-2.7782,-2.764,-2.691,-2.6006,-2.5098,-2.4197,-2.3815,-2.3927,-2.4312,-2.4439,-2.4754,-2.5269,-2.5763,-2.6095,-2.6454,-2.7469,-2.7046,-2.5879,0.0,0.0,0.0,0.0,0.0,0.0,0.0,0.0,0.0,0.0,0.0,0.0,0.0,0.0,0.0,0.0,0.0,0.0,0.0,0.0,0.0,0.0,0.0,0.0,0.0,0.0,0.0,0.0,0.0,0.0,0.0,0.0,0.0,0.0,0.0,0.0,0.0,0.0,0.0,0.0,0.0,0.0,-2.0644,-2.0039,-1.9221,0.0,0.0,0.0,0.0,0.0,0.0,0.0,0.0,0.0,0.0,0.0,0.0,0.0,0.0,-2.2974,-2.4523,-2.6388,-2.7033,-2.7306,-2.7403,-2.6316,-2.5059,-2.4117,-2.2809,-2.1765,-2.144,-2.1113,-2.1091,-2.1451,-2.1969,-2.2587,-2.3349,-2.349,-2.374,-2.4099,-2.4912,-2.5308,0.0,0.0,0.0,-2.5003,-2.5123,-2.5222,-2.537,-2.5928,-2.6222,-2.6133,-2.6856,-2.7336,-2.7575,-2.7625,-2.7625,-2.761,-2.7845,-2.7674,-2.7042,-2.6314,-2.561,-2.4941,-2.4618,-2.4484,-2.4484,-2.4844,-2.529,-2.5847,-2.6547,-2.6953,-2.7358,-2.8583,-2.8366,-2.7402,0.0,0.0,0.0,0.0,0.0,0.0,0.0,0.0,0.0,0.0,0.0,0.0,0.0,0.0,0.0,0.0,0.0,0.0,0.0,0.0,0.0,0.0,0.0,0.0,0.0,0.0,0.0,0.0,0.0,0.0,0.0,0.0,0.0,0.0,0.0,0.0,0.0,0.0,0.0,0.0,0.0,0.0,-1.815,-1.8078,0.0,0.0,0.0,0.0,0.0,0.0,0.0,0.0,0.0,0.0,0.0,0.0,0.0,-2.1549,-2.4159,-2.626,-2.7903,-2.8809,-2.8862,-2.8503,-2.7802,-2.6103,-2.423,-2.2598,-2.1589,-2.0734,0.0,0.0,-1.8804,-1.9627,-1.947,-2.0266,-2.3029,-2.2989,-2.3441,0.0,0.0,0.0,0.0,0.0,0.0,-2.6663,-2.7065,-2.7357,-2.7329,-2.8068,-2.8165,-2.7573,-2.8252,-2.8338,-2.773,-2.7685,-2.767,-2.7705,-2.7546,-2.7224,-2.6684,-2.5906,-2.5572,-2.5615,-2.4956,-2.4627,-2.4627,-2.4627,-2.497,-2.5505,-2.6148,-2.7113,-2.819,-2.8858,-2.9042,-2.889,0.0,0.0,0.0,0.0,0.0,0.0,0.0,0.0,0.0,0.0,0.0,0.0,0.0,0.0,0.0,0.0,0.0,0.0,0.0,0.0,0.0,0.0,0.0,0.0,0.0,0.0,0.0,0.0,0.0,0.0,0.0,0.0,0.0,0.0,0.0,0.0,0.0,0.0,0.0,0.0,0.0,0.0,-1.6093,0.0,0.0,0.0,0.0,0.0,0.0,0.0,0.0,0.0,0.0,0.0,-1.8634,0.0,0.0,-2.4193,-2.6682,-2.8725,-3.0021,-2.947,-2.8997,-2.8381,-2.7101,-2.4823,-2.2711,-2.187,-2.0135,-1.8536,0.0,0.0,0.0,-1.9971,-2.1172,0.0,-2.4711,-2.5289,0.0,-2.6505,0.0,-2.7616,-2.7794,-2.8943,0.0,0.0,-2.855,-2.8008,-2.8126,-2.8742,-2.8771,-2.8194,-2.8956,-2.925,-2.9071,-2.8577,-2.8565,-2.9024,-2.8936,-2.8606,-2.7994,-2.7756,-2.7145,-2.6303,-2.5644,-2.536,-2.536,-2.536,-2.5652,-2.6249,-2.7402,-2.7948,-2.8322,-3.0,-2.9922,-2.9042,0.0,0.0,0.0,0.0,0.0,0.0,0.0,0.0,0.0,0.0,0.0,0.0,0.0,0.0,0.0,0.0,0.0,0.0,0.0,0.0,0.0,0.0,0.0,0.0,0.0,0.0,0.0,0.0,0.0,0.0,0.0,0.0,0.0,0.0,0.0,0.0,0.0,0.0,0.0,0.0,0.0,0.0,0.0,0.0,0.0,0.0,0.0,0.0,0.0,0.0,0.0,-1.8499,-1.8697,-1.9552,-2.0885,-2.2979,0.0,-2.6726,-2.8942,-3.0991,-3.2154,-3.0654,-2.9818,-2.8691,-2.6453,-2.4073,-2.1893,-2.0557,-1.8959,0.0,-1.662,-1.6662,-1.7468,0.0,0.0,0.0,-2.4605,-2.5753,-2.6634,0.0,-2.8469,0.0,-2.9995,-3.0586,-3.1076,-3.1375,-3.0324,-2.9695,-2.9752,-3.0089,-2.9987,-2.9312,-2.9733,-2.9864,-2.9579,-2.922,-2.9161,-2.9469,-2.9453,-2.9108,-2.8496,-2.8151,-2.7628,-2.6976,-2.6318,-2.6033,-2.6033,-2.6033,-2.6223,-2.6596,-2.7635,-2.8302,-2.8844,-3.0261,-3.0454,-3.0006,0.0,0.0,0.0,0.0,0.0,0.0,0.0,0.0,0.0,0.0,0.0,0.0,0.0,0.0,0.0,0.0,0.0,0.0,0.0,0.0,0.0,0.0,0.0,0.0,0.0,0.0,0.0,0.0,0.0,0.0,0.0,0.0,0.0,0.0,0.0,0.0,0.0,0.0,0.0,0.0,0.0,0.0,0.0,0.0,0.0,0.0,0.0,0.0,0.0,0.0,-1.9469,-2.0038,-2.0714,-2.1644,-2.3027,-2.5568,-2.7277,-2.8809,-3.0979,-3.2981,-3.3932,-3.1734,-3.0595,-2.9091,-2.5807,-2.3482,-2.1475,-1.9293,0.0,-1.7137,-1.6039,-1.5888,-1.6556,-1.8328,0.0,-2.0913,-2.3852,-2.5413,-2.6924,-2.8786,-2.9876,-3.0906,-3.2231,-3.1929,-3.1898,-3.2482,-3.1988,-3.1571,-3.1482,-3.1482,-3.1255,-3.0657,-3.0642,-3.0387,-2.9849,-2.9744,-2.9713,-2.9608,-2.9707,-2.935,-2.8635,-2.814,-2.7825,-2.773,-2.7006,-2.6722,-2.6722,-2.6811,-2.6856,-2.6905,-2.761,-2.8636,-2.9769,-3.0359,-3.0891,-3.1343,0.0,0.0,0.0,0.0,0.0,0.0,0.0,0.0,0.0,0.0,-1.1491,-1.1468,0.0,0.0,0.0,0.0,0.0,0.0,0.0,0.0,0.0,0.0,0.0,0.0,0.0,0.0,0.0,0.0,0.0,0.0,0.0,0.0,0.0,0.0,0.0,0.0,0.0,0.0,0.0,0.0,0.0,0.0,0.0,0.0,0.0,0.0,0.0,0.0,0.0,0.0,-2.008,-2.0653,-2.1686,-2.2799,-2.4315,-2.7561,-2.8573,-2.9386,-3.2957,-3.3994,-3.3633,-3.1551,-3.021,-2.8532,-2.5032,-2.2526,0.0,0.0,-1.8213,-1.6899,-1.6651,-1.6481,-1.7002,-1.8843,-2.017,-2.2053,-2.5292,-2.6301,-2.7732,0.0,-3.0936,-3.1631,-3.3149,-3.2736,0.0,0.0,-3.2407,-3.2108,-3.1497,-3.1482,-3.1422,-3.1302,-3.136,-3.13,-3.1195,-3.0627,-3.0325,-3.032,-3.0874,-3.0511,-2.9348,-2.9753,-2.9403,-2.8382,-2.7694,0.0,-2.744,-2.8008,-2.8248,-2.8344,-2.9511,-3.0443,-3.1213,-3.1802,-3.2074,-3.2087,0.0,0.0,0.0,0.0,0.0,0.0,0.0,-1.1485,-1.1358,-1.1632,-1.1428,-1.1529,-1.2063,-1.1696,-1.1689,0.0,0.0,0.0,0.0,0.0,0.0,0.0,0.0,0.0,0.0,0.0,0.0,0.0,0.0,0.0,0.0,0.0,0.0,0.0,0.0,0.0,0.0,0.0,0.0,0.0,0.0,0.0,0.0,0.0,0.0,0.0,0.0,0.0,0.0,0.0,-2.0402,-2.0851,-2.2325,-2.3564,-2.4925,-2.7611,-2.8518,-2.9308,-3.2188,-3.3118,-3.2807,-3.076,-2.9374,-2.7695,-2.4277,0.0,0.0,0.0,-1.7605,-1.6524,-1.6137,-1.6605,0.0,-1.8688,-2.006,-2.2038,-2.5195,-2.6243,-2.7815,-3.0869,-3.1623,-3.2416,-3.3903,-3.341,-3.317,-3.3499,-3.3215,-3.2587,-3.1526,-3.1482,-3.1631,-3.2033,-3.1661,-3.1482,-3.1482,-3.121,-3.1006,-3.0985,-3.1684,-3.1336,-3.0061,-3.0688,-3.0125,-2.8577,-2.8248,-2.8113,-2.8128,-2.8472,-2.8801,-2.9199,-2.9788,-3.0627,-3.1486,-3.1368,-3.2012,-3.2814,0.0,0.0,0.0,0.0,0.0,0.0,0.0,-1.1744,-1.136,-1.185,-1.1832,-1.187,-1.2184,-1.1673,-1.1603,0.0,0.0,0.0,0.0,0.0,0.0,0.0,0.0,0.0,0.0,0.0,0.0,0.0,0.0,0.0,0.0,0.0,0.0,0.0,0.0,0.0,0.0,0.0,0.0,0.0,0.0,0.0,0.0,0.0,0.0,0.0,0.0,0.0,0.0,0.0,-2.0599,-2.0868,-2.2439,-2.3638,-2.4861,-2.6959,-2.7934,-2.8844,-3.1034,-3.1926,-3.182,-2.994,-2.8624,-2.6893,-2.359,-2.1518,0.0,0.0,-1.7034,-1.6379,-1.5968,-1.68,-1.7856,0.0,-1.9867,-2.1699,-2.4609,-2.5884,-2.768,0.0,-3.209,0.0,-3.4562,-3.4098,0.0,-3.4442,-3.3858,-3.3036,-3.2003,-3.1958,-3.2198,-3.2706,-3.2078,-3.1676,-3.1676,-3.1541,-3.149,-3.1396,-3.2143,-3.1876,-3.0691,-3.1284,-3.06,-2.8996,-2.8861,-2.8801,-2.8816,-2.8951,-2.931,-2.9789,-2.9939,-3.0819,-3.1854,-3.1278,-3.2085,-3.3322,0.0,0.0,0.0,0.0,0.0,0.0,0.0,-1.2345,-1.2359,-1.2905,-1.2514,-1.2037,-1.1717,-1.2033,-1.2321,0.0,0.0,0.0,0.0,0.0,0.0,0.0,0.0,0.0,0.0,0.0,0.0,0.0,0.0,0.0,0.0,0.0,0.0,0.0,0.0,0.0,0.0,0.0,0.0,0.0,0.0,0.0,0.0,0.0,0.0,0.0,0.0,0.0,0.0,0.0,0.0,-2.0741,-2.1522,-2.2469,-2.3733,-2.6317,0.0,0.0,-3.0964,-3.1585,-3.1037,-2.9812,-2.8319,-2.6267,-2.2861,0.0,0.0,-1.791,-1.7034,-1.6708,-1.7302,-1.7523,-1.8022,-1.9274,0.0,-2.1572,-2.4125,-2.5625,-2.7694,-3.0964,0.0,0.0,-3.528,-3.4786,-3.4412,-3.4472,-3.3858,-3.344,-3.332,-3.332,-3.3335,-3.341,-3.2766,-3.2422,-3.2422,-3.1824,-3.149,-3.1396,-3.2222,-3.216,-3.1303,-3.1508,-3.1121,-3.0298,-2.9744,-2.949,0.0,-3.0103,-3.0357,-3.0477,-3.1106,-3.2167,-3.339,-3.3326,-3.3334,-3.3389,0.0,0.0,0.0,0.0,0.0,0.0,-1.2424,-1.2181,-1.2089,-1.2519,-1.2355,-1.225,-1.2402,-1.2394,-1.2258,-1.2098,0.0,0.0,0.0,0.0,0.0,0.0,0.0,0.0,0.0,0.0,0.0,0.0,0.0,0.0,0.0,0.0,0.0,0.0,0.0,0.0,0.0,0.0,0.0,0.0,0.0,0.0,0.0,0.0,0.0,0.0,0.0,0.0,0.0,0.0,0.0,0.0,-1.9784,-2.0038,0.0,0.0,-2.5603,-2.6358,-2.9118,-2.9797,-2.9625,-2.8843,-2.7695,-2.6023,-2.3257,0.0,-1.9183,-1.8394,-1.7302,-1.6708,-1.7468,-1.7961,-1.8569,0.0,0.0,0.0,-2.4006,-2.4969,-2.6581,-2.981,-3.1796,0.0,0.0,0.0,-3.51,-3.51,-3.4846,-3.4696,-3.4696,-3.3933,-3.3679,-3.4068,-3.3066,-3.2512,-3.2512,-3.1869,-3.1504,-3.1485,-3.2244,-3.2173,-3.147,-3.1967,-3.1588,-3.0492,-3.0238,-3.0133,0.0,-3.0402,-3.0746,-3.115,-3.1377,-3.2351,-3.3486,-3.2588,-3.3023,-3.3931,0.0,0.0,0.0,0.0,0.0,-1.1942,-1.2385,-1.203,-1.184,-1.2238,-1.2112,-1.2157,-1.2532,-1.2167,-1.185,-1.1779,-1.1443,0.0,0.0,0.0,0.0,0.0,0.0,0.0,0.0,0.0,0.0,-1.5944,-1.6321,0.0,0.0,0.0,0.0,0.0,0.0,0.0,0.0,0.0,0.0,0.0,0.0,0.0,0.0,0.0,0.0,0.0,0.0,0.0,0.0,0.0,0.0,0.0,0.0,0.0,0.0,0.0,-2.3629,-2.476,-2.6814,-2.7927,-2.831,-2.7758,-2.6666,-2.5169,0.0,0.0,-1.8714,-1.8437,-1.7357,-1.6821,-1.7743,-1.8328,-1.8947,0.0,0.0,-2.0714,-2.3415,-2.4121,-2.5452,-2.8425,0.0,-3.2302,-3.341,-3.4711,-3.5504,-3.5504,-3.5504,-3.5504,-3.5504,-3.4607,-3.4307,-3.4756,-3.3679,-3.3095,-3.3095,-3.2437,-3.2018,-3.1824,-3.2296,-3.2205,-3.1539,-3.2064,-3.1734,-3.0806,-3.0806,-3.0806,0.0,-3.0806,-3.1091,-3.1524,-3.1739,-3.2571,-3.3489,-3.2385,-3.2945,-3.3981,0.0,0.0,0.0,0.0,0.0,0.0,-1.2512,-1.207,-1.1879,-1.2436,-1.1997,-1.1606,-1.1606,-1.1224,-1.1114,-1.1671,-1.1752,0.0,0.0,0.0,0.0,0.0,0.0,0.0,0.0,0.0,-1.5417,-1.6509,-1.6522,-1.6522,-1.6466,0.0,0.0,0.0,0.0,0.0,0.0,0.0,0.0,0.0,0.0,0.0,0.0,0.0,0.0,0.0,0.0,0.0,0.0,0.0,0.0,0.0,0.0,0.0,0.0,0.0,-2.1412,-2.3401,-2.4544,-2.605,-2.7168,-2.6615,-2.5234,-2.353,0.0,0.0,-1.7644,-1.7633,-1.7034,-1.6922,-1.8447,-1.8715,-1.9119,-2.0457,0.0,0.0,-2.2083,-2.3072,-2.4512,0.0,0.0,-3.1214,-3.3304,-3.4711,-3.5504,-3.5504,-3.5504,0.0,-3.5504,-3.5489,-3.5489,-3.5489,-3.4816,-3.4457,-3.4457,-3.3799,-3.3155,-3.2497,-3.2512,-3.2168,-3.1482,-3.1539,-3.1524,-3.1467,-3.1467,-3.1467,0.0,-3.1467,-3.1467,-3.1582,-3.2327,-3.2986,-3.3604,-3.3484,-3.3456,-3.3305,0.0,0.0,0.0,0.0,0.0,0.0,0.0,-1.1354,-1.129,-1.1377,-1.1239,-1.123,-1.1577,-1.1172,-1.0949,-1.1155,-1.1204,0.0,0.0,0.0,0.0,0.0,0.0,0.0,0.0,0.0,-1.5605,-1.5957,-1.6333,-1.6522,-1.6466,-1.5688,-1.5096,0.0,0.0,0.0,0.0,0.0,0.0,0.0,0.0,0.0,0.0,0.0,0.0,0.0,0.0,0.0,0.0,0.0,0.0,0.0,0.0,0.0,0.0,0.0,0.0,0.0,-2.2799,-2.4054,-2.4996,-2.482,-2.3803,-2.2589,-2.1609,0.0,-1.8501,-1.898,-1.8501,-1.8286,-1.9254,-1.9475,-1.9726,-2.0564,-2.0828,0.0,0.0,0.0,0.0,-2.71,-3.0375,-3.3134,0.0,0.0,-3.5504,-3.5504,-3.5504,-3.5504,-3.5504,-3.5504,-3.5504,-3.5504,-3.4831,-3.4472,-3.4472,-3.3829,-3.338,-3.3185,-3.2736,-3.2407,-3.2183,-3.1676,-3.1482,-3.1482,-3.1482,-3.1482,-3.1482,-3.1482,-3.1482,-3.1582,-3.2327,-3.2986,-3.3556,-3.2961,-3.304,-3.322,0.0,0.0,0.0,0.0,0.0,0.0,0.0,-1.0725,-1.0712,-1.0675,-1.0674,-1.084,-1.1312,-1.0928,-1.0732,-1.0898,-1.0784,0.0,0.0,0.0,0.0,0.0,0.0,0.0,0.0,-1.4865,-1.5379,-1.6007,-1.6132,-1.6308,-1.6466,-1.5644,-1.505,-1.4709,-1.4468,0.0,0.0,0.0,0.0,0.0,0.0,0.0,-1.6879,0.0,0.0,0.0,0.0,0.0,0.0,0.0,0.0,0.0,0.0,0.0,0.0,0.0,0.0,0.0,0.0,-2.2196,-2.31,-2.3314,-2.2673,0.0,0.0,0.0,0.0,-1.9394,-1.9068,-1.8939,-1.9643,-1.9798,-1.9987,-2.0618,-2.0953,0.0,0.0,0.0,0.0,-2.8183,0.0,0.0,0.0,-3.5355,-3.5504,-3.5504,-3.5504,-3.5504,-3.5504,-3.5504,-3.5504,-3.5504,-3.51,-3.4861,-3.4861,-3.4457,-3.4128,-3.3858,-3.32,-3.2751,-3.2497,-3.1839,-3.1482,-3.1482,-3.1482,-3.1482,0.0,-3.1796,-3.191,-3.2007,-3.2986,-3.3582,-3.3859,-3.3086,-3.3198,-3.3592,0.0,0.0,0.0,0.0,0.0,0.0,0.0,-1.0283,-1.0283,-1.0283,-1.0283,-1.043,-1.082,-1.0518,-1.0439,-1.083,0.0,0.0,0.0,0.0,0.0,0.0,0.0,0.0,0.0,-1.4387,-1.4916,-1.6459,-1.6032,-1.6082,-1.6541,-1.538,-1.4834,-1.4708,-1.4197,-1.3988,0.0,0.0,0.0,0.0,0.0,0.0,0.0,0.0,0.0,0.0,0.0,0.0,0.0,0.0,0.0,0.0,0.0,0.0,0.0,0.0,0.0,0.0,0.0,0.0,0.0,0.0,0.0,0.0,0.0,0.0,0.0,0.0,0.0,-1.8955,-1.9745,-1.9861,-2.0049,-2.068,-2.0844,0.0,0.0,-2.3825,0.0,0.0,-3.2298,0.0,-3.4412,-3.51,-3.5504,-3.5504,-3.5504,-3.5504,-3.5504,-3.5504,-3.5489,-3.5429,-3.5429,-3.5459,-3.5504,-3.5504,-3.519,-3.4547,-3.3829,-3.317,-3.2557,-3.1854,-3.1482,-3.1482,-3.1482,-3.1524,-3.164,-3.2327,-3.2641,-3.2788,-3.4087,-3.4576,-3.4506,-3.3765,-3.3914,-3.4286,0.0,0.0,0.0,0.0,0.0,0.0,0.0,0.0,0.0,0.0,-1.0283,-1.0322,-1.042,-1.0342,-1.0322,0.0,0.0,0.0,0.0,0.0,0.0,0.0,0.0,0.0,-1.365,-1.4374,-1.5117,-1.5894,-1.6622,-1.7049,-1.7187,-1.6763,-1.6099,-1.5317,-1.5612,-1.5764,0.0,0.0,0.0,0.0,0.0,0.0,0.0,0.0,0.0,0.0,-1.9369,-1.969,0.0,0.0,0.0,0.0,0.0,0.0,0.0,0.0,-1.6696,0.0,0.0,0.0,0.0,0.0,0.0,0.0,0.0,0.0,0.0,0.0,0.0,0.0,0.0,0.0,0.0,-2.1204,0.0,-2.2857,-2.3785,0.0,0.0,-3.0816,-3.2963,-3.4307,-3.4457,-3.51,-3.5504,-3.5504,-3.5504,-3.5504,-3.5504,-3.5504,-3.5265,-3.4741,-3.4726,-3.4966,-3.5504,-3.5504,-3.5429,-3.525,-3.4068,-3.341,-3.3215,-3.2063,-3.1482,-3.1482,-3.1482,-3.1796,-3.2382,-3.2547,-3.2895,-3.3443,-3.4284,-3.4576,-3.4572,-3.432,-3.4336,-3.4286,0.0,0.0,0.0,0.0,0.0,0.0,0.0,0.0,0.0,0.0,0.0,-1.0283,-1.0283,-1.0283,0.0,0.0,0.0,0.0,0.0,0.0,0.0,0.0,0.0,-1.2527,-1.3269,-1.41,-1.4928,-1.5693,-1.6244,-1.6605,-1.6861,-1.6192,-1.5575,-1.5028,-1.5391,-1.5885,0.0,0.0,0.0,0.0,-1.6522,0.0,0.0,0.0,0.0,0.0,-1.9406,-1.969,0.0,-1.9406,-1.9322,-1.9151,0.0,0.0,0.0,0.0,-1.6879,-1.6944,-1.7265,-1.7758,-1.8267,0.0,0.0,0.0,0.0,0.0,0.0,0.0,0.0,0.0,0.0,0.0,0.0,0.0,-2.2515,0.0,0.0,0.0,-3.0858,-3.2097,-3.3565,-3.4607,0.0,-3.5295,-3.5504,-3.5504,-3.5504,-3.5504,-3.5504,-3.5205,-3.4861,-3.4487,-3.4188,-3.4203,-3.4577,-3.4577,-3.4577,-3.4577,-3.3544,-3.3036,-3.3006,-3.2322,-3.1796,-3.1539,-3.2201,-3.2532,-3.2641,-3.3235,-3.3735,-3.4137,-3.48,-3.5052,-3.5015,-3.4627,-3.4709,-3.4844,0.0,0.0,0.0,0.0,0.0,0.0,0.0,0.0,0.0,0.0,0.0,0.0,0.0,0.0,0.0,0.0,0.0,0.0,0.0,0.0,0.0,0.0,0.0,-1.227,-1.3269,-1.3902,-1.4714,-1.5693,-1.5732,-1.5974,-1.6397,-1.5252,-1.465,-1.4567,-1.4771,-1.5478,0.0,0.0,-1.6522,0.0,-1.6522,0.0,0.0,0.0,0.0,0.0,0.0,0.0,0.0,-1.9043,-1.9161,-1.9268,-1.8297,0.0,0.0,0.0,0.0,0.0,-1.7549,-1.8072,-1.8639,-1.8808,0.0,0.0,0.0,0.0,0.0,0.0,0.0,0.0,0.0,-1.9999,0.0,0.0,0.0,0.0,-2.9317,-3.0539,-3.1643,-3.3304,-3.4158,0.0,-3.5295,-3.5444,-3.5504,-3.5504,-3.5504,-3.5504,-3.5504,-3.4846,-3.4427,-3.4322,-3.3694,-3.3305,-3.32,-3.3395,-3.3499,-3.3484,-3.2826,-3.2512,-3.2497,-3.2466,-3.216,-3.1739,-3.2933,0.0,-3.2986,-3.4023,-3.4475,-3.4601,-3.5076,-3.5351,-3.5368,-3.4726,-3.4979,-3.5504,0.0,0.0,0.0,0.0,0.0,0.0,0.0,0.0,0.0,0.0,0.0,0.0,0.0,0.0,0.0,0.0,0.0,0.0,0.0,0.0,0.0,-1.1725,-1.1773,-1.227,-1.3269,-1.4273,-1.5104,-1.5693,-1.6788,-1.7208,-1.6965,-1.6438,-1.5797,-1.5152,-1.536,-1.5864,-1.6522,-1.6522,-1.6522,-1.6522,-1.6522,0.0,0.0,0.0,0.0,0.0,0.0,0.0,0.0,-1.893,-1.863,-1.823,-1.7612,0.0,0.0,0.0,0.0,0.0,-1.872,-1.9629,-2.0134,-1.8602,-1.8362,0.0,0.0,0.0,0.0,0.0,0.0,0.0,0.0,-2.0916,-2.1594,0.0,0.0,-2.9156,0.0,0.0,-3.3764,-3.3544,0.0,-3.516,-3.4681,-3.516,-3.5504,-3.5504,-3.5504,-3.5504,-3.5504,-3.4846,-3.4218,-3.3664,-3.3006,-3.2392,-3.1839,-3.2946,-3.3499,-3.3484,-3.2826,-3.2512,-3.2497,-3.194,-3.1951,-3.2437,0.0,-3.3339,-3.4235,-3.3839,-3.3981,-3.4442,-3.3938,-3.4117,-3.4658,-3.4539,-3.4979,-3.5504,0.0,0.0,0.0,0.0,0.0,0.0,0.0,0.0,0.0,0.0,0.0,0.0,0.0,0.0,0.0,0.0,0.0,0.0,0.0,0.0,0.0,-1.2217,-1.2251,-1.2697,-1.3712,-1.5064,-1.5881,-1.6132,-1.6867,-1.7094,-1.6917,-1.5753,-1.5133,-1.4976,-1.5063,-1.5644,-1.6522,-1.6522,-1.6522,-1.6522,0.0,0.0,0.0,0.0,0.0,0.0,0.0,0.0,0.0,0.0,-1.8085,-1.7986,-1.7138,0.0,0.0,0.0,0.0,0.0,-1.8827,-1.9625,-1.995,-1.8832,0.0,-1.9926,0.0,0.0,0.0,0.0,0.0,0.0,0.0,0.0,-2.2808,-2.5468,0.0,-3.0763,-3.2606,-3.3476,-3.3963,0.0,0.0,-3.4966,-3.5026,-3.5325,-3.5504,-3.5504,-3.5504,-3.5504,-3.5504,-3.4517,-3.3799,-3.3499,-3.2512,-3.1839,-3.1482,-3.2138,-3.2437,-3.2437,-3.2138,-3.1988,-3.1973,-3.245,-3.2625,-3.2641,0.0,-3.435,-3.4574,-3.4205,-3.4208,-3.4455,-3.4134,-3.4201,-3.4539,-3.4945,-3.5318,-3.5504,0.0,0.0,0.0,0.0,0.0,0.0,0.0,0.0,0.0,0.0,0.0,0.0,0.0,0.0,0.0,0.0,0.0,0.0,0.0,0.0,-1.1134,-1.2656,-1.2849,-1.342,-1.445,-1.5662,-1.6361,-1.6448,-1.6635,-1.6629,-1.631,-1.4996,-1.4505,-1.4698,-1.4983,-1.5656,-1.6522,-1.6522,-1.6522,-1.6522,0.0,0.0,0.0,0.0,0.0,0.0,0.0,0.0,0.0,0.0,0.0,0.0,0.0,0.0,0.0,-1.7338,-1.7751,-1.8276,-1.8962,-1.9557,-1.9821,-1.9281,0.0,-2.1233,-2.0346,0.0,0.0,0.0,0.0,0.0,0.0,-2.268,0.0,-2.8214,-3.0079,-3.1772,-3.3716,-3.3963,-3.4158,-3.4651,-3.4711,-3.4921,-3.5459,-3.5504,-3.5429,-3.528,-3.5265,-3.519,-3.504,-3.3918,-3.326,-3.326,-3.2138,-3.1482,-3.1482,-3.1482,-3.1482,-3.1482,-3.1482,-3.1582,-3.1796,-3.2879,-3.3156,-3.2909,-3.4457,-3.481,-3.4283,-3.4095,-3.3964,-3.3964,-3.3964,-3.4184,-3.459,-3.5351,-3.5622,-3.5537,0.0,0.0,0.0,0.0,0.0,0.0,0.0,0.0,0.0,0.0,0.0,0.0,0.0,0.0,0.0,0.0,0.0,0.0,0.0,0.0,-1.1516,-1.2973,-1.3652,-1.4491,-1.5549,-1.5706,-1.596,-1.6314,-1.6503,-1.6041,-1.4923,-1.5126,-1.5012,-1.4744,-1.5876,-1.6423,-1.6522,-1.6522,-1.6522,-1.6522,-1.6522,0.0,0.0,0.0,0.0,0.0,0.0,0.0,0.0,0.0,0.0,0.0,0.0,0.0,-1.6685,0.0,-1.7834,-1.8524,-1.9551,-2.0288,-2.0647,-2.0013,-2.0344,0.0,-2.0624,-2.1419,0.0,-2.29,0.0,0.0,0.0,-2.4811,-2.6998,-2.982,-3.1291,-3.2832,-3.5046,0.0,-3.537,-3.5429,-3.5429,-3.5444,-3.5504,-3.5504,-3.5235,-3.4607,-3.4547,-3.4277,-3.3679,-3.2961,-3.2587,-3.2587,-3.1898,-3.1482,-3.1482,-3.1482,-3.1482,-3.1482,-3.1482,-3.1853,-3.2532,-3.2641,-3.2938,-3.3463,-3.3604,-3.3578,-3.3406,-3.2747,-3.2483,-3.2483,-3.2483,-3.3271,-3.459,-3.5351,-3.5622,-3.556,0.0,0.0,0.0,0.0,0.0,0.0,0.0,0.0,0.0,0.0,0.0,0.0,0.0,0.0,0.0,0.0,0.0,0.0,0.0,-1.0908,-1.1745,-1.362,-1.3981,-1.4563,-1.5605,-1.6374,-1.6613,-1.6338,-1.5947,-1.5154,-1.3984,-1.4145,-1.4365,-1.4709,-1.5164,-1.5788,-1.6522,-1.6522,-1.6522,-1.6522,-1.6522,-1.6522,0.0,0.0,0.0,0.0,0.0,0.0,0.0,0.0,-1.668,0.0,0.0,0.0,0.0,0.0,0.0,-1.7916,-1.8973,-1.9475,-1.96,-1.9321,0.0,0.0,0.0,-2.214,-2.3093,-2.3645,-2.3806,0.0,0.0,0.0,-2.8061,-3.0021,-3.1665,-3.3274,-3.4658,-3.5235,-3.5504,-3.5504,-3.5504,-3.5504,-3.5504,-3.5504,-3.54,-3.513,-3.4726,-3.4367,-3.4128,-3.3095,-3.2512,-3.2512,-3.1465,-3.0896,-3.0896,-3.0896,-3.0896,-3.0896,-3.133,-3.164,-3.1951,-3.2826,-3.3351,-3.3566,-3.3968,-3.437,-3.4692,-3.3474,-3.3237,-3.366,-3.366,-3.4286,-3.5233,-3.552,-3.5622,-3.5622,0.0,0.0,0.0,0.0,0.0,0.0,0.0,0.0,0.0,0.0,0.0,0.0,0.0,0.0,0.0,0.0,0.0,0.0,-1.078,-1.0932,-1.1796,-1.3647,-1.3904,-1.4306,-1.5039,-1.6013,-1.6276,-1.5785,-1.5006,-1.4276,-1.3506,-1.3551,-1.407,-1.4968,-1.4949,-1.565,-1.6773,-1.6597,-1.6522,-1.6522,-1.6522,-1.6522,0.0,0.0,0.0,0.0,0.0,0.0,0.0,0.0,0.0,0.0,0.0,0.0,0.0,0.0,0.0,-1.7238,-1.8165,-1.8533,-1.8725,0.0,0.0,0.0,0.0,-2.2871,-2.3785,-2.4654,-2.5303,0.0,-2.6837,0.0,0.0,0.0,-3.2232,-3.3504,-3.4379,-3.4876,-3.51,-3.4891,-3.4876,-3.4876,-3.4876,-3.4876,-3.4786,-3.4577,-3.4128,-3.3769,-3.3559,-3.2691,-3.2108,-3.1884,-3.0986,-3.0417,-3.0223,-3.0223,-3.0313,-3.0507,-3.0986,-3.1429,-3.1894,-3.2607,-3.3048,-3.3258,-3.3682,-3.4112,-3.4506,-3.3728,-3.3829,-3.4489,-3.4489,-3.4962,-3.5622,-3.5622,-3.5622,-3.5622,0.0,0.0,0.0,0.0,0.0,0.0,0.0,0.0,0.0,0.0,0.0,0.0,0.0,0.0,0.0,0.0,0.0,0.0,-1.0677,-1.1067,-1.1713,-1.2861,-1.3457,-1.3815,-1.3815,-1.4376,-1.4606,-1.439,-1.3781,-1.3496,-1.3486,-1.3721,-1.4402,-1.5499,-1.5554,-1.6268,-1.7338,-1.676,-1.6522,-1.6522,-1.6522,-1.6522,-1.6522,0.0,0.0,0.0,0.0,0.0,0.0,0.0,0.0,0.0,0.0,0.0,0.0,0.0,-1.6522,-1.6637,-1.7146,-1.7761,0.0,0.0,0.0,0.0,-2.2978,-2.3795,-2.4567,-2.619,0.0,-2.8097,-2.9216,-2.951,0.0,-3.2183,-3.3051,-3.3709,-3.4367,-3.4472,-3.4218,-3.3574,-3.3499,-3.3499,-3.3499,-3.3499,-3.3215,-3.2572,-3.2512,-3.2228,-3.1526,-3.1482,-3.121,-3.0522,-3.0492,-3.0193,-2.9579,-2.9564,-2.9879,-3.0477,-3.0492,-3.1228,-3.2571,-3.1889,-3.1908,-3.2393,-3.2467,-3.2407,-3.2381,-3.3102,-3.3846,-3.4506,-3.4489,-3.4962,-3.5622,-3.5622,-3.5622,-3.5622,0.0,0.0,0.0,0.0,0.0,0.0,0.0,0.0,0.0,0.0,0.0,0.0,0.0,0.0,0.0,0.0,0.0,0.0,-1.0974,-1.1174,-1.1884,-1.3484,-1.3684,-1.3815,-1.3815,-1.3563,-1.3625,-1.3978,-1.339,-1.3066,-1.3116,-1.3934,-1.4579,-1.498,-1.581,-1.6402,-1.676,-1.6584,-1.6522,-1.6522,-1.6522,-1.6522,-1.6522,0.0,0.0,0.0,0.0,0.0,0.0,0.0,0.0,0.0,0.0,0.0,0.0,-1.6522,-1.6522,-1.6637,-1.7146,0.0,0.0,-1.9371,0.0,0.0,0.0,-2.4482,0.0,0.0,-2.8146,-2.8453,-2.9159,-2.9822,0.0,-3.1001,-3.2063,-3.2871,-3.3066,-3.3499,-3.3709,-3.3514,-3.3499,-3.3499,-3.3499,-3.3499,-3.341,-3.3215,-3.2781,-3.2422,-3.2228,-3.133,-3.0717,-3.0507,-2.9639,-2.9086,-2.8891,-2.8891,-2.8981,-2.9175,-3.0073,-3.0964,-3.1838,-3.2676,-3.2809,-3.2531,-3.2923,-3.3085,-3.3085,-3.3322,-3.415,-3.5233,-3.4692,-3.4962,-3.5622,-3.5622,-3.5622,-3.5622,0.0,0.0,0.0,0.0,0.0,0.0,0.0,0.0,0.0,0.0,0.0,0.0,0.0,0.0,0.0,0.0,0.0,0.0,0.0,-1.0845,-1.161,-1.2928,-1.3304,-1.342,-1.342,-1.3113,-1.3055,-1.342,-1.3055,-1.2881,-1.2939,-1.3608,-1.4446,-1.5398,-1.5857,-1.6464,-1.7174,-1.6961,-1.6722,-1.6522,-1.6522,-1.6522,-1.6522,0.0,0.0,0.0,0.0,0.0,0.0,0.0,0.0,0.0,0.0,0.0,0.0,-1.6522,-1.6522,-1.6552,-1.6879,0.0,0.0,-1.9371,-2.0509,-2.2096,-2.4682,0.0,0.0,0.0,0.0,-2.8987,-3.0017,-3.014,0.0,-3.0393,-3.1618,-3.2303,-3.1708,-3.2273,-3.2527,-3.2003,-3.1943,-3.1943,-3.1943,-3.1943,-3.1943,-3.1943,-3.1569,-3.1345,-3.1345,-3.0582,-3.0013,-2.9759,-2.8996,-2.8472,-2.8188,-2.8188,-2.8323,-2.8607,-2.9385,-3.0103,-3.0746,-3.1605,-3.188,-3.1694,-3.259,-3.2976,-3.3074,-3.3305,-3.41,-3.5131,-3.4675,-3.4962,-3.5622,-3.5622,-3.5622,-3.5622,0.0,0.0,0.0,0.0,0.0,0.0,0.0,0.0,0.0,0.0,0.0,0.0,0.0,0.0,0.0,0.0,0.0,0.0,0.0,0.0,-1.1015,-1.1665,-1.2403,-1.2832,-1.2881,-1.2881,-1.2881,-1.2881,-1.2881,-1.2881,-1.2881,-1.3056,-1.4216,-1.621,-1.5785,-1.6468,-1.7997,-1.7389,-1.691,-1.6522,-1.6423,-1.6466,-1.6522,-1.6522,0.0,0.0,0.0,0.0,0.0,0.0,0.0,0.0,0.0,0.0,-1.6522,-1.6522,-1.6522,-1.6522,0.0,0.0,0.0,-1.9017,-2.105,0.0,-2.5954,-2.7808,-2.9414,-3.0715,0.0,-2.9595,-3.1053,-3.0387,-2.9733,-3.0087,-3.1279,-3.1649,-3.0228,-3.072,-3.0783,-2.966,-2.9579,-2.9579,-2.9579,-2.9579,-2.9579,-2.9579,-2.9579,-2.9579,-2.9579,-2.952,-2.922,-2.8622,-2.8547,-2.8203,-2.7625,-2.7625,-2.7889,-2.8502,-2.8562,-2.8891,-2.94,-2.9627,-2.9981,-3.0539,-3.1658,-3.2286,-3.2531,-3.2992,-3.3677,-3.4387,-3.432,-3.4759,-3.5436,-3.5504,-3.552,-3.552,0.0,0.0,0.0,0.0,0.0,0.0,0.0,0.0,0.0,0.0,0.0,0.0,0.0,0.0,0.0,0.0,0.0,0.0,0.0,0.0,-1.0312,-1.0965,-1.1674,-1.2295,-1.2881,-1.2881,-1.2881,-1.2881,-1.2881,-1.2881,-1.2939,-1.4302,-1.4909,-1.4896,-1.5795,-1.6397,-1.6657,-1.5695,-1.5763,-1.6479,-1.5996,-1.6095,-1.6522,-1.6522,-1.6522,0.0,0.0,0.0,0.0,0.0,0.0,0.0,-1.6522,-1.6522,-1.6522,-1.6522,-1.6522,0.0,0.0,-1.761,0.0,0.0,-2.2381,-2.5217,-2.6189,-2.7995,-2.9407,-2.9203,-2.9322,-2.9599,-2.9913,-2.9774,-2.9421,-2.8885,-2.9044,-2.8958,-2.8043,-2.8569,-2.8955,-2.8679,-2.9208,-2.9579,-2.9579,-2.9579,-2.9579,-2.9579,-2.9579,-2.9579,-2.9579,-2.9086,-2.8742,-2.8607,-2.8068,-2.7775,-2.7625,-2.7625,-2.7649,-2.7799,-2.8338,-2.8382,-2.809,-2.9653,-3.0669,-3.1183,-3.0856,-3.1333,-3.2294,-3.1861,-3.2442,-3.3575,-3.2983,-3.322,-3.3947,-3.4523,-3.4742,-3.481,0.0,0.0,0.0,0.0,0.0,0.0,0.0,0.0,0.0,0.0,0.0,0.0,0.0,0.0,0.0,0.0,0.0,0.0,0.0,0.0,-1.0115,-1.0762,-1.1466,-1.1972,-1.2344,-1.2725,-1.2881,-1.2881,-1.2881,-1.2881,-1.2939,-1.381,-1.4359,-1.4549,-1.5222,-1.5665,-1.5867,-1.531,-1.5292,-1.5656,-1.5599,-1.5776,-1.6095,-1.638,-1.6522,-1.6522,-1.6522,0.0,0.0,0.0,0.0,0.0,0.0,0.0,-1.6522,-1.6522,-1.6522,0.0,0.0,0.0,0.0,0.0,0.0,-2.3927,-2.4884,-2.5952,-2.6654,-2.6307,-2.7515,-2.8571,-2.8571,-2.8298,-2.781,-2.6984,-2.7381,-2.7639,-2.6895,-2.7442,-2.7972,-2.7993,-2.8381,-2.8622,-2.8622,-2.8622,-2.8622,-2.8622,-2.8622,-2.8622,-2.8622,-2.8293,-2.8113,-2.8113,-2.7754,-2.7625,-2.7625,-2.7625,-2.7625,-2.7625,-2.7934,-2.7919,-2.764,-2.8993,-2.9592,-2.9626,-3.0098,-3.0549,-3.0922,-3.1127,-3.185,-3.2831,-3.2442,-3.2747,-3.3457,-3.3829,-3.3964,-3.4083,0.0,0.0,0.0,0.0,0.0,0.0,0.0,0.0,0.0,0.0,0.0,0.0,0.0,0.0,0.0,0.0,0.0,0.0,0.0,0.0,0.0,-1.061,-1.1166,-1.1566,-1.1814,-1.2393,-1.2774,-1.2881,-1.2881,-1.2881,-1.2881,-1.3017,-1.3518,-1.4411,-1.4426,-1.4769,-1.5282,-1.5108,-1.4937,-1.4744,-1.5141,-1.5353,-1.5499,-1.6008,-1.6238,-1.6324,-1.6324,-1.6423,-1.6522,-1.6522,0.0,0.0,0.0,0.0,-1.6522,-1.6522,0.0,0.0,0.0,0.0,0.0,0.0,-2.104,0.0,-2.3104,-2.3492,-2.3626,-2.3715,-2.5554,-2.7115,-2.7006,-2.6581,-2.5972,-2.5124,-2.6018,-2.6524,-2.5775,-2.6526,-2.7108,-2.7054,-2.727,-2.7445,-2.7445,-2.7445,-2.7505,-2.761,-2.7505,-2.7445,-2.7445,-2.734,-2.723,-2.723,-2.7385,-2.735,-2.728,-2.735,-2.7445,-2.7445,-2.7445,-2.7445,-2.7445,-2.7801,-2.7926,-2.786,-2.9345,-2.9761,-2.9496,-3.0477,-3.123,-3.1808,-3.1907,-3.2336,-3.2892,-3.3111,-3.322,-3.3339,0.0,0.0,0.0,0.0,0.0,0.0,0.0,0.0,0.0,0.0,0.0,0.0,0.0,0.0,0.0,0.0,0.0,0.0,0.0,0.0,0.0,-0.9865,-1.0012,-1.061,-1.1765,-1.1913,-1.2236,-1.2881,-1.2881,0.0,0.0,0.0,-1.3654,-1.3629,-1.381,-1.4131,-1.4468,-1.3626,-1.3805,-1.4652,-1.4236,-1.4376,-1.4835,-1.4926,-1.5276,-1.572,-1.572,-1.6051,-1.6522,-1.6522,-1.6522,0.0,0.0,0.0,-1.6522,-1.6522,0.0,0.0,0.0,0.0,0.0,0.0,0.0,-2.1259,0.0,0.0,-2.3715,0.0,-2.4793,-2.5606,-2.5029,-2.5259,-2.5298,-2.4514,-2.458,-2.4478,-2.3755,-2.4845,-2.5474,-2.4969,-2.5992,-2.6722,-2.6722,-2.6722,-2.6961,-2.758,-2.7036,-2.6722,-2.6722,-2.6183,-2.5869,-2.5869,-2.6422,-2.6437,-2.5869,-2.6437,-2.6722,-2.6722,-2.6722,-2.6722,-2.6707,-2.6219,-2.6851,-2.8367,-2.8654,-2.9012,-2.9406,-2.9585,-2.9677,-2.9863,-3.034,-3.0634,-3.0841,-3.2008,-3.2425,-3.2628,0.0,0.0,0.0,0.0,0.0,0.0,0.0,0.0,0.0,0.0,0.0,0.0,0.0,0.0,0.0,0.0,0.0,0.0,0.0,0.0,0.0,-0.856,-0.8967,-0.9828,-1.1216,-1.1616,-1.2187,-1.2881,-1.2881,0.0,0.0,-1.3152,-1.3252,0.0,0.0,-1.3387,-1.351,-1.3096,-1.32,-1.3705,-1.3779,-1.3956,-1.4283,-1.496,-1.5365,-1.5632,-1.5996,-1.6281,-1.6522,-1.6522,-1.6522,-1.6522,-1.6522,0.0,0.0,0.0,0.0,0.0,0.0,0.0,0.0,0.0,0.0,-1.9494,-1.9739,0.0,-2.1137,-2.1043,-2.2028,-2.2995,-2.3351,-2.3548,-2.3459,-2.2819,-2.2981,-2.3254,-2.3434,-2.3998,-2.4549,-2.5058,-2.5664,-2.6033,-2.6033,-2.6033,-2.6153,-2.6452,-2.6213,-2.6033,-2.6033,-2.5764,-2.5615,-2.5615,-2.5899,-2.5899,-2.5615,-2.5899,-2.6033,-2.6033,-2.6033,-2.6033,-2.6033,-2.5734,-2.6266,-2.7415,-2.7396,-2.7734,-2.8352,-2.8682,-2.9054,-2.9406,-2.9673,-2.9978,-3.0384,-3.0967,-3.1388,-3.1833,0.0,0.0,0.0,0.0,0.0,0.0,0.0,0.0,0.0,0.0,0.0,0.0,0.0,0.0,0.0,0.0,0.0,0.0,0.0,0.0,0.0,-0.767,-0.8178,-0.9207,-1.0762,-1.1266,-1.1981,-1.2881,0.0,0.0,-1.2881,-1.2881,-1.2881,0.0,-1.2881,-1.2881,0.0,0.0,0.0,-1.3152,-1.3637,-1.3909,-1.4097,-1.4858,-1.5309,-1.5676,-1.6095,-1.638,-1.6522,-1.6522,-1.6522,-1.6522,-1.6522,-1.6522,0.0,0.0,0.0,0.0,0.0,0.0,0.0,0.0,0.0,-1.8003,0.0,0.0,-1.8916,0.0,-1.9733,-2.0651,-2.1694,-2.1997,-2.197,-2.1556,-2.1933,-2.2545,-2.3231,-2.3645,-2.412,-2.4997,-2.5255,-2.536,-2.536,-2.536,-2.5435,-2.56,-2.545,-2.536,-2.536,-2.5196,-2.5091,-2.5091,-2.527,-2.527,-2.5091,-2.527,-2.527,-2.5091,-2.527,-2.536,-2.536,-2.5181,-2.5465,-2.6111,-2.6214,-2.6657,-2.7334,-2.7776,-2.832,-2.895,-2.9088,-2.9451,-2.9892,-3.0208,-3.0559,-3.1116,0.0,0.0,0.0,0.0,0.0,0.0,0.0,0.0,0.0,0.0,0.0,0.0,0.0,-1.0364,-0.9938,-0.7877,-0.7074,-0.6367,-0.5597,-0.5542,-0.6195,-0.761,-0.7717,0.0,-1.0762,-1.0813,-1.1534,0.0,0.0,0.0,-1.2881,-1.2881,-1.2881,-1.2881,-1.2881,-1.2881,-1.2929,0.0,0.0,-1.3779,-1.3779,-1.4143,-1.4606,0.0,-1.4584,-1.5588,-1.5632,-1.5996,-1.6522,-1.6522,-1.6522,-1.6522,-1.6522,-1.6522,-1.6522,0.0,0.0,0.0,0.0,0.0,0.0,0.0,0.0,0.0,0.0,0.0,-1.8402,-1.8907,-1.9045,-1.9283,-1.9837,-2.0844,-2.1518,-2.1493,-2.1979,-2.2472,-2.2638,-2.3703,-2.4278,-2.3762,-2.4283,-2.4627,-2.4627,-2.4627,-2.4941,-2.5555,-2.5031,-2.4627,-2.4627,-2.4059,-2.3699,-2.3699,-2.4343,-2.4373,-2.3714,-2.4358,-2.4343,-2.3714,-2.4373,-2.4627,-2.4612,-2.3999,-2.4088,-2.4716,-2.5392,-2.6021,-2.6636,-2.6684,-2.7075,-2.776,-2.8319,-2.8559,-2.8732,-2.9892,-3.0293,-3.0534,0.0,0.0,0.0,0.0,0.0,0.0,0.0,0.0,0.0,0.0,0.0,0.0,0.0,-0.9614,-0.904,-0.783,-0.6578,-0.5601,-0.4893,-0.5273,-0.5923,-0.6966,-0.7859,-0.9103,-1.0762,-1.1216,-1.1931,0.0,0.0,-1.2881,-1.2881,-1.2881,-1.2881,-1.2929,-1.3286,-1.3457,-1.3505,-1.4107,0.0,-1.4376,-1.4376,-1.4514,-1.4698,0.0,0.0,-1.5588,-1.5588,-1.6008,-1.6423,-1.6051,-1.6194,-1.6522,-1.6522,-1.6522,-1.6522,-1.6522,0.0,0.0,0.0,0.0,0.0,0.0,-1.6672,-1.6823,-1.6823,-1.6974,-1.7388,-1.8304,-1.8505,-1.8769,-1.9648,-2.0439,-2.084,-2.0464,-2.121,-2.1914,-2.2028,-2.2776,-2.3245,-2.3068,-2.3228,-2.3374,-2.3374,-2.3374,-2.3658,-2.4253,-2.4103,-2.3969,-2.3969,-2.3729,-2.3595,-2.3595,-2.3834,-2.3849,-2.3595,-2.3849,-2.3849,-2.3595,-2.3849,-2.3969,-2.3969,-2.3714,-2.3729,-2.3984,-2.4223,-2.4941,-2.5959,-2.5959,-2.6602,-2.7625,-2.786,-2.814,-2.8559,-2.9012,-2.9406,-2.9853,0.0,0.0,0.0,0.0,0.0,0.0,0.0,0.0,0.0,0.0,0.0,0.0,0.0,0.0,-0.8738,-0.7777,-0.6578,-0.5655,-0.5226,-0.5382,-0.5923,-0.6912,-0.7859,-0.9006,-1.0415,-1.1116,-1.1674,0.0,0.0,0.0,0.0,-1.2774,-1.2881,-1.2929,-1.3742,-1.4003,0.0,0.0,0.0,-1.5017,-1.5017,-1.5107,-1.5332,-1.5499,-1.5732,-1.5908,-1.5908,-1.6151,-1.6423,-1.6051,-1.6194,-1.6522,-1.6522,-1.6522,-1.6522,-1.6522,0.0,0.0,-1.6522,0.0,0.0,0.0,0.0,-1.6522,-1.6522,0.0,-1.6785,-1.7727,-1.7928,-1.8204,-1.9095,-1.9585,-1.9836,-1.9811,-2.0669,-2.1332,-2.1396,-2.1974,-2.2346,-2.2346,-2.2346,-2.2452,-2.2694,-2.2694,-2.2965,-2.3551,-2.3595,0.0,-2.3595,-2.3595,-2.3595,-2.3595,-2.3595,-2.3595,-2.3595,-2.3595,-2.3595,-2.3595,-2.3595,-2.3595,-2.3595,-2.3595,-2.3595,-2.3595,-2.3595,-2.4238,-2.527,-2.527,-2.5929,-2.6931,-2.7156,-2.7527,-2.7915,-2.8338,-2.8732,-2.9225,0.0,0.0,0.0,0.0,0.0,0.0,0.0,0.0,0.0,-0.8377,0.0,0.0,0.0,0.0,0.0,-0.7824,-0.702,-0.6642,-0.6588,-0.5928,-0.6195,-0.761,-0.7723,-0.8402,-0.9762,-1.0466,-1.0813,0.0,0.0,0.0,0.0,0.0,-1.2881,-1.2978,-1.4154,-1.4376,-1.3909,0.0,-1.5632,-1.5632,-1.5632,-1.5964,-1.6423,-1.5864,-1.6008,-1.6522,-1.6466,-1.6466,-1.6522,-1.6466,-1.6479,-1.6522,-1.6522,-1.6522,-1.6522,0.0,0.0,0.0,0.0,0.0,0.0,0.0,0.0,0.0,-1.6522,0.0,-1.6685,-1.7262,-1.7388,-1.7551,-1.8103,-1.8204,-1.8543,-1.9585,-2.032,-2.0769,-2.0743,-2.1328,-2.1697,-2.1622,-2.1697,-2.1946,-2.2603,-2.2694,-2.292,-2.3508,-2.3551,-2.3551,-2.3551,-2.3551,-2.3595,-2.3595,-2.3595,-2.3595,-2.3595,-2.3595,-2.3595,-2.3595,-2.3595,-2.3595,-2.3595,-2.3595,-2.3595,-2.3595,-2.3595,-2.3984,-2.4552,-2.4567,-2.5016,-2.5674,-2.6318,-2.6557,-2.6729,-2.7994,-2.8432,-2.8622,0.0,0.0,0.0,0.0,0.0,0.0,0.0,0.0,-0.7474,0.0,0.0,0.0,-0.8804,-0.8962,-0.8685,-0.7777,-0.7509,-0.7182,-0.6642,-0.6907,-0.7283,-0.767,-0.8666,-0.9399,-0.9814,-1.0466,-1.0813,0.0,0.0,0.0,0.0,0.0,0.0,0.0,-1.3695,-1.419,-1.4514,-1.5744,0.0,-1.6238,-1.6238,-1.6337,-1.6466,-1.6324,-1.6337,-1.6423,-1.6008,-1.6151,-1.6423,-1.6008,-1.6139,-1.6522,-1.6522,-1.6522,0.0,0.0,0.0,0.0,-1.6522,0.0,0.0,0.0,0.0,0.0,0.0,0.0,-1.6685,-1.7262,-1.7388,-1.7551,-1.8103,-1.8204,-1.8304,-1.8593,-1.9542,-2.0078,-1.9628,-2.0785,-2.1403,-2.0583,-2.1213,-2.1744,-2.1946,-2.2406,-2.2785,0.0,-2.2965,-2.2725,-2.2271,-2.268,-2.3143,-2.361,-2.3595,-2.3595,-2.3595,-2.3595,-2.3595,-2.3595,-2.3595,-2.3595,-2.3595,-2.3595,-2.3595,-2.3595,-2.3595,-2.3714,-2.3924,-2.4373,-2.5016,-2.563,-2.5809,-2.5884,-2.5959,-2.6796,-2.7149,-2.7291,0.0,0.0,0.0,0.0,0.0,0.0,-0.5607,-0.6557,-0.732,0.0,0.0,0.0,-0.9211,-0.8962,-0.8745,-0.8613,-0.8037,-0.767,-0.7509,-0.7616,-0.783,-0.8156,-0.8942,-0.9361,-0.9361,-1.0064,-1.0269,0.0,0.0,0.0,0.0,0.0,0.0,0.0,0.0,0.0,0.0,0.0,0.0,0.0,-1.6522,-1.6522,-1.6522,-1.6522,-1.6522,-1.6423,-1.582,-1.6008,-1.638,-1.5511,-1.5787,-1.6446,-1.6212,-1.6455,-1.6835,0.0,0.0,0.0,0.0,0.0,0.0,0.0,0.0,0.0,-1.6522,-1.6522,-1.6609,-1.6948,-1.7024,-1.7124,-1.7438,-1.7501,-1.7501,-1.7501,-1.8277,-1.8877,-1.876,-1.9785,-2.025,-1.9331,-2.0213,-2.0914,-2.0933,-2.1761,-2.2261,-2.2261,-2.255,-2.2543,-2.2146,-2.2498,-2.2965,-2.3595,-2.3595,-2.3595,-2.3595,-2.3595,-2.3595,-2.3595,-2.3595,-2.3595,-2.3595,-2.3595,-2.3595,-2.3595,-2.3595,-2.3595,-2.3625,-2.4029,-2.4418,-2.4807,-2.5091,-2.5196,-2.527,-2.5944,-2.6363,-2.6729,0.0,0.0,0.0,-0.2881,-0.3849,-0.491,-0.5687,-0.6589,-0.7455,0.0,-0.854,-0.9008,-0.9614,-0.9159,-0.9061,-0.9614,-0.8567,-0.8103,-0.8752,-0.8209,-0.8103,-0.8752,-0.8804,-0.8804,-0.8804,-0.9361,-0.9413,0.0,0.0,0.0,0.0,0.0,0.0,0.0,0.0,0.0,0.0,0.0,0.0,-1.6293,-1.6293,-1.6337,-1.638,-1.6337,-1.6337,-1.6337,-1.5732,-1.582,-1.6151,-1.5062,-1.5349,-1.6148,-1.5641,-1.626,-1.6995,-1.6529,-1.638,0.0,0.0,0.0,0.0,0.0,-1.6572,0.0,-1.6534,-1.6572,-1.6597,-1.6491,-1.6522,-1.6522,-1.6522,-1.6522,-1.6522,-1.6522,-1.6948,-1.7463,-1.794,-1.8543,-1.8731,-1.8179,-1.9033,-1.9761,-1.9825,-2.0867,-2.1469,-2.1425,-2.1965,-2.2395,-2.2589,-2.2603,-2.292,-2.3595,-2.3595,-2.3551,-2.3508,-2.3551,-2.3551,-2.3508,-2.3551,-2.3595,-2.3595,-2.3595,-2.3595,-2.3595,-2.3595,-2.3595,-2.3595,-2.3595,-2.3595,-2.3655,-2.4283,-2.4462,-2.4552,-2.5255,-2.5869,-2.6489,0.0,0.0,0.0,-0.2821,-0.3593,-0.4225,-0.4485,-0.5714,-0.6685,-0.6929,-0.8013,-0.8857,-0.8956,-0.8857,-0.8857,-0.8956,-0.8745,-0.8646,-0.8804,-0.8646,-0.8646,-0.8804,-0.8804,-0.8804,-0.8804,-0.891,-0.8903,-0.8804,0.0,0.0,0.0,0.0,0.0,0.0,0.0,0.0,0.0,0.0,0.0,-1.5062,-1.5062,-1.5332,-1.572,-1.5242,-1.5332,-1.5688,-1.5107,-1.4971,-1.5017,-1.4789,-1.4857,-1.5005,-1.4903,-1.504,-1.5291,-1.5668,-1.5776,0.0,0.0,0.0,0.0,-1.6522,-1.6873,0.0,-1.6622,-1.6886,-1.7087,-1.6609,-1.6522,-1.6522,-1.6522,-1.6522,-1.6522,-1.6522,-1.6609,-1.6722,-1.6835,-1.7727,-1.8166,-1.7601,-1.8578,-1.925,-1.9253,-1.9952,-2.0196,-1.9651,-1.9672,-2.0342,-2.1824,-2.1899,-2.2409,-2.3551,-2.3595,-2.3377,-2.2875,-2.3377,-2.3377,-2.2875,-2.3377,-2.3595,-2.3595,-2.3595,-2.3595,-2.3595,-2.3595,-2.3595,-2.3595,-2.3595,-2.3595,-2.361,-2.3744,-2.3804,-2.3879,-2.4567,-2.4896,-2.5166,0.0,0.0,0.0,-0.3011,-0.3657,-0.4285,-0.4752,-0.5783,-0.6675,-0.7111,-0.8103,-0.891,-0.9263,-0.9008,-0.8956,-0.9263,-0.9008,-0.8804,-0.8804,-0.8804,-0.8804,-0.8804,-0.8804,-0.8804,-0.8804,-0.8804,-0.8956,-0.9309,0.0,0.0,0.0,0.0,0.0,0.0,0.0,0.0,0.0,0.0,-1.3515,-1.3836,-1.4479,-1.488,-1.5096,-1.4835,-1.488,-1.505,-1.4468,-1.4061,-1.3836,-1.4154,-1.4446,-1.4599,-1.4359,-1.4866,-1.5568,-1.557,-1.582,-1.6095,-1.6423,-1.6522,-1.6522,-1.6522,-1.6735,0.0,0.0,-1.6735,-1.6873,-1.6572,-1.6522,-1.6522,-1.6522,-1.6522,-1.6522,-1.6522,-1.6522,-1.6522,-1.6522,-1.725,-1.7589,-1.7024,-1.7937,-1.8544,-1.8239,-1.9039,-1.9555,-1.9479,-1.9192,-1.9672,-2.1148,-2.1268,-2.1731,-2.2637,-2.2995,-2.286,-2.2193,-2.2815,-2.3009,-2.2694,-2.3334,-2.3595,-2.3595,-2.3595,-2.3595,-2.3595,-2.3595,-2.3595,-2.3595,-2.3595,-2.3595,-2.3595,-2.3595,-2.3595,-2.364,-2.3984,-2.4328,-2.4686,0.0,0.0,0.0,0.0,-0.3875,-0.4485,-0.5194,-0.6036,-0.6912,0.0,-0.8427,-0.9008,-0.9562,-0.9113,-0.9008,-0.9562,-0.9106,-0.8804,-0.8804,-0.8804,-0.8804,-0.8804,-0.8804,-0.8857,-0.9008,-0.9008,-0.9309,-1.0012,0.0,0.0,0.0,0.0,0.0,0.0,0.0,0.0,0.0,0.0,0.0,-1.2978,0.0,-1.4433,-1.4514,-1.4387,-1.4433,-1.4468,-1.3826,-1.3334,-1.2988,-1.356,-1.4007,-1.4185,-1.3855,-1.4668,-1.5672,-1.5482,-1.5848,-1.633,-1.6461,-1.6597,-1.666,-1.6547,-1.6609,-1.666,0.0,0.0,0.0,-1.6547,0.0,0.0,0.0,0.0,0.0,-1.6522,0.0,0.0,0.0,-1.6923,0.0,-1.6572,-1.7303,-1.7682,-1.7199,-1.8139,-1.9045,-1.968,-1.9283,-1.9463,-2.0588,-2.0675,-2.0983,-2.1517,-2.2084,-2.2094,-2.152,-2.2161,-2.2452,-2.2314,-2.3098,-2.3421,-2.3421,-2.3551,-2.3595,-2.3595,-2.3595,-2.3595,-2.3595,-2.3595,-2.3595,-2.3595,-2.3595,-2.3595,-2.3595,-2.3595,-2.3954,-2.4448,-0.0944,-0.2266,0.0,0.0,-0.3947,-0.4498,-0.4625,-0.5769,0.0,0.0,0.0,-0.8804,-0.891,-0.8857,-0.8857,-0.891,-0.8857,-0.8804,-0.8804,-0.8804,-0.8804,-0.8804,-0.8804,-0.9061,-0.9658,-0.9666,-1.0012,-1.0669,-1.1366,0.0,0.0,0.0,0.0,0.0,-1.291,0.0,0.0,0.0,-1.2881,0.0,-1.3065,-1.342,0.0,-1.3286,-1.342,-1.3815,-1.3238,-1.2968,-1.2988,-1.3401,-1.3362,-1.3145,-1.3421,-1.3452,-1.3491,-1.449,-1.5198,-1.573,-1.633,-1.6886,-1.7162,-1.6647,-1.6911,-1.7149,-1.6635,0.0,-1.7137,-1.6622,0.0,0.0,0.0,0.0,0.0,0.0,0.0,0.0,-1.6522,-1.6572,-1.6597,-1.6522,-1.6615,-1.667,-1.6607,-1.7128,-1.792,-1.8934,-1.8933,-1.9249,-1.997,-2.0012,-2.0302,-2.0969,-2.1042,-2.1027,-2.0881,-2.1534,-2.1534,-2.1042,-2.2221,-2.2785,-2.283,-2.3377,-2.3595,-2.3595,-2.3595,-2.3595,-2.3595,-2.3595,-2.3595,-2.3595,-2.3595,-2.3595,-2.3595,-2.3595,-2.3655,-2.3804,-0.1619,-0.2287,0.0,0.0,-0.4294,-0.4519,-0.4519,-0.5332,0.0,0.0,0.0,-0.767,-0.8103,-0.8156,-0.8321,-0.8752,-0.8804,-0.8804,-0.8804,-0.8804,-0.8804,-0.8804,-0.9159,-0.951,-0.9814,-1.0167,-1.072,-1.1366,-1.1665,-1.203,0.0,0.0,0.0,0.0,-1.2773,0.0,-1.252,0.0,-1.2881,0.0,0.0,-1.3065,0.0,-1.3017,-1.3065,-1.3238,-1.2968,-1.2881,-1.291,-1.3086,-1.3184,-1.3232,-1.3164,-1.3658,-1.427,-1.4183,-1.4832,-1.5568,-1.5753,-1.5986,-1.6197,-1.6363,-1.6587,-1.6715,-1.656,-1.671,-1.681,-1.6572,0.0,0.0,0.0,0.0,0.0,0.0,-1.6522,0.0,0.0,0.0,-1.6522,-1.6522,0.0,0.0,-1.6522,-1.6993,-1.761,-1.8384,-1.8153,-1.8383,-1.9264,-1.9078,-1.907,-1.9331,-1.9987,-2.0375,-2.0342,-2.1261,-2.1771,-2.1894,-2.2815,-2.3231,-2.3231,-2.3465,-2.3595,-2.3595,-2.3595,-2.3595,-2.3595,-2.3595,-2.3595,-2.3595,-2.3595,-2.3595,-2.3595,-2.3595,-2.3595,-2.364,-0.2063,0.0,0.0,0.0,0.0,-0.457,-0.4732,-0.5164,-0.576,-0.648,-0.6588,-0.6858,-0.7616,-0.7723,-0.7996,-0.8752,-0.8804,-0.8804,-0.8804,-0.8804,-0.8804,-0.8804,-0.9465,-0.9814,-0.9814,-1.0466,-1.1065,-1.1516,-1.1516,-1.1783,0.0,0.0,0.0,0.0,0.0,-1.2705,-1.2432,0.0,-1.2881,-1.2881,-1.2881,-1.2881,-1.2881,-1.2881,-1.2881,-1.2881,-1.2881,-1.2881,-1.29,-1.3018,-1.3184,0.0,-1.3115,-1.3795,-1.4569,-1.4116,-1.4697,-1.5486,-1.5478,-1.557,-1.5822,-1.6197,-1.6279,-1.6335,-1.6473,-1.6522,-1.6522,-1.6522,-1.6522,0.0,0.0,0.0,0.0,0.0,0.0,-1.6522,0.0,-1.6522,0.0,0.0,0.0,0.0,0.0,-1.7076,-1.7504,-1.8066,-1.7747,-1.7814,-1.8439,-1.8173,-1.8004,-1.7999,-1.8814,-1.9527,-1.9985,-2.0847,-2.1558,-2.2175,-2.2965,-2.3275,-2.3069,-2.345,-2.3595,-2.3595,-2.3595,-2.3595,-2.3595,-2.3595,-2.3595,-2.3595,-2.3595,-2.3595,-2.3595,-2.3595,-2.3595,-2.3595,-0.2063,-0.2788,0.0,0.0,0.0,0.0,-0.5378,-0.5483,-0.576,-0.648,-0.6588,-0.6858,-0.7616,-0.7723,-0.7996,-0.8752,-0.8804,-0.8804,-0.8804,-0.8804,-0.8804,-0.8804,-0.9465,-0.9814,-0.9814,-1.0466,-1.0813,-1.0813,-1.0813,-1.0864,0.0,0.0,0.0,0.0,-1.2559,-1.2871,-1.2861,-1.2871,-1.2881,-1.2881,-1.2881,-1.2881,-1.2881,0.0,-1.2881,-1.2881,-1.2881,0.0,0.0,-1.335,-1.3232,0.0,0.0,0.0,0.0,0.0,-1.4784,-1.5348,0.0,0.0,-1.6676,-1.6384,-1.6279,-1.6335,-1.6473,-1.6522,-1.6522,-1.6522,-1.6522,-1.6522,0.0,0.0,0.0,0.0,0.0,0.0,0.0,0.0,0.0,0.0,0.0,0.0,0.0,-1.7312,-1.7504,-1.8066,-1.8066,-1.7867,-1.738,-1.7338,-1.7375,-1.7433,-1.7471,-1.8285,-1.9972,-2.0046,-2.0337,-2.0894,-2.2128,-2.2392,-2.1791,-2.3024,-2.3595,-2.3595,-2.3595,-2.3595,-2.3595,-2.3595,-2.3595,-2.3595,-2.3595,-2.3595,-2.3595,-2.3595,-2.3595,-2.3595,0.0,0.0,0.0,0.0,0.0,0.0,-0.4732,-0.4842,-0.4952,-0.5171,-0.5226,-0.566,-0.6858,-0.6966,-0.745,-0.8699,-0.8804,-0.8804,-0.8804,-0.8804,-0.8804,-0.8804,-0.9465,-0.9814,-0.9814,-1.0466,-1.0813,-1.0813,-1.0813,0.0,0.0,0.0,0.0,0.0,0.0,-1.2881,0.0,0.0,0.0,0.0,0.0,-1.2881,-1.2881,0.0,-1.2881,-1.2881,-1.2881,-1.2881,0.0,-1.3047,-1.3184,-1.3271,-1.3135,-1.3681,-1.4287,-1.3932,-1.4451,-1.5133,0.0,0.0,-1.5664,-1.6439,0.0,0.0,0.0,-1.6798,-1.638,-1.6008,-1.5908,-1.5908,-1.5908,0.0,0.0,0.0,0.0,0.0,0.0,0.0,0.0,0.0,0.0,0.0,0.0,0.0,-1.6993,-1.7544,-1.7229,-1.7105,-1.7312,-1.6951,-1.6769,-1.681,-1.7187,-1.8248,-2.0069,-2.042,-2.1282,-2.2665,-2.3084,-2.3187,-2.298,-2.3406,-2.3595,-2.3595,-2.3595,-2.3595,-2.3595,-2.3595,-2.3595,-2.3595,-2.3595,-2.3595,-2.3595,-2.3595,-2.3595,-2.3595,-0.1006,0.0,0.0,0.0,0.0,-0.3566,-0.4349,-0.4563,-0.458,-0.4525,-0.4567,-0.4964,-0.61,-0.6421,-0.7074,-0.8321,-0.8646,-0.8804,-0.8804,-0.8804,-0.8804,-0.8804,-0.9465,-0.9666,-0.9465,-1.0115,-1.032,-1.0064,-1.0064,-1.0064,0.0,0.0,0.0,0.0,0.0,-1.2881,-1.2881,-1.2881,-1.2881,0.0,0.0,-1.2881,0.0,0.0,-1.2881,-1.2881,0.0,-1.2881,-1.2881,-1.2881,-1.3066,-1.3242,-1.2969,-1.3651,-1.4408,-1.3873,-1.4178,-1.4793,-1.4956,-1.4785,0.0,-1.5924,-1.5949,0.0,-1.6335,0.0,-1.5963,-1.5589,-1.5404,-1.538,-1.5707,0.0,0.0,0.0,0.0,0.0,0.0,-1.6522,0.0,0.0,0.0,0.0,0.0,-1.6293,-1.6312,-1.6659,-1.6398,-1.6343,0.0,-1.6582,-1.6522,-1.6522,-1.6886,-1.7922,-1.9739,-2.0307,-2.1276,-2.2615,-2.3259,-2.3363,-2.2935,-2.3406,-2.3595,-2.3595,-2.3595,-2.3595,-2.3595,-2.3595,-2.3595,-2.3595,-2.3595,-2.3595,-2.3595,-2.3595,-2.3595,-2.367,-0.1062,-0.1062,0.0,0.0,-0.2785,-0.3566,-0.4405,-0.4592,-0.4636,-0.4536,-0.4596,-0.4912,-0.5454,-0.6145,-0.6858,-0.7563,-0.8262,-0.8699,-0.8752,-0.8752,-0.8752,-0.8804,-0.9413,-0.9458,-0.8804,-0.9413,-0.9465,-0.8804,0.0,0.0,0.0,0.0,0.0,0.0,-1.2206,0.0,-1.2832,-1.2881,-1.2881,-1.2832,-1.2832,-1.2832,-1.2774,-1.2832,-1.2832,-1.2774,-1.2832,-1.2822,-1.2774,-1.2832,-1.2822,-1.2832,-1.2881,-1.3164,-1.3533,-1.3931,-1.4058,-1.4262,-1.5127,-1.4756,-1.4237,-1.4924,-1.507,0.0,0.0,0.0,-1.5296,0.0,0.0,-1.4896,-1.5753,0.0,0.0,0.0,0.0,0.0,0.0,0.0,-1.6522,0.0,0.0,0.0,-1.6479,-1.5964,-1.5588,-1.5588,-1.5588,-1.5632,0.0,-1.6194,-1.6522,-1.6522,-1.6522,-1.7362,-1.9128,-1.9767,-2.0392,-2.0941,-2.2747,-2.298,-2.1838,-2.3024,-2.3595,-2.3595,-2.3595,-2.3595,-2.3595,-2.3595,-2.3595,-2.3595,-2.3595,-2.3595,-2.3595,-2.3595,-2.3595,-2.3774,-0.0168,-0.0727,-0.134,0.0,-0.2843,-0.3624,-0.4405,-0.4592,-0.4636,-0.4536,-0.4596,-0.4912,-0.5454,-0.5651,-0.6091,-0.6804,-0.7074,-0.7396,-0.7937,-0.799,-0.8209,-0.8752,-0.8956,-0.8956,-0.8804,-0.8962,-0.8956,-0.8804,-0.8804,0.0,-0.8804,0.0,0.0,0.0,0.0,-1.208,-1.2129,-1.2666,-1.2559,-1.208,-1.208,-1.1783,-1.1375,0.0,-1.1774,-1.1384,-1.1882,-1.1783,-1.1434,-1.1931,-1.1724,-1.1534,-1.2569,-1.2814,-1.2898,-1.3478,-1.3887,-1.4126,-1.435,-1.4253,-1.4281,-1.4997,-1.4891,-1.4726,0.0,0.0,0.0,0.0,0.0,0.0,0.0,0.0,0.0,0.0,0.0,0.0,0.0,0.0,-1.6522,-1.6522,-1.6522,0.0,-1.5864,-1.5676,-1.5588,-1.5588,-1.5588,0.0,0.0,0.0,-1.6522,-1.6522,-1.6522,-1.7557,-1.9822,-1.9989,-2.1054,-2.2893,-2.3375,-2.3406,-2.3128,-2.345,-2.3595,-2.3595,-2.3595,-2.3595,-2.3595,-2.3595,-2.3595,-2.3595,-2.3595,-2.3595,-2.3595,-2.3595,-2.3595,-2.3655,0.0168,-0.0616,-0.1458,-0.2614,-0.3192,-0.3761,-0.4449,-0.4745,-0.483,-0.468,-0.4735,-0.4903,-0.5133,-0.5372,-0.5651,-0.6091,-0.6421,-0.675,-0.7182,-0.7235,-0.7563,-0.8262,-0.8321,-0.848,-0.8804,-0.8804,-0.8804,-0.8804,-0.8804,0.0,-0.8804,0.0,0.0,0.0,0.0,-1.1366,-1.1366,-1.1792,-1.1733,-1.1366,-1.1366,-1.1166,0.0,-1.1216,-1.0965,-1.0415,-1.0813,-1.0864,-1.0864,-1.1266,-1.1116,-1.0973,-1.2089,-1.2434,-1.2611,-1.3301,-1.3672,-1.3896,-1.4029,-1.3867,-1.3726,-1.4297,-1.4206,-1.4072,-1.4317,-1.427,-1.4157,0.0,-1.3677,-1.3626,0.0,0.0,0.0,0.0,0.0,0.0,0.0,-1.6522,-1.6522,-1.6522,-1.6522,-1.6238,-1.5676,-1.5588,-1.5499,-1.5231,-1.5454,0.0,0.0,0.0,-1.6522,-1.6522,-1.676,-1.7648,-1.9225,-2.0029,-2.095,-2.1946,-2.279,-2.3039,-2.2786,-2.3084,-2.3334,-2.3595,-2.3595,-2.3595,-2.358,-2.331,-2.3191,-2.3191,-2.3191,-2.3355,-2.3595,-2.3595,-2.3595,-2.364,0.0284,-0.0623,0.0,0.0,0.0,-0.4033,-0.4631,-0.4965,-0.5074,-0.4911,-0.4908,-0.4853,-0.468,-0.5091,-0.5378,-0.5378,-0.5928,-0.6367,-0.6421,-0.648,-0.6799,-0.7509,-0.7563,-0.7889,-0.8646,-0.8646,-0.8699,-0.8804,-0.8804,0.0,0.0,0.0,0.0,0.0,0.0,0.0,0.0,-1.072,-1.0669,-1.0669,-1.0669,-1.0618,-1.0568,-1.0669,-1.0261,-0.9666,-0.9666,-1.0064,-1.0559,-1.0669,-1.0669,-1.0813,-1.1566,-1.2067,-1.2529,-1.3215,-1.3428,-1.3506,-1.3877,-1.3437,-1.2969,-1.334,-1.3428,-1.333,-1.2969,-1.3164,-1.3437,-1.3496,-1.3174,-1.3232,-1.4404,0.0,0.0,0.0,0.0,0.0,-1.6635,-1.6572,-1.6522,-1.6522,-1.6522,0.0,-1.5676,-1.5588,-1.5365,-1.488,-1.532,0.0,0.0,0.0,-1.6522,-1.6522,-1.7011,-1.7588,-1.822,-1.9929,-2.055,-2.0059,-2.1849,-2.2392,-2.1852,-2.2452,-2.3009,-2.3595,-2.3595,-2.3551,-2.3463,-2.3011,-2.2843,-2.2787,-2.2753,-2.3056,-2.3595,-2.3595,-2.3595,-2.3684,0.0909,-0.0786,0.0,0.0,0.0,-0.4866,-0.4991,-0.5098,-0.5033,-0.4765,-0.484,-0.4813,-0.4587,-0.4643,-0.468,-0.468,-0.4791,-0.5113,-0.5651,-0.5706,-0.6036,-0.675,-0.6804,-0.7128,-0.7883,-0.7883,-0.8209,-0.8804,-0.8804,0.0,0.0,0.0,0.0,0.0,0.0,0.0,-1.0762,-1.0218,0.0,-0.9961,-0.9961,-0.9666,-0.9211,-0.9762,-0.9562,-0.8956,-0.8956,-0.9061,-0.9211,-0.9762,-0.9961,-1.0167,-1.1408,-1.1868,-1.209,-1.2772,-1.2988,-1.3008,-1.3076,-1.2998,-1.29,-1.2969,-1.2988,-1.2969,-1.29,-1.2939,-1.3096,-1.3437,-1.3174,-1.3057,-1.3623,0.0,0.0,0.0,0.0,-1.7225,-1.7225,-1.6823,-1.6522,-1.6522,-1.6522,-1.6238,-1.5676,0.0,0.0,0.0,-1.5543,-1.582,0.0,0.0,-1.6522,0.0,-1.6609,-1.7388,0.0,0.0,-2.0626,-2.1393,-2.2246,-2.2649,-2.2543,-2.2649,-2.3009,-2.3595,-2.3595,-2.3334,-2.2875,-2.3259,-2.343,-2.3385,-2.2877,-2.3056,-2.3595,-2.3595,-2.3595,-2.3566,-0.0614,0.0,0.0,0.0,0.0,0.0,0.0,-0.4525,-0.465,-0.4887,-0.4486,-0.4327,-0.4596,-0.4567,-0.4519,-0.4519,-0.4519,-0.4625,-0.4948,-0.5003,-0.5273,-0.5982,-0.6036,-0.6367,-0.7128,-0.7128,-0.7509,-0.8209,-0.8209,0.0,0.0,0.0,0.0,0.0,0.0,-0.9465,0.0,0.0,0.0,-0.9263,-0.9263,-0.9113,-0.8857,-0.9159,-0.9061,-0.8804,-0.8804,-0.8804,-0.8857,-0.9159,-0.9263,-0.9465,-1.0466,-1.1015,-1.1416,-1.2138,-1.2608,-1.2881,-1.2881,-1.2881,-1.2881,-1.2881,-1.2881,-1.2881,-1.2881,-1.2881,-1.2939,-1.3145,-1.3018,-1.3027,-1.3559,-1.4585,0.0,0.0,0.0,-1.6936,-1.6936,-1.6685,-1.6522,-1.6522,-1.6238,-1.6051,-1.6051,-1.5776,0.0,0.0,0.0,-1.6182,-1.6466,0.0,-1.6522,0.0,0.0,0.0,-1.8173,0.0,-2.0143,-2.0294,-2.126,-2.188,-2.2193,-2.2193,-2.2711,-2.3595,-2.3595,-2.3246,-2.2651,-2.2279,-2.2313,-2.2577,-2.2278,-2.2574,-2.3143,-2.3143,-2.2905,-2.2651,-0.1694,-0.2131,0.0,0.0,-0.4464,-0.437,-0.3801,-0.3577,-0.3783,-0.4652,-0.4088,-0.3887,-0.4589,-0.4591,-0.4519,-0.4519,-0.4519,-0.4519,-0.4519,-0.4519,-0.4732,-0.5273,-0.5269,-0.5601,-0.6367,-0.6367,-0.6745,-0.745,-0.7616,0.0,0.0,0.0,0.0,0.0,0.0,0.0,0.0,0.0,-0.8804,-0.8804,-0.8804,-0.8804,-0.8804,-0.8804,-0.8804,-0.8804,-0.8804,-0.8804,-0.8804,-0.8804,-0.891,-0.9113,-0.9614,-1.0261,-1.0914,-1.1616,-1.2187,-1.2715,-1.2881,-1.2881,-1.2881,-1.2881,-1.2881,-1.2881,-1.2881,-1.2881,-1.2881,-1.2881,-1.2881,-1.3055,-1.3684,-1.4521,0.0,0.0,0.0,0.0,-1.6654,-1.6597,-1.6466,-1.6337,-1.5908,-1.5732,-1.6064,0.0,0.0,0.0,-1.6151,-1.6522,-1.6522,-1.6522,-1.6522,0.0,0.0,-1.7244,-1.73,0.0,-1.9416,-1.9001,-2.0092,-2.0957,-2.152,-2.152,-2.2132,-2.3216,-2.3216,-2.2922,-2.2361,-2.094,-2.088,-2.1658,-2.1429,-2.19,-2.2694,-2.2694,-2.2346,-2.2053,0.0,0.0,0.0,0.0,0.0,-0.2869,-0.2809,-0.2117,-0.2106,-0.3579,-0.3681,-0.383,-0.4455,-0.4525,-0.4519,-0.4519,-0.4519,-0.4519,-0.4519,-0.4519,-0.4515,-0.457,-0.457,-0.4893,-0.5597,-0.5597,-0.5977,-0.6696,-0.7396,-0.7723,0.0,0.0,0.0,0.0,0.0,0.0,0.0,-0.8804,-0.8804,-0.8804,-0.8804,-0.8804,-0.8804,-0.8804,-0.8804,-0.8804,-0.8804,-0.8804,-0.8804,-0.8804,-0.9211,-0.971,-0.9762,-1.0261,-1.0914,-1.1616,-1.1864,-1.203,-1.2725,-1.2881,-1.2881,-1.2881,-1.2881,-1.2881,-1.2881,-1.2881,-1.2881,-1.2881,-1.2881,-1.3055,-1.3684,-1.4291,-1.5017,0.0,0.0,0.0,0.0,-1.6848,-1.6293,-1.5764,-1.5632,-1.541,-1.4926,-1.532,0.0,0.0,-1.6151,-1.6522,-1.6522,-1.6522,-1.6522,-1.6522,-1.6572,-1.6823,-1.739,-1.81,-1.863,-1.8994,-1.9738,-2.0342,-2.0894,-2.0894,-2.1259,-2.1885,-2.1885,-2.1837,-2.1656,-1.9908,-2.0185,-2.1571,-2.0484,-2.1151,-2.2694,-2.2694,-2.2649,-2.2603,0.0,0.0,0.0,0.0,0.0,0.0,0.0,-0.1557,-0.1633,-0.2647,-0.2734,-0.3216,-0.4363,-0.4519,-0.4519,-0.4519,-0.4519,-0.4519,-0.4519,-0.4519,-0.4519,-0.4519,-0.4519,-0.4625,-0.4893,-0.4893,-0.5218,0.0,0.0,0.0,0.0,0.0,0.0,0.0,0.0,-0.8804,-0.8804,-0.8804,-0.8804,-0.8804,-0.8804,-0.8804,-0.8804,-0.8804,-0.8804,-0.8804,-0.8804,-0.8804,-0.8804,-0.8804,-0.8956,-0.9211,-0.9211,-0.9666,-1.0312,-1.1015,-1.1466,-1.1972,-1.2715,-1.2881,-1.2881,-1.2881,-1.2559,-1.2344,-1.2774,-1.2559,-1.2344,-1.2822,-1.2881,-1.2968,-1.3238,-1.3745,-1.4281,-1.4744,0.0,0.0,0.0,-1.643,-1.6281,-1.5676,-1.5276,-1.4971,-1.4698,-1.4595,0.0,0.0,0.0,-1.6522,-1.6522,-1.6522,-1.6672,-1.7024,0.0,-1.6798,-1.7375,-1.7619,-1.7836,-1.8053,-1.8984,-1.9733,-2.0342,-2.0637,-2.1113,-2.1697,-2.1293,-2.1158,-2.1052,-1.9953,-2.0132,-2.1097,-2.0609,-2.09,-2.1561,-2.1561,-2.1307,-2.0913,-0.0806,0.0,-0.1141,0.0,-0.1877,-0.1672,-0.0996,-0.0907,-0.1257,-0.2068,-0.2195,-0.2788,-0.4349,-0.4519,-0.4519,-0.4519,-0.4519,-0.4519,-0.4519,-0.4519,-0.4519,-0.4519,-0.4519,0.0,-0.4519,-0.4519,-0.4732,-0.5218,-0.557,0.0,0.0,0.0,0.0,0.0,-0.8374,-0.848,-0.848,-0.8699,-0.8804,-0.8804,-0.8804,-0.8804,-0.8804,-0.8804,-0.8804,-0.8804,-0.8804,-0.8804,-0.8804,-0.8804,-0.8804,-0.8804,-0.8804,-0.9113,-0.9666,-1.0568,-1.1166,-1.1724,-1.2666,-1.2881,-1.2832,-1.2618,-1.2187,-1.1922,-1.2452,-1.2178,-1.2021,-1.2774,-1.2881,-1.2881,-1.2881,-1.3238,-1.36,-1.3768,0.0,0.0,0.0,-1.582,-1.5832,-1.5365,-1.4778,-1.4387,-1.4201,-1.3967,0.0,0.0,0.0,-1.6324,-1.6479,-1.6522,-1.671,0.0,0.0,0.0,-1.7124,-1.7137,-1.7287,-1.7639,-1.8405,-1.9177,-1.996,-2.0315,-2.0733,-2.1135,-2.0683,-2.0514,-2.0441,-1.9808,-1.9938,-2.046,-2.0159,-2.0327,-2.0756,-2.0413,-2.0093,-1.9799,0.0,0.0,0.0,0.0,0.0,0.0,0.0,0.0,-0.0549,-0.2003,-0.2222,-0.2788,-0.4349,-0.4519,-0.4519,-0.4519,-0.4519,-0.4519,-0.4519,-0.4519,-0.4519,0.0,0.0,-0.4519,-0.4519,-0.4519,-0.4519,-0.4519,0.0,0.0,-0.5546,0.0,-0.6642,-0.6642,-0.7402,-0.7723,-0.7777,-0.848,-0.8804,-0.8804,-0.8804,-0.8804,-0.8804,-0.8804,-0.8804,-0.8804,-0.8804,-0.8804,-0.8804,-0.8804,-0.8804,-0.8804,-0.8804,-0.8811,-0.9061,-1.0415,-1.0813,-1.1124,-1.252,-1.2881,-1.2715,-1.1972,-1.1814,-1.1814,-1.1814,-1.1814,-1.2021,-1.2774,-1.2881,-1.2881,-1.2881,-1.2929,-1.3104,-1.3684,0.0,0.0,0.0,-1.5096,-1.4709,-1.4698,-1.419,-1.36,-1.2968,-1.3467,0.0,0.0,0.0,0.0,0.0,0.0,0.0,-1.6522,-1.6522,0.0,-1.6522,-1.6522,-1.7087,-1.8191,-1.8204,-1.8769,-1.9786,-1.9798,-1.9798,-1.9798,-1.9811,-1.9787,-1.976,-1.9204,-1.9351,-1.9695,-1.8656,-1.9294,-2.065,-1.9536,-1.9483,-1.9998,0.0,0.0,0.0,0.0,0.0,0.0,0.0,0.0,-0.0357,-0.1352,-0.1426,-0.184,-0.2843,-0.3846,-0.4294,0.0,-0.4184,-0.4519,0.0,-0.4015,-0.3735,-0.3735,-0.368,-0.368,-0.3735,-0.4236,-0.4519,-0.4519,0.0,0.0,0.0,-0.6529,-0.6844,-0.6588,-0.6858,-0.6966,-0.702,-0.7723,-0.8049,-0.8103,-0.8593,-0.848,-0.8049,-0.8049,-0.7723,-0.7343,-0.7883,-0.8049,-0.8103,-0.8646,-0.8804,-0.8804,-0.8804,-0.8804,-0.8956,-0.9865,-1.0115,-1.032,-1.1233,-1.1484,-1.1425,-1.1166,-1.0762,-1.0568,-1.1015,-1.1466,-1.2021,-1.2774,-1.2881,-1.2881,-1.2881,-1.2881,-1.2968,-1.3152,-1.3552,0.0,-1.4318,0.0,-1.456,-1.4143,-1.3909,-1.3552,-1.2968,-1.3055,0.0,0.0,0.0,0.0,0.0,0.0,0.0,0.0,-1.7099,0.0,-1.7099,-1.7099,-1.7287,-1.7652,-1.8028,-1.8769,-1.9798,-1.9798,-1.9798,-1.9798,-1.9798,-1.9598,-1.9253,-1.9069,-1.8904,-1.8668,-1.8314,-1.8548,-1.9044,-1.9009,-1.9137,-1.9336,0.0067,0.0,0.0,0.0,0.0,0.0,0.0,0.0,-0.0293,-0.0982,-0.1076,-0.1284,-0.173,-0.2899,0.0,-0.34,-0.379,-0.4181,-0.4463,-0.379,-0.3345,-0.3345,-0.3065,-0.301,-0.3345,-0.379,0.0,-0.4519,-0.4558,-0.4887,-0.5333,-0.5897,-0.5999,-0.5823,-0.6095,-0.6204,-0.6253,-0.6966,-0.7289,-0.7343,-0.7777,-0.7723,-0.7289,-0.7289,-0.702,-0.6642,-0.7128,-0.745,-0.7777,-0.8215,-0.8586,-0.8804,-0.8804,-0.8804,-0.8956,-0.9614,-0.9814,-0.9969,-1.0618,-1.0813,-1.0762,-1.0466,-1.0115,-0.9917,-1.032,-1.1166,-1.1922,-1.2393,-1.2715,-1.2881,-1.2881,-1.2881,-1.2881,-1.2881,-1.3238,-1.3552,-1.3768,-1.392,-1.3978,-1.3815,-1.36,-1.3334,0.0,-1.2881,-1.3296,0.0,0.0,0.0,0.0,0.0,-1.6911,-1.7049,-1.7049,-1.7049,-1.7049,-1.7049,-1.7275,-1.7702,-1.8442,-1.9158,-1.9798,-1.9798,-1.9798,-1.9798,-1.9798,-1.951,-1.8983,-1.8983,-1.8694,-1.8179,-1.7978,-1.8154,-1.8505,-1.843,-1.8668,-1.8994,0.0269,0.0066,0.0065,0.0,0.0,0.0,0.0,0.0,-0.0232,-0.0955,-0.1006,-0.1006,-0.1006,-0.1619,-0.2343,-0.3065,0.0,0.0,-0.446,-0.368,-0.3231,-0.3231,-0.2508,-0.2454,-0.3121,-0.3231,-0.368,-0.4519,-0.4519,-0.4519,-0.4519,-0.4519,-0.4519,-0.4515,-0.5164,-0.5433,-0.5487,-0.6199,-0.6529,-0.6534,-0.6588,-0.6588,-0.6529,-0.6529,-0.648,-0.648,-0.6534,-0.6961,-0.7557,-0.761,-0.8103,-0.8699,-0.8699,-0.8752,-0.891,-0.9562,-0.971,-0.9865,-1.0517,-1.0661,-1.0517,-0.9865,-0.971,-0.9762,-0.9762,-1.0771,-1.1665,-1.1765,-1.2344,-1.2822,-1.2881,-1.2881,-1.2881,-1.2881,-1.2881,-1.3113,-1.3637,-1.3238,-1.3104,-1.3684,0.0,0.0,-1.2968,-1.2968,-1.3248,0.0,0.0,0.0,0.0,0.0,-1.7112,-1.6534,-1.6559,-1.6559,-1.6522,-1.6597,-1.7187,-1.8279,-1.9309,-1.9798,-1.9798,-1.9798,-1.9798,-1.9798,-1.9798,-1.9484,-1.892,-1.892,-1.8618,-1.8041,-1.7513,-1.7953,-1.8744,-1.779,-1.8091,-1.8943,0.0,0.0,0.0774,0.0129,0.0,0.0,0.0,0.0,-0.0057,-0.0224,-0.028,-0.028,-0.028,-0.0392,-0.0839,-0.1563,-0.2676,-0.368,-0.446,-0.3231,-0.2454,-0.2454,-0.173,-0.1452,-0.1619,-0.273,-0.368,-0.4519,-0.4519,-0.4519,-0.4519,-0.4519,-0.4519,-0.4519,-0.468,-0.4732,-0.4787,-0.5492,-0.576,-0.5814,-0.6367,-0.6258,-0.576,-0.576,-0.5437,-0.5062,-0.5601,-0.5869,-0.6086,-0.6691,-0.7348,-0.7943,-0.7943,-0.8368,-0.8857,-0.9008,-0.9061,-0.9061,-0.9211,-0.9256,-0.9211,-0.9061,-0.9061,-0.9159,-0.9666,-1.0064,-1.0568,-1.1566,-1.1922,-1.2236,-1.2774,-1.2881,-1.2881,-1.2881,-1.2881,-1.2978,-1.3104,-1.2968,-1.2978,0.0,-1.2968,-1.3055,-1.3552,-1.36,-1.405,0.0,0.0,-1.6061,-1.6262,-1.6973,-1.7112,-1.6534,-1.6948,-1.6974,-1.6522,-1.7375,-1.8154,-1.8844,-1.9497,-1.9798,-1.9798,-1.9798,-1.9798,-1.9798,-1.9798,-1.9271,-1.8405,-1.8405,-1.7815,-1.6911,-1.6773,-1.6886,-1.7187,-1.779,-1.8179,-1.8475,0.2143,0.1881,0.1577,0.0758,0.054,0.0405,0.0059,0.0,0.0,0.0,0.0,0.0,0.0,0.0,-0.028,-0.1062,-0.1842,-0.2676,-0.34,-0.2343,-0.1675,-0.1675,-0.1006,-0.0727,-0.1118,-0.1898,-0.2843,-0.3959,-0.3959,-0.4181,-0.4519,-0.4519,-0.4519,-0.4519,-0.4519,-0.4519,-0.4515,-0.4893,-0.5058,-0.5058,-0.5496,-0.5386,-0.5058,-0.5058,-0.4842,-0.4574,-0.4897,-0.5218,-0.5542,-0.5982,-0.6583,-0.7235,-0.7616,-0.7996,-0.8374,-0.8699,-0.8804,-0.8804,-0.8804,-0.8804,-0.8804,-0.8804,-0.8804,-0.891,-0.9263,-0.9562,-1.002,-1.0762,-1.1366,-1.1922,-1.2344,-1.2666,-1.2881,-1.2881,-1.2881,-1.2881,-1.2881,-1.2881,-1.2881,-1.2881,-1.2881,-1.3017,-1.3372,-1.3372,-1.3873,-1.5096,-1.5211,0.0,-1.6365,-1.6438,-1.6445,-1.6491,-1.7087,-1.7237,-1.6911,-1.8028,-1.8731,-1.8983,-1.9547,-1.9798,-1.9798,-1.9798,-1.9798,-1.9798,-1.9798,-1.9196,-1.8204,-1.8204,-1.7539,-1.6522,-1.6522,-1.6685,-1.6986,-1.7601,-1.8141,-1.8591,0.3078,0.2825,0.2475,0.1672,0.1417,0.1089,0.0295,0.0178,0.012,0.0,0.0,0.0,0.0,0.0,-0.0224,-0.0895,-0.0951,-0.1284,-0.212,-0.1507,-0.1118,-0.1118,-0.0392,-0.028,-0.0895,-0.1062,-0.1786,-0.3121,-0.3287,-0.3735,-0.4349,-0.446,-0.4519,-0.4519,-0.4519,-0.4519,-0.4519,-0.4519,-0.4519,-0.4519,-0.4519,-0.4519,-0.4519,-0.4519,-0.4519,-0.4519,-0.4519,-0.4842,-0.5324,-0.5324,-0.5819,-0.6529,-0.7176,-0.7503,-0.783,-0.8427,-0.8699,-0.8804,-0.8804,-0.8804,-0.8804,-0.8804,-0.8804,-0.8804,-0.8804,-0.9263,-0.9666,-0.9762,-1.072,-1.1516,-1.1616,-1.2147,-1.2646,-1.2812,-1.2763,-1.2793,-1.2969,0.0,-1.2881,-1.2881,-1.2881,-1.2929,-1.3017,-1.3065,-1.3498,-1.4717,-1.4345,-1.4693,-1.6173,-1.5683,-1.5716,-1.6409,-1.6909,-1.7297,-1.7476,-1.8398,-1.8859,-1.8946,-1.9432,-1.9579,-1.9475,-1.9579,-1.9631,-1.9643,-1.9747,-1.9246,-1.8329,-1.8329,-1.7664,-1.6647,-1.6647,-1.6898,-1.7262,-1.735,-1.8028,-1.8881,0.3949,0.3779,0.3502,0.2612,0.2478,0.2126,0.1222,0.11,0.0858,0.0123,0.0,0.0,0.0,0.0,-0.0056,-0.0168,-0.0168,-0.0727,-0.212,-0.1507,-0.1118,-0.1118,-0.0392,-0.0056,-0.0168,-0.0783,-0.1507,-0.2397,-0.3065,-0.3456,-0.3566,-0.4184,-0.4519,-0.4519,-0.4519,-0.4519,-0.4519,-0.4519,-0.4519,-0.4519,-0.4519,-0.4519,-0.4519,-0.4519,-0.4519,-0.4519,-0.4519,-0.457,-0.468,-0.468,-0.5113,-0.5706,-0.5814,-0.6686,-0.7723,-0.783,-0.8315,-0.8804,-0.8804,-0.8804,-0.8804,-0.8804,-0.8804,-0.8804,-0.8804,-0.8857,-0.9106,-0.9666,-0.9969,-1.0261,-1.0864,-1.1074,-1.1437,-1.2413,-1.2209,-1.2308,-1.3249,0.0,-1.2881,-1.2881,-1.2881,-1.3104,-1.36,-1.3637,-1.4079,-1.5137,-1.5112,-1.5333,-1.6031,-1.5953,-1.5959,-1.6079,-1.6158,-1.6708,-1.7804,-1.7972,-1.8322,-1.8766,-1.8838,-1.8543,-1.7961,-1.8608,-1.8874,-1.8927,-1.9527,-1.9459,-1.8894,-1.8894,-1.8242,-1.725,-1.725,-1.6999,-1.671,-1.72,-1.779,-1.8317,0.4821,0.4643,0.4359,0.3526,0.3319,0.3028,0.2198,0.2076,0.1898,0.148,0.1364,0.1153,0.0741,0.0642,0.0451,0.0058,0.0,-0.028,-0.095,-0.0671,-0.0504,-0.0504,-0.0168,0.0,0.0,-0.0336,-0.0894,-0.1619,-0.1953,-0.2565,-0.3345,-0.368,-0.3846,-0.3846,-0.3846,-0.3622,-0.3289,-0.368,-0.3846,-0.3901,-0.4349,-0.4519,-0.4519,-0.4519,-0.4519,-0.4519,-0.4519,-0.4519,-0.4519,-0.4519,-0.468,-0.5003,-0.5378,-0.5973,-0.6578,-0.7015,-0.7883,-0.8804,-0.8804,-0.8804,-0.8804,-0.8804,-0.8804,-0.8804,-0.8804,-0.8804,-0.891,-0.9211,-0.9562,-0.9917,-1.0218,-1.0568,-1.1074,-1.1974,-1.1941,-1.2144,-1.3035,-1.2998,-1.2881,-1.2881,-1.2881,-1.3017,-1.3286,-1.3498,-1.3947,-1.4774,-1.4731,-1.4987,-1.5817,-1.5531,-1.5421,-1.567,-1.6179,-1.6845,-1.7714,-1.7714,-1.7882,-1.8124,-1.8124,-1.7961,-1.7633,-1.8382,-1.8715,-1.8715,-1.9475,-1.951,-1.8983,-1.8983,-1.8555,-1.779,-1.7501,-1.74,-1.7426,-1.7388,-1.7727,-1.8204,0.5428,0.5267,0.499,0.4405,0.4264,0.3919,0.3097,0.2978,0.2937,0.2736,0.2628,0.2318,0.1668,0.1561,0.1272,0.0653,0.0407,0.0286,0.0284,0.0113,0.0,0.0,0.0,0.0,0.0,0.0,-0.028,-0.0838,-0.1006,-0.1675,-0.2788,-0.2954,-0.3065,-0.3065,-0.3065,-0.2732,-0.2232,-0.2788,-0.3176,-0.34,-0.4012,-0.4349,-0.4519,-0.4519,-0.4519,-0.4519,-0.4519,-0.4519,-0.4519,-0.4519,-0.4519,-0.457,-0.5109,-0.5378,-0.5597,-0.6204,-0.7289,-0.8321,-0.848,-0.8646,-0.8804,-0.8804,-0.8804,-0.8804,-0.8804,-0.8804,-0.8804,-0.8804,-0.9211,-0.9562,-0.9562,-0.9969,-1.0592,-1.1378,0.0,-1.1766,-1.2662,-1.2662,-1.2662,-1.3027,-1.2919,-1.2908,-1.3164,-1.3467,-1.3888,-1.4471,-1.4347,-1.4681,-1.5552,-1.5203,-1.5078,-1.54,-1.6126,-1.6765,-1.7357,-1.7357,-1.7357,-1.7357,-1.7357,-1.7357,-1.7357,-1.8124,-1.8555,-1.8715,-1.9307,-1.9419,-1.9158,-1.8995,-1.8734,-1.8355,-1.7728,-1.7681,-1.7892,-1.7471,-1.7669,-1.8127,0.5428,0.5418,0.5345,0.5276,0.5269,0.4998,0.4069,0.3936,0.3604,0.2809,0.2671,0.2686,0.2629,0.2616,0.2568,0.2512,0.1713,0.1208,0.1232,0.0469,0.0,0.0,0.0,0.0,0.0,0.0,0.0,-0.0056,-0.0783,-0.1174,-0.1284,-0.1952,-0.2286,-0.2286,-0.2286,-0.2232,-0.223,-0.223,-0.2732,-0.34,-0.3456,-0.3904,-0.4519,-0.4519,-0.4519,-0.4519,-0.4519,-0.4519,-0.4519,-0.4519,-0.4519,-0.4519,-0.457,-0.5003,-0.5487,-0.5542,-0.6145,-0.6912,-0.7616,-0.8262,-0.8804,-0.8804,-0.8804,-0.8804,-0.8804,-0.8804,-0.8804,-0.8804,-0.8857,-0.8857,-0.8857,-0.891,-0.9302,-1.0432,0.0,0.0,-1.2357,-1.1869,-1.1904,-1.3295,-1.2936,-1.2921,-1.3898,-1.4019,-1.4258,-1.4714,-1.4772,-1.4922,-1.54,-1.5361,-1.5381,-1.541,-1.5497,-1.5833,-1.6595,-1.6595,-1.6595,-1.6595,-1.6595,-1.6595,-1.6595,-1.7357,-1.8058,-1.8715,-1.8768,-1.9125,-1.9684,-1.8984,-1.8797,-1.8858,-1.8162,-1.7599,-1.7157,-1.7121,-1.748,-1.8034,0.5428,0.5284,0.5216,0.5216,0.5216,0.5087,0.4758,0.4766,0.4755,0.4417,0.4243,0.4001,0.3549,0.3356,0.3069,0.2638,0.2135,0.1846,0.1878,0.1139,0.0454,0.0,0.0,0.0,0.0,0.0,0.0,0.0,-0.028,-0.0671,-0.1118,-0.1396,-0.1507,-0.1507,-0.1507,-0.1285,-0.0838,-0.134,-0.1675,-0.2009,-0.2454,-0.3121,-0.368,-0.3234,-0.3677,-0.4463,-0.3956,-0.407,-0.4519,-0.4519,-0.4519,-0.4519,-0.4519,-0.468,-0.4897,-0.4897,-0.5382,-0.5982,-0.6249,-0.7224,-0.8103,-0.8103,-0.848,-0.8804,-0.8804,-0.8804,-0.8804,-0.8804,-0.8804,-0.8864,-0.9038,-0.9072,-0.9384,-1.0442,0.0,-1.0885,-1.1869,-1.1751,-1.1751,-1.2295,-1.2141,-1.2138,-1.2549,-1.3304,-1.3867,-1.4025,-1.4735,-1.5244,-1.54,-1.541,-1.541,-1.541,-1.541,-1.5517,-1.5816,-1.5806,-1.5806,-1.5806,-1.5806,-1.6036,-1.6549,-1.7246,-1.8015,-1.8715,-1.8715,-1.8874,-1.9097,-1.8821,-1.8502,-1.8131,-1.7958,-1.7693,-1.7356,-1.7037,-1.7357,-1.793,0.5428,0.5277,0.5203,0.5203,0.5203,0.5203,0.5203,0.5294,0.5428,0.5428,0.527,0.498,0.4475,0.4256,0.3936,0.3359,0.2934,0.2663,0.2665,0.1685,0.0783,0.0056,0.0,0.0,0.0,0.0,0.0,0.0,0.0,-0.028,-0.0727,-0.0727,-0.0727,-0.0727,-0.0727,-0.0448,-0.0056,-0.056,-0.0895,-0.1118,-0.1675,-0.2286,-0.2899,-0.2397,-0.2843,-0.3735,-0.34,-0.3677,-0.4181,-0.4405,-0.4519,-0.4519,-0.4519,-0.4519,-0.4519,-0.4519,-0.4842,-0.5164,-0.5164,-0.6086,-0.7122,-0.7563,-0.8103,-0.8533,-0.8752,-0.8878,-0.8945,-0.8945,-0.9018,-0.9145,-0.9345,-0.9379,-0.9608,-1.0258,-1.043,-1.074,-1.1302,-1.1267,-1.1394,-1.185,-1.1736,-1.1711,-1.2061,-1.2888,-1.3517,-1.3749,-1.4538,-1.5108,-1.541,-1.541,-1.541,-1.541,-1.541,-1.541,-1.541,-1.541,-1.541,-1.541,-1.541,-1.5806,-1.6549,-1.7034,-1.7688,-1.8328,-1.8124,-1.8124,-1.8328,-1.8112,-1.7852,-1.7599,-1.752,-1.7384,-1.7213,-1.709,-1.7395,-1.7868,0.5428,0.5425,0.5425,0.5425,0.5425,0.5425,0.5425,0.5428,0.5428,0.5428,0.5428,0.5428,0.5428,0.5425,0.5298,0.5145,0.4293,0.3748,0.3589,0.2046,0.0783,0.0056,0.0,0.0,0.0,0.0,0.0,0.0,0.0,0.0,0.0,0.0,0.0,0.0,0.0,0.0,0.0,0.0,-0.0448,-0.1118,-0.1118,-0.1507,-0.2174,-0.2174,-0.2174,-0.2286,-0.301,-0.3287,-0.34,-0.4236,-0.4519,-0.4519,-0.4519,-0.4519,-0.4519,-0.4519,-0.4519,-0.4519,-0.4519,-0.5003,-0.5869,-0.7343,-0.767,-0.7889,-0.8593,-0.8984,-0.9183,-0.919,-0.9479,-0.9686,-0.9686,-0.9686,-0.9686,-0.9693,-0.9933,-1.0246,-1.0624,-1.0335,-1.065,-1.2188,-1.176,-1.1765,-1.2846,-1.3009,-1.3312,-1.4145,-1.4204,-1.4569,-1.5352,-1.541,-1.541,-1.541,-1.541,-1.541,-1.541,-1.541,-1.541,-1.541,-1.541,-1.5806,-1.6492,-1.6492,-1.6922,-1.7578,-1.6821,-1.6922,-1.7523,-1.681,-1.6922,-1.7523,-1.6754,-1.6492,-1.6595,-1.7302,-1.7578,-1.7797,0.5428,0.5274,0.5199,0.5199,0.5199,0.5199,0.5199,0.5382,0.5484,0.5442,0.5454,0.5481,0.5439,0.5264,0.5179,0.5135,0.4694,0.4145,0.3519,0.297,0.2341,0.1563,0.056,0.0,0.0,0.0,0.0,0.0,0.0,0.0,0.0,0.0,0.0,0.0,0.0,0.0,0.0,0.0,-0.0112,-0.0336,-0.0336,-0.0783,-0.1397,-0.0838,-0.1284,-0.2174,-0.1842,-0.2397,-0.3345,-0.3566,-0.4015,-0.4519,-0.4519,-0.4519,-0.4519,-0.4519,-0.4519,-0.4519,-0.4519,-0.4625,-0.5003,-0.5923,-0.6634,-0.7205,-0.7427,-0.7613,-0.7905,-0.8543,-0.8719,-0.9017,-0.9827,-0.9987,-1.006,-1.0261,-1.0374,-1.0519,-1.0609,-1.0554,-1.0615,-1.1098,-1.0912,-1.0947,-1.1288,-1.1841,-1.2258,-1.2504,-1.3537,-1.4569,-1.5352,-1.541,-1.541,-1.541,-1.541,-1.541,-1.541,-1.541,-1.541,-1.541,-1.541,-1.5806,-1.6492,-1.6492,-1.6922,-1.7578,-1.6821,-1.6595,-1.681,-1.6595,-1.6312,-1.6083,-1.6368,-1.6208,-1.5748,-1.5968,-1.6687,-1.7677,0.5507,0.5328,0.524,0.5301,0.526,0.522,0.522,0.5379,0.5467,0.5439,0.5443,0.5464,0.5439,0.5277,0.5199,0.5135,0.486,0.4359,0.3529,0.337,0.2954,0.2232,0.1341,0.0727,0.0448,0.0448,0.028,0.0,0.0,0.0,0.0,0.0,0.0,0.0,0.0,0.0,0.0,0.0,0.0,0.0,0.0,-0.028,-0.0615,-0.0168,-0.056,-0.1284,-0.1174,-0.1675,-0.2454,-0.2788,-0.3176,-0.3622,-0.3956,-0.4015,-0.407,-0.4405,-0.4519,-0.4519,-0.4519,-0.4519,-0.4584,-0.5087,-0.5854,-0.653,-0.6904,-0.7387,-0.7908,-0.8448,-0.8951,-0.9455,-1.0192,-1.0294,-1.0347,-1.0598,-1.0624,-1.0624,-1.0624,-1.0624,-1.0624,-1.0624,-1.0624,-1.0624,-1.0624,-1.1045,-1.1593,-1.2205,-1.3476,-1.4569,-1.5352,-1.541,-1.541,-1.541,-1.541,-1.541,-1.541,-1.541,-1.5498,-1.5664,-1.5498,-1.5732,-1.6359,-1.6175,-1.6312,-1.6687,-1.6255,-1.6036,-1.6036,-1.6036,-1.5806,-1.5468,-1.5864,-1.581,-1.5565,-1.6069,-1.6894,-1.7794,0.5747,0.5602,0.5621,0.5614,0.5521,0.5491,0.5428,0.5439,0.5446,0.5428,0.5439,0.5442,0.5428,0.5428,0.5304,0.5165,0.488,0.441,0.3751,0.3521,0.3121,0.2454,0.2397,0.2063,0.134,0.1229,0.0838,0.0112,0.0112,0.0056,0.0,0.0,0.0,0.0,0.0,0.0,0.0,0.0,0.0,0.0,0.0,0.0,0.0,0.0,0.0,-0.0112,-0.0783,-0.1062,-0.1229,-0.1952,-0.2174,-0.2341,-0.301,-0.3231,-0.3456,-0.4181,-0.446,-0.4519,-0.4519,-0.4519,-0.456,-0.467,-0.5227,-0.5901,-0.6744,-0.7735,-0.8516,-0.8578,-0.9531,-1.0364,-1.0498,-1.0561,-1.0624,-1.0624,-1.0624,-1.0624,-1.0624,-1.0624,-1.0624,-1.0624,-1.0624,-1.0624,-1.0624,-1.0624,-1.131,-1.2928,-1.3683,-1.451,-1.5352,-1.5449,-1.5449,-1.541,-1.5449,-1.5469,-1.5469,-1.543,-1.5615,-1.6056,-1.5596,-1.5615,-1.5986,-1.5596,-1.541,-1.541,-1.541,-1.541,-1.541,-1.541,-1.541,-1.541,-1.5371,-1.5479,-1.5797,-1.6939,-1.7489,-1.7899,0.5755,0.6676,0.7248,0.5688,0.5969,0.6203,0.5491,0.5464,0.5498,0.5446,0.5464,0.5494,0.5439,0.5428,0.5415,0.5315,0.504,0.4756,0.4465,0.432,0.4181,0.4015,0.4012,0.3622,0.2843,0.223,0.1619,0.0838,0.0838,0.056,0.0,0.0,0.0,0.0,0.0,0.0,0.0,0.0,0.0,0.0,0.0,0.0,0.0,0.0,0.0,0.0,-0.0168,-0.0615,-0.1229,-0.1952,-0.2174,-0.2232,-0.2397,-0.2843,-0.3345,-0.3566,-0.407,-0.4519,-0.4519,-0.4519,-0.4584,-0.4802,-0.4987,-0.5147,-0.5479,-0.5834,-0.6343,-0.7044,-0.7921,-0.8742,-0.946,-1.011,-1.0624,-1.0624,-1.0624,-1.0624,-1.0624,-1.0624,-1.0624,-1.0624,-1.0624,-1.0624,-1.0624,-1.0624,-1.134,-1.3154,-1.3289,-1.3914,-1.5294,-1.5732,-1.5762,-1.542,-1.5742,-1.5918,-1.5918,-1.5586,-1.5459,-1.5557,-1.5459,-1.5459,-1.5547,-1.5459,-1.541,-1.541,-1.541,-1.541,-1.541,-1.541,-1.541,-1.5381,-1.5049,-1.5172,-1.5474,-1.5441,-1.5821,-1.6481,0.7183,0.7602,0.793,0.6931,0.6721,0.6527,0.6075,0.5758,0.5454,0.5439,0.5433,0.545,0.5435,0.5428,0.5428,0.5428,0.5091,0.4884,0.4806,0.4585,0.4519,0.4519,0.4519,0.4294,0.3901,0.3511,0.2732,0.1619,0.1284,0.0895,0.0504,0.0168,0.0168,0.0504,0.0168,0.0168,0.0504,0.0168,0.0,0.0,0.0,0.0,0.0,0.0,0.0,0.0,0.0,-0.0224,-0.0615,-0.1006,-0.113,-0.1201,-0.1544,-0.1964,-0.2339,-0.2689,-0.312,-0.3483,-0.3826,-0.3949,-0.4079,-0.472,-0.4918,-0.4975,-0.5192,-0.5621,-0.6137,-0.6588,-0.7372,-0.8285,-0.9139,-0.9658,-1.011,-1.0561,-1.0624,-1.0624,-1.0624,-1.0624,-1.0624,-1.0624,-1.0624,-1.0678,-1.0755,-1.0895,-1.1549,-1.2956,-1.2766,-1.3124,-1.4362,-1.4935,-1.5091,-1.4815,-1.565,-1.6125,-1.6125,-1.547,-1.52,-1.5336,-1.5631,-1.5723,-1.5723,-1.5723,-1.5605,-1.541,-1.541,-1.541,-1.541,-1.541,-1.5293,-1.5088,-1.4873,-1.4879,-1.4982,-1.5239,-1.5917,-1.6667,0.8762,0.8596,0.8514,0.827,0.7645,0.7111,0.6915,0.6338,0.5818,0.5818,0.5818,0.5818,0.5818,0.5686,0.5557,0.5428,0.5091,0.4918,0.4918,0.4633,0.4519,0.4519,0.4519,0.4519,0.4519,0.4519,0.379,0.2397,0.1786,0.1396,0.1284,0.0671,0.0727,0.1285,0.0671,0.0727,0.1229,0.0504,0.0168,0.0168,0.0056,0.0,0.0,0.0,0.0,0.0,0.0,0.0,0.0,0.0,0.0,-0.0117,-0.0704,-0.1017,-0.1223,-0.1841,-0.2111,-0.2304,-0.2951,-0.3242,-0.3566,-0.4457,-0.4829,-0.5026,-0.5301,-0.5947,-0.6461,-0.6461,-0.7177,-0.8027,-0.8748,-0.9075,-0.953,-1.0238,-1.0498,-1.0624,-1.0624,-1.0624,-1.0624,-1.0624,-1.0665,-1.0768,-1.1109,-1.1316,-1.1785,-1.2728,-1.2416,-1.2572,-1.3347,-1.3873,-1.4096,-1.3974,-1.5163,-1.5785,-1.5785,-1.5095,-1.4907,-1.5159,-1.5603,-1.5861,-1.5979,-1.6033,-1.5869,-1.5518,-1.5439,-1.541,-1.541,-1.541,-1.5205,-1.4873,-1.4727,-1.463,-1.4687,-1.5423,-1.6297,-1.6939,0.9093,0.9961,1.0412,0.8654,0.8706,0.8683,0.7962,0.7702,0.7637,0.7637,0.7637,0.7637,0.7637,0.6981,0.6203,0.5491,0.5091,0.4918,0.4918,0.4633,0.4519,0.4519,0.4519,0.4519,0.4519,0.4519,0.407,0.3234,0.3065,0.2676,0.2063,0.1952,0.1952,0.2063,0.1952,0.1952,0.2009,0.1285,0.095,0.0895,0.028,0.0,0.0,0.0,0.0,0.0,0.0,0.0,0.0,0.0,0.0,0.0,-0.0117,-0.059,-0.1129,-0.1221,-0.1716,-0.2197,-0.2319,-0.2919,-0.3608,-0.3854,-0.4526,-0.5145,-0.5321,-0.5491,-0.5557,-0.5557,-0.6268,-0.6915,-0.7046,-0.8285,-0.9338,-0.9466,-1.011,-1.0624,-1.0624,-1.0624,-1.0624,-1.0624,-1.0782,-1.1149,-1.1697,-1.155,-1.1875,-1.2969,-1.255,-1.2572,-1.3347,-1.3551,-1.3509,-1.3199,-1.398,-1.4343,-1.4343,-1.4147,-1.4255,-1.4612,-1.4698,-1.497,-1.5423,-1.5913,-1.6096,-1.5957,-1.5576,-1.541,-1.541,-1.541,-1.5381,-1.5254,-1.4512,-1.4655,-1.5221,-1.5041,-1.5028,-1.5074,1.0341,1.0613,1.0699,0.9776,0.9473,0.9139,0.8812,0.8291,0.8027,0.8027,0.8027,0.8027,0.8027,0.7242,0.6527,0.6141,0.5474,0.5036,0.5036,0.4836,0.468,0.4596,0.4589,0.4551,0.4519,0.4519,0.4349,0.4015,0.3511,0.3176,0.2843,0.2397,0.2397,0.2788,0.2397,0.2452,0.2788,0.2009,0.1452,0.1062,0.0727,0.0392,0.0,0.0,0.0,0.0,0.0,0.0,0.0,0.0,0.0,0.0,0.0,-0.0251,-0.051,-0.0517,-0.0704,-0.1073,-0.1451,-0.1869,-0.2475,-0.3563,-0.4102,-0.4586,-0.5259,-0.543,-0.5464,-0.5446,-0.5686,-0.6141,-0.6588,-0.7307,-0.8156,-0.9139,-0.9594,-1.004,-1.0561,-1.0624,-1.0685,-1.0782,-1.1056,-1.1403,-1.183,-1.1897,-1.2114,-1.2597,-1.2263,-1.2215,-1.2548,-1.2912,-1.3006,-1.2858,-1.3784,-1.4312,-1.4312,-1.3846,-1.3754,-1.4081,-1.3894,-1.4369,-1.5321,-1.5762,-1.6126,-1.6416,-1.5967,-1.5771,-1.5752,-1.5508,-1.5273,-1.5,-1.4321,-1.4365,-1.4707,-1.4766,-1.4785,-1.4756]}]]